<?xml version="1.0" encoding="UTF-8" standalone="no" ?>
<gpx xmlns="http://www.topografix.com/GPX/1/1" xmlns:xsi="http://www.w3.org/2001/XMLSchema-instance" xsi:schemaLocation="http://www.topografix.com/GPX/1/1 http://www.topografix.com/GPX/1/1/gpx.xsd" version="1.1" creator="VisuGPX - https://www.visugpx.com">
  <metadata>
    <name>Cadaques J15</name>
    <desc><![CDATA[File with points/tracks from Locus Map/4.25.1]]></desc>
  </metadata>
  <trk>
    <name><![CDATA[2024-09-30 Campo J15]]></name>
    <extensions>
      <line xmlns="http://www.topografix.com/GPX/gpx_style/0/2">
        <color>0000FF</color>
        <opacity>0.70</opacity>
        <width>6.0</width>
      </line>
    </extensions>
    <trkseg>
      <trkpt lat="42.40545" lon="0.74065">
        <ele>888.15</ele>
        <time>2024-09-30T06:43:20.000Z</time>
      </trkpt>
      <trkpt lat="42.40551" lon="0.74074">
        <ele>878.52</ele>
        <time>2024-09-30T06:44:06.000Z</time>
      </trkpt>
      <trkpt lat="42.40557" lon="0.74083">
        <ele>859.16</ele>
        <time>2024-09-30T06:48:47.000Z</time>
      </trkpt>
      <trkpt lat="42.40562" lon="0.74093">
        <ele>854.88</ele>
        <time>2024-09-30T06:51:14.000Z</time>
      </trkpt>
      <trkpt lat="42.40564" lon="0.74106">
        <ele>853.7</ele>
        <time>2024-09-30T06:51:27.000Z</time>
      </trkpt>
      <trkpt lat="42.40569" lon="0.74117">
        <ele>853.19</ele>
        <time>2024-09-30T06:51:32.000Z</time>
      </trkpt>
      <trkpt lat="42.40575" lon="0.74128">
        <ele>852.65</ele>
        <time>2024-09-30T06:51:38.000Z</time>
      </trkpt>
      <trkpt lat="42.4058" lon="0.7414">
        <ele>852.2</ele>
        <time>2024-09-30T06:51:44.000Z</time>
      </trkpt>
      <trkpt lat="42.40586" lon="0.74149">
        <ele>851.8</ele>
        <time>2024-09-30T06:51:51.000Z</time>
      </trkpt>
      <trkpt lat="42.40592" lon="0.74159">
        <ele>851.37</ele>
        <time>2024-09-30T06:51:59.999Z</time>
      </trkpt>
      <trkpt lat="42.40597" lon="0.7417">
        <ele>851.09</ele>
        <time>2024-09-30T06:52:07.999Z</time>
      </trkpt>
      <trkpt lat="42.40604" lon="0.74178">
        <ele>850.85</ele>
        <time>2024-09-30T06:52:18.999Z</time>
      </trkpt>
      <trkpt lat="42.40617" lon="0.74176">
        <ele>850.79</ele>
        <time>2024-09-30T06:52:23.999Z</time>
      </trkpt>
      <trkpt lat="42.40629" lon="0.74174">
        <ele>850.77</ele>
        <time>2024-09-30T06:52:28.999Z</time>
      </trkpt>
      <trkpt lat="42.4064" lon="0.74166">
        <ele>850.76</ele>
        <time>2024-09-30T06:52:33.999Z</time>
      </trkpt>
      <trkpt lat="42.40651" lon="0.74157">
        <ele>850.77</ele>
        <time>2024-09-30T06:52:38.999Z</time>
      </trkpt>
      <trkpt lat="42.40664" lon="0.74149">
        <ele>850.81</ele>
        <time>2024-09-30T06:52:43.999Z</time>
      </trkpt>
      <trkpt lat="42.40676" lon="0.74141">
        <ele>850.9</ele>
        <time>2024-09-30T06:52:48.999Z</time>
      </trkpt>
      <trkpt lat="42.40687" lon="0.74137">
        <ele>851</ele>
        <time>2024-09-30T06:52:53.999Z</time>
      </trkpt>
      <trkpt lat="42.40696" lon="0.74144">
        <ele>851.12</ele>
        <time>2024-09-30T06:52:58.999Z</time>
      </trkpt>
      <trkpt lat="42.40704" lon="0.74156">
        <ele>851.24</ele>
        <time>2024-09-30T06:53:03.999Z</time>
      </trkpt>
      <trkpt lat="42.40713" lon="0.74165">
        <ele>851.35</ele>
        <time>2024-09-30T06:53:08.999Z</time>
      </trkpt>
      <trkpt lat="42.40721" lon="0.74174">
        <ele>851.48</ele>
        <time>2024-09-30T06:53:14.999Z</time>
      </trkpt>
      <trkpt lat="42.40727" lon="0.74184">
        <ele>851.56</ele>
        <time>2024-09-30T06:53:22.999Z</time>
      </trkpt>
      <trkpt lat="42.40732" lon="0.74196">
        <ele>851.71</ele>
        <time>2024-09-30T06:53:27.999Z</time>
      </trkpt>
      <trkpt lat="42.4074" lon="0.7421">
        <ele>851.93</ele>
        <time>2024-09-30T06:53:32.999Z</time>
      </trkpt>
      <trkpt lat="42.40747" lon="0.74226">
        <ele>852.21</ele>
        <time>2024-09-30T06:53:37.999Z</time>
      </trkpt>
      <trkpt lat="42.40753" lon="0.74241">
        <ele>852.52</ele>
        <time>2024-09-30T06:53:42.999Z</time>
      </trkpt>
      <trkpt lat="42.40757" lon="0.74254">
        <ele>852.9</ele>
        <time>2024-09-30T06:53:47.999Z</time>
      </trkpt>
      <trkpt lat="42.4076" lon="0.74265">
        <ele>853.52</ele>
        <time>2024-09-30T06:53:54.999Z</time>
      </trkpt>
      <trkpt lat="42.40769" lon="0.74261">
        <ele>854</ele>
        <time>2024-09-30T06:54:00.999Z</time>
      </trkpt>
      <trkpt lat="42.40777" lon="0.74255">
        <ele>854.48</ele>
        <time>2024-09-30T06:54:07.999Z</time>
      </trkpt>
      <trkpt lat="42.40789" lon="0.74253">
        <ele>854.84</ele>
        <time>2024-09-30T06:54:12.999Z</time>
      </trkpt>
      <trkpt lat="42.408" lon="0.74241">
        <ele>855.19</ele>
        <time>2024-09-30T06:54:17.999Z</time>
      </trkpt>
      <trkpt lat="42.40804" lon="0.74228">
        <ele>855.55</ele>
        <time>2024-09-30T06:54:22.999Z</time>
      </trkpt>
      <trkpt lat="42.4081" lon="0.74217">
        <ele>856.04</ele>
        <time>2024-09-30T06:54:28.999Z</time>
      </trkpt>
      <trkpt lat="42.40818" lon="0.74208">
        <ele>856.55</ele>
        <time>2024-09-30T06:54:34.999Z</time>
      </trkpt>
      <trkpt lat="42.40826" lon="0.74199">
        <ele>857.08</ele>
        <time>2024-09-30T06:54:40.999Z</time>
      </trkpt>
      <trkpt lat="42.40834" lon="0.74192">
        <ele>857.71</ele>
        <time>2024-09-30T06:54:47.999Z</time>
      </trkpt>
      <trkpt lat="42.40842" lon="0.74185">
        <ele>858.23</ele>
        <time>2024-09-30T06:54:53.999Z</time>
      </trkpt>
      <trkpt lat="42.40849" lon="0.74177">
        <ele>858.74</ele>
        <time>2024-09-30T06:54:59.999Z</time>
      </trkpt>
      <trkpt lat="42.40858" lon="0.74169">
        <ele>859.15</ele>
        <time>2024-09-30T06:55:04.999Z</time>
      </trkpt>
      <trkpt lat="42.40869" lon="0.7416">
        <ele>859.55</ele>
        <time>2024-09-30T06:55:09.999Z</time>
      </trkpt>
      <trkpt lat="42.40879" lon="0.74151">
        <ele>859.94</ele>
        <time>2024-09-30T06:55:14.999Z</time>
      </trkpt>
      <trkpt lat="42.40886" lon="0.74143">
        <ele>860.34</ele>
        <time>2024-09-30T06:55:19.999Z</time>
      </trkpt>
      <trkpt lat="42.40895" lon="0.74135">
        <ele>860.78</ele>
        <time>2024-09-30T06:55:25.999Z</time>
      </trkpt>
      <trkpt lat="42.40903" lon="0.74126">
        <ele>861.51</ele>
        <time>2024-09-30T06:55:37.999Z</time>
      </trkpt>
      <trkpt lat="42.40915" lon="0.74116">
        <ele>861.9</ele>
        <time>2024-09-30T06:55:42.999Z</time>
      </trkpt>
      <trkpt lat="42.40925" lon="0.74105">
        <ele>862.27</ele>
        <time>2024-09-30T06:55:47.999Z</time>
      </trkpt>
      <trkpt lat="42.40933" lon="0.74097">
        <ele>862.65</ele>
        <time>2024-09-30T06:55:52.999Z</time>
      </trkpt>
      <trkpt lat="42.40941" lon="0.74091">
        <ele>863.44</ele>
        <time>2024-09-30T06:56:14.999Z</time>
      </trkpt>
      <trkpt lat="42.40946" lon="0.74081">
        <ele>865.45</ele>
        <time>2024-09-30T06:57:42.999Z</time>
      </trkpt>
      <trkpt lat="42.40938" lon="0.74088">
        <ele>874.44</ele>
        <time>2024-09-30T07:07:03.000Z</time>
      </trkpt>
      <trkpt lat="42.4093" lon="0.74095">
        <ele>874.75</ele>
        <time>2024-09-30T07:07:08.000Z</time>
      </trkpt>
      <trkpt lat="42.4092" lon="0.74101">
        <ele>875.02</ele>
        <time>2024-09-30T07:07:13.000Z</time>
      </trkpt>
      <trkpt lat="42.40912" lon="0.7411">
        <ele>875.33</ele>
        <time>2024-09-30T07:07:19.000Z</time>
      </trkpt>
      <trkpt lat="42.40904" lon="0.74117">
        <ele>875.55</ele>
        <time>2024-09-30T07:07:24.000Z</time>
      </trkpt>
      <trkpt lat="42.40895" lon="0.74125">
        <ele>875.8</ele>
        <time>2024-09-30T07:07:30.000Z</time>
      </trkpt>
      <trkpt lat="42.40885" lon="0.74133">
        <ele>875.98</ele>
        <time>2024-09-30T07:07:35.000Z</time>
      </trkpt>
      <trkpt lat="42.40875" lon="0.74142">
        <ele>876.14</ele>
        <time>2024-09-30T07:07:40.000Z</time>
      </trkpt>
      <trkpt lat="42.40865" lon="0.74152">
        <ele>876.28</ele>
        <time>2024-09-30T07:07:45.000Z</time>
      </trkpt>
      <trkpt lat="42.40855" lon="0.74162">
        <ele>876.41</ele>
        <time>2024-09-30T07:07:50.000Z</time>
      </trkpt>
      <trkpt lat="42.40844" lon="0.74172">
        <ele>876.52</ele>
        <time>2024-09-30T07:07:55.000Z</time>
      </trkpt>
      <trkpt lat="42.40831" lon="0.74186">
        <ele>876.61</ele>
        <time>2024-09-30T07:08:00.000Z</time>
      </trkpt>
      <trkpt lat="42.40817" lon="0.74199">
        <ele>876.69</ele>
        <time>2024-09-30T07:08:05.000Z</time>
      </trkpt>
      <trkpt lat="42.40798" lon="0.74216">
        <ele>876.94</ele>
        <time>2024-09-30T07:08:10.000Z</time>
      </trkpt>
      <trkpt lat="42.40779" lon="0.74235">
        <ele>876.9</ele>
        <time>2024-09-30T07:08:15.000Z</time>
      </trkpt>
      <trkpt lat="42.40765" lon="0.74242">
        <ele>876.86</ele>
        <time>2024-09-30T07:08:20.000Z</time>
      </trkpt>
      <trkpt lat="42.40758" lon="0.74233">
        <ele>876.83</ele>
        <time>2024-09-30T07:08:25.000Z</time>
      </trkpt>
      <trkpt lat="42.40755" lon="0.74219">
        <ele>876.82</ele>
        <time>2024-09-30T07:08:30.000Z</time>
      </trkpt>
      <trkpt lat="42.40751" lon="0.74207">
        <ele>876.82</ele>
        <time>2024-09-30T07:08:35.000Z</time>
      </trkpt>
      <trkpt lat="42.40748" lon="0.74195">
        <ele>876.84</ele>
        <time>2024-09-30T07:08:41.000Z</time>
      </trkpt>
      <trkpt lat="42.4074" lon="0.74178">
        <ele>876.81</ele>
        <time>2024-09-30T07:08:46.000Z</time>
      </trkpt>
      <trkpt lat="42.40725" lon="0.7416">
        <ele>876.67</ele>
        <time>2024-09-30T07:08:51.000Z</time>
      </trkpt>
      <trkpt lat="42.4071" lon="0.74144">
        <ele>876.6</ele>
        <time>2024-09-30T07:08:56.000Z</time>
      </trkpt>
      <trkpt lat="42.40697" lon="0.74129">
        <ele>876.57</ele>
        <time>2024-09-30T07:09:01.000Z</time>
      </trkpt>
      <trkpt lat="42.40683" lon="0.74111">
        <ele>876.32</ele>
        <time>2024-09-30T07:09:06.000Z</time>
      </trkpt>
      <trkpt lat="42.40674" lon="0.74083">
        <ele>875.79</ele>
        <time>2024-09-30T07:09:11.000Z</time>
      </trkpt>
      <trkpt lat="42.40665" lon="0.74055">
        <ele>875.13</ele>
        <time>2024-09-30T07:09:16.000Z</time>
      </trkpt>
      <trkpt lat="42.40654" lon="0.74026">
        <ele>874.45</ele>
        <time>2024-09-30T07:09:21.000Z</time>
      </trkpt>
      <trkpt lat="42.40643" lon="0.73996">
        <ele>873.8</ele>
        <time>2024-09-30T07:09:26.000Z</time>
      </trkpt>
      <trkpt lat="42.40636" lon="0.73966">
        <ele>873.12</ele>
        <time>2024-09-30T07:09:31.000Z</time>
      </trkpt>
      <trkpt lat="42.40637" lon="0.73937">
        <ele>872.5</ele>
        <time>2024-09-30T07:09:36.000Z</time>
      </trkpt>
      <trkpt lat="42.40637" lon="0.73915">
        <ele>872.37</ele>
        <time>2024-09-30T07:09:41.000Z</time>
      </trkpt>
      <trkpt lat="42.40638" lon="0.73894">
        <ele>872.19</ele>
        <time>2024-09-30T07:09:46.000Z</time>
      </trkpt>
      <trkpt lat="42.40645" lon="0.73882">
        <ele>871.95</ele>
        <time>2024-09-30T07:09:51.000Z</time>
      </trkpt>
      <trkpt lat="42.40655" lon="0.7388">
        <ele>871.53</ele>
        <time>2024-09-30T07:09:56.000Z</time>
      </trkpt>
      <trkpt lat="42.40665" lon="0.73874">
        <ele>870.63</ele>
        <time>2024-09-30T07:10:11.000Z</time>
      </trkpt>
      <trkpt lat="42.4068" lon="0.73881">
        <ele>869.89</ele>
        <time>2024-09-30T07:10:16.000Z</time>
      </trkpt>
      <trkpt lat="42.40696" lon="0.7388">
        <ele>869.08</ele>
        <time>2024-09-30T07:10:21.000Z</time>
      </trkpt>
      <trkpt lat="42.40698" lon="0.73859">
        <ele>868.26</ele>
        <time>2024-09-30T07:10:26.000Z</time>
      </trkpt>
      <trkpt lat="42.40697" lon="0.7384">
        <ele>867.44</ele>
        <time>2024-09-30T07:10:31.000Z</time>
      </trkpt>
      <trkpt lat="42.40696" lon="0.73826">
        <ele>866.64</ele>
        <time>2024-09-30T07:10:36.000Z</time>
      </trkpt>
      <trkpt lat="42.40697" lon="0.73812">
        <ele>865.9</ele>
        <time>2024-09-30T07:10:41.000Z</time>
      </trkpt>
      <trkpt lat="42.40697" lon="0.73799">
        <ele>865.22</ele>
        <time>2024-09-30T07:10:46.000Z</time>
      </trkpt>
      <trkpt lat="42.40696" lon="0.73785">
        <ele>864.47</ele>
        <time>2024-09-30T07:10:52.000Z</time>
      </trkpt>
      <trkpt lat="42.40697" lon="0.73771">
        <ele>863.8</ele>
        <time>2024-09-30T07:10:58.000Z</time>
      </trkpt>
      <trkpt lat="42.40698" lon="0.73757">
        <ele>863.2</ele>
        <time>2024-09-30T07:11:04.000Z</time>
      </trkpt>
      <trkpt lat="42.407" lon="0.73743">
        <ele>862.67</ele>
        <time>2024-09-30T07:11:10.000Z</time>
      </trkpt>
      <trkpt lat="42.407" lon="0.7373">
        <ele>862.2</ele>
        <time>2024-09-30T07:11:16.000Z</time>
      </trkpt>
      <trkpt lat="42.40702" lon="0.73716">
        <ele>861.79</ele>
        <time>2024-09-30T07:11:22.000Z</time>
      </trkpt>
      <trkpt lat="42.40701" lon="0.73702">
        <ele>861.44</ele>
        <time>2024-09-30T07:11:28.000Z</time>
      </trkpt>
      <trkpt lat="42.40701" lon="0.73689">
        <ele>861.19</ele>
        <time>2024-09-30T07:11:33.000Z</time>
      </trkpt>
      <trkpt lat="42.40701" lon="0.73676">
        <ele>860.93</ele>
        <time>2024-09-30T07:11:39.000Z</time>
      </trkpt>
      <trkpt lat="42.40701" lon="0.73663">
        <ele>860.74</ele>
        <time>2024-09-30T07:11:44.000Z</time>
      </trkpt>
      <trkpt lat="42.40702" lon="0.73651">
        <ele>860.58</ele>
        <time>2024-09-30T07:11:49.000Z</time>
      </trkpt>
      <trkpt lat="42.40702" lon="0.73638">
        <ele>860.43</ele>
        <time>2024-09-30T07:11:54.000Z</time>
      </trkpt>
      <trkpt lat="42.40703" lon="0.73624">
        <ele>860.29</ele>
        <time>2024-09-30T07:12:00.000Z</time>
      </trkpt>
      <trkpt lat="42.40703" lon="0.7361">
        <ele>860.17</ele>
        <time>2024-09-30T07:12:06.000Z</time>
      </trkpt>
      <trkpt lat="42.40702" lon="0.73598">
        <ele>860.08</ele>
        <time>2024-09-30T07:12:11.000Z</time>
      </trkpt>
      <trkpt lat="42.40701" lon="0.73584">
        <ele>860</ele>
        <time>2024-09-30T07:12:17.000Z</time>
      </trkpt>
      <trkpt lat="42.40701" lon="0.73572">
        <ele>859.95</ele>
        <time>2024-09-30T07:12:22.000Z</time>
      </trkpt>
      <trkpt lat="42.407" lon="0.73558">
        <ele>859.91</ele>
        <time>2024-09-30T07:12:28.000Z</time>
      </trkpt>
      <trkpt lat="42.40698" lon="0.73545">
        <ele>859.9</ele>
        <time>2024-09-30T07:12:34.000Z</time>
      </trkpt>
      <trkpt lat="42.40698" lon="0.73531">
        <ele>859.89</ele>
        <time>2024-09-30T07:12:40.000Z</time>
      </trkpt>
      <trkpt lat="42.40697" lon="0.73518">
        <ele>859.91</ele>
        <time>2024-09-30T07:12:46.000Z</time>
      </trkpt>
      <trkpt lat="42.40696" lon="0.73504">
        <ele>859.95</ele>
        <time>2024-09-30T07:12:53.000Z</time>
      </trkpt>
      <trkpt lat="42.40697" lon="0.7349">
        <ele>860</ele>
        <time>2024-09-30T07:12:59.000Z</time>
      </trkpt>
      <trkpt lat="42.40696" lon="0.73477">
        <ele>860.06</ele>
        <time>2024-09-30T07:13:05.000Z</time>
      </trkpt>
      <trkpt lat="42.40695" lon="0.73464">
        <ele>860.12</ele>
        <time>2024-09-30T07:13:10.000Z</time>
      </trkpt>
      <trkpt lat="42.40694" lon="0.73452">
        <ele>860.19</ele>
        <time>2024-09-30T07:13:15.000Z</time>
      </trkpt>
      <trkpt lat="42.40695" lon="0.73439">
        <ele>860.28</ele>
        <time>2024-09-30T07:13:21.000Z</time>
      </trkpt>
      <trkpt lat="42.40692" lon="0.73427">
        <ele>860.39</ele>
        <time>2024-09-30T07:13:27.000Z</time>
      </trkpt>
      <trkpt lat="42.40692" lon="0.73414">
        <ele>860.51</ele>
        <time>2024-09-30T07:13:33.000Z</time>
      </trkpt>
      <trkpt lat="42.40691" lon="0.73402">
        <ele>860.65</ele>
        <time>2024-09-30T07:13:39.000Z</time>
      </trkpt>
      <trkpt lat="42.4069" lon="0.73389">
        <ele>860.82</ele>
        <time>2024-09-30T07:13:45.000Z</time>
      </trkpt>
      <trkpt lat="42.40689" lon="0.73376">
        <ele>861.03</ele>
        <time>2024-09-30T07:13:52.000Z</time>
      </trkpt>
      <trkpt lat="42.40688" lon="0.73364">
        <ele>861.22</ele>
        <time>2024-09-30T07:13:58.000Z</time>
      </trkpt>
      <trkpt lat="42.40688" lon="0.73351">
        <ele>861.44</ele>
        <time>2024-09-30T07:14:04.000Z</time>
      </trkpt>
      <trkpt lat="42.40686" lon="0.73338">
        <ele>861.69</ele>
        <time>2024-09-30T07:14:10.000Z</time>
      </trkpt>
      <trkpt lat="42.40686" lon="0.73325">
        <ele>861.96</ele>
        <time>2024-09-30T07:14:16.000Z</time>
      </trkpt>
      <trkpt lat="42.40686" lon="0.73312">
        <ele>862.24</ele>
        <time>2024-09-30T07:14:22.000Z</time>
      </trkpt>
      <trkpt lat="42.40685" lon="0.73299">
        <ele>862.58</ele>
        <time>2024-09-30T07:14:29.000Z</time>
      </trkpt>
      <trkpt lat="42.40685" lon="0.73285">
        <ele>862.88</ele>
        <time>2024-09-30T07:14:35.000Z</time>
      </trkpt>
      <trkpt lat="42.40687" lon="0.73271">
        <ele>863.26</ele>
        <time>2024-09-30T07:14:42.000Z</time>
      </trkpt>
      <trkpt lat="42.40692" lon="0.73258">
        <ele>863.59</ele>
        <time>2024-09-30T07:14:48.000Z</time>
      </trkpt>
      <trkpt lat="42.40696" lon="0.73245">
        <ele>863.88</ele>
        <time>2024-09-30T07:14:53.000Z</time>
      </trkpt>
      <trkpt lat="42.40699" lon="0.73232">
        <ele>864.17</ele>
        <time>2024-09-30T07:14:58.000Z</time>
      </trkpt>
      <trkpt lat="42.40703" lon="0.73221">
        <ele>864.48</ele>
        <time>2024-09-30T07:15:03.000Z</time>
      </trkpt>
      <trkpt lat="42.40709" lon="0.73209">
        <ele>864.85</ele>
        <time>2024-09-30T07:15:09.000Z</time>
      </trkpt>
      <trkpt lat="42.40712" lon="0.73197">
        <ele>865.16</ele>
        <time>2024-09-30T07:15:14.000Z</time>
      </trkpt>
      <trkpt lat="42.40717" lon="0.73185">
        <ele>865.55</ele>
        <time>2024-09-30T07:15:20.000Z</time>
      </trkpt>
      <trkpt lat="42.40723" lon="0.73175">
        <ele>865.93</ele>
        <time>2024-09-30T07:15:26.000Z</time>
      </trkpt>
      <trkpt lat="42.40727" lon="0.73163">
        <ele>866.39</ele>
        <time>2024-09-30T07:15:33.000Z</time>
      </trkpt>
      <trkpt lat="42.40732" lon="0.73153">
        <ele>866.84</ele>
        <time>2024-09-30T07:15:40.000Z</time>
      </trkpt>
      <trkpt lat="42.40739" lon="0.73144">
        <ele>867.24</ele>
        <time>2024-09-30T07:15:46.000Z</time>
      </trkpt>
      <trkpt lat="42.40748" lon="0.73138">
        <ele>867.71</ele>
        <time>2024-09-30T07:15:53.000Z</time>
      </trkpt>
      <trkpt lat="42.40757" lon="0.7314">
        <ele>868.19</ele>
        <time>2024-09-30T07:16:00.000Z</time>
      </trkpt>
      <trkpt lat="42.40767" lon="0.73137">
        <ele>868.69</ele>
        <time>2024-09-30T07:16:07.000Z</time>
      </trkpt>
      <trkpt lat="42.40771" lon="0.73124">
        <ele>869.38</ele>
        <time>2024-09-30T07:16:17.000Z</time>
      </trkpt>
      <trkpt lat="42.40774" lon="0.7311">
        <ele>869.71</ele>
        <time>2024-09-30T07:16:22.000Z</time>
      </trkpt>
      <trkpt lat="42.40776" lon="0.73091">
        <ele>870.04</ele>
        <time>2024-09-30T07:16:27.000Z</time>
      </trkpt>
      <trkpt lat="42.40778" lon="0.73068">
        <ele>870.34</ele>
        <time>2024-09-30T07:16:32.000Z</time>
      </trkpt>
      <trkpt lat="42.40779" lon="0.73054">
        <ele>870.64</ele>
        <time>2024-09-30T07:16:37.000Z</time>
      </trkpt>
      <trkpt lat="42.40782" lon="0.7304">
        <ele>871.07</ele>
        <time>2024-09-30T07:16:44.000Z</time>
      </trkpt>
      <trkpt lat="42.40782" lon="0.73024">
        <ele>871.38</ele>
        <time>2024-09-30T07:16:49.000Z</time>
      </trkpt>
      <trkpt lat="42.40782" lon="0.7301">
        <ele>871.72</ele>
        <time>2024-09-30T07:16:54.000Z</time>
      </trkpt>
      <trkpt lat="42.40782" lon="0.72997">
        <ele>872.08</ele>
        <time>2024-09-30T07:16:59.000Z</time>
      </trkpt>
      <trkpt lat="42.40783" lon="0.72983">
        <ele>872.51</ele>
        <time>2024-09-30T07:17:04.000Z</time>
      </trkpt>
      <trkpt lat="42.40784" lon="0.7297">
        <ele>873.22</ele>
        <time>2024-09-30T07:17:11.000Z</time>
      </trkpt>
      <trkpt lat="42.40784" lon="0.72957">
        <ele>873.94</ele>
        <time>2024-09-30T07:17:18.000Z</time>
      </trkpt>
      <trkpt lat="42.40787" lon="0.72945">
        <ele>874.56</ele>
        <time>2024-09-30T07:17:24.000Z</time>
      </trkpt>
      <trkpt lat="42.40791" lon="0.72933">
        <ele>875.34</ele>
        <time>2024-09-30T07:17:31.000Z</time>
      </trkpt>
      <trkpt lat="42.40797" lon="0.72922">
        <ele>876.3</ele>
        <time>2024-09-30T07:17:39.000Z</time>
      </trkpt>
      <trkpt lat="42.408" lon="0.72911">
        <ele>877.2</ele>
        <time>2024-09-30T07:17:46.000Z</time>
      </trkpt>
      <trkpt lat="42.40803" lon="0.72898">
        <ele>878.17</ele>
        <time>2024-09-30T07:17:52.999Z</time>
      </trkpt>
      <trkpt lat="42.40805" lon="0.72885">
        <ele>879.39</ele>
        <time>2024-09-30T07:18:00.999Z</time>
      </trkpt>
      <trkpt lat="42.40806" lon="0.72873">
        <ele>880.71</ele>
        <time>2024-09-30T07:18:08.999Z</time>
      </trkpt>
      <trkpt lat="42.40806" lon="0.72859">
        <ele>882.08</ele>
        <time>2024-09-30T07:18:16.999Z</time>
      </trkpt>
      <trkpt lat="42.40807" lon="0.72846">
        <ele>883.49</ele>
        <time>2024-09-30T07:18:24.999Z</time>
      </trkpt>
      <trkpt lat="42.40809" lon="0.72834">
        <ele>884.89</ele>
        <time>2024-09-30T07:18:32.999Z</time>
      </trkpt>
      <trkpt lat="42.40811" lon="0.72822">
        <ele>886.17</ele>
        <time>2024-09-30T07:18:39.999Z</time>
      </trkpt>
      <trkpt lat="42.40814" lon="0.7281">
        <ele>887.47</ele>
        <time>2024-09-30T07:18:46.999Z</time>
      </trkpt>
      <trkpt lat="42.40816" lon="0.72798">
        <ele>888.78</ele>
        <time>2024-09-30T07:18:53.999Z</time>
      </trkpt>
      <trkpt lat="42.4082" lon="0.72786">
        <ele>890.26</ele>
        <time>2024-09-30T07:19:01.999Z</time>
      </trkpt>
      <trkpt lat="42.40824" lon="0.72773">
        <ele>891.68</ele>
        <time>2024-09-30T07:19:09.999Z</time>
      </trkpt>
      <trkpt lat="42.40828" lon="0.72762">
        <ele>892.87</ele>
        <time>2024-09-30T07:19:16.999Z</time>
      </trkpt>
      <trkpt lat="42.40833" lon="0.72751">
        <ele>893.99</ele>
        <time>2024-09-30T07:19:23.999Z</time>
      </trkpt>
      <trkpt lat="42.40837" lon="0.72739">
        <ele>895.08</ele>
        <time>2024-09-30T07:19:30.999Z</time>
      </trkpt>
      <trkpt lat="42.40843" lon="0.72728">
        <ele>896.23</ele>
        <time>2024-09-30T07:19:38.999Z</time>
      </trkpt>
      <trkpt lat="42.40847" lon="0.72716">
        <ele>897.18</ele>
        <time>2024-09-30T07:19:45.999Z</time>
      </trkpt>
      <trkpt lat="42.40852" lon="0.72705">
        <ele>898.08</ele>
        <time>2024-09-30T07:19:52.999Z</time>
      </trkpt>
      <trkpt lat="42.40857" lon="0.72695">
        <ele>898.94</ele>
        <time>2024-09-30T07:19:59.999Z</time>
      </trkpt>
      <trkpt lat="42.40865" lon="0.72689">
        <ele>899.78</ele>
        <time>2024-09-30T07:20:06.999Z</time>
      </trkpt>
      <trkpt lat="42.40874" lon="0.72683">
        <ele>900.7</ele>
        <time>2024-09-30T07:20:14.999Z</time>
      </trkpt>
      <trkpt lat="42.40882" lon="0.72676">
        <ele>901.5</ele>
        <time>2024-09-30T07:20:21.999Z</time>
      </trkpt>
      <trkpt lat="42.40887" lon="0.72665">
        <ele>902.19</ele>
        <time>2024-09-30T07:20:27.999Z</time>
      </trkpt>
      <trkpt lat="42.40894" lon="0.72653">
        <ele>902.88</ele>
        <time>2024-09-30T07:20:33.999Z</time>
      </trkpt>
      <trkpt lat="42.40911" lon="0.7263">
        <ele>906.62</ele>
        <time>2024-09-30T07:20:38.999Z</time>
      </trkpt>
      <trkpt lat="42.40925" lon="0.72599">
        <ele>908.08</ele>
        <time>2024-09-30T07:20:43.999Z</time>
      </trkpt>
      <trkpt lat="42.40924" lon="0.72574">
        <ele>908.18</ele>
        <time>2024-09-30T07:20:48.999Z</time>
      </trkpt>
      <trkpt lat="42.40922" lon="0.72555">
        <ele>908.25</ele>
        <time>2024-09-30T07:20:53.999Z</time>
      </trkpt>
      <trkpt lat="42.40917" lon="0.72535">
        <ele>908.36</ele>
        <time>2024-09-30T07:20:58.999Z</time>
      </trkpt>
      <trkpt lat="42.40913" lon="0.72515">
        <ele>908.52</ele>
        <time>2024-09-30T07:21:03.999Z</time>
      </trkpt>
      <trkpt lat="42.40908" lon="0.72498">
        <ele>908.72</ele>
        <time>2024-09-30T07:21:08.999Z</time>
      </trkpt>
      <trkpt lat="42.40907" lon="0.72486">
        <ele>914.14</ele>
        <time>2024-09-30T07:24:54.999Z</time>
      </trkpt>
      <trkpt lat="42.40914" lon="0.72476">
        <ele>915.84</ele>
        <time>2024-09-30T07:25:20.999Z</time>
      </trkpt>
      <trkpt lat="42.40921" lon="0.72468">
        <ele>916.52</ele>
        <time>2024-09-30T07:25:25.999Z</time>
      </trkpt>
      <trkpt lat="42.40927" lon="0.72457">
        <ele>917.16</ele>
        <time>2024-09-30T07:25:30.999Z</time>
      </trkpt>
      <trkpt lat="42.40934" lon="0.72448">
        <ele>917.74</ele>
        <time>2024-09-30T07:25:35.999Z</time>
      </trkpt>
      <trkpt lat="42.4094" lon="0.72439">
        <ele>918.39</ele>
        <time>2024-09-30T07:25:41.999Z</time>
      </trkpt>
      <trkpt lat="42.40947" lon="0.72429">
        <ele>919.08</ele>
        <time>2024-09-30T07:25:48.999Z</time>
      </trkpt>
      <trkpt lat="42.40952" lon="0.72418">
        <ele>919.63</ele>
        <time>2024-09-30T07:25:54.999Z</time>
      </trkpt>
      <trkpt lat="42.40957" lon="0.72407">
        <ele>920.24</ele>
        <time>2024-09-30T07:26:01.999Z</time>
      </trkpt>
      <trkpt lat="42.4096" lon="0.72394">
        <ele>920.89</ele>
        <time>2024-09-30T07:26:09.999Z</time>
      </trkpt>
      <trkpt lat="42.40962" lon="0.7238">
        <ele>921.43</ele>
        <time>2024-09-30T07:26:16.999Z</time>
      </trkpt>
      <trkpt lat="42.40962" lon="0.72367">
        <ele>921.93</ele>
        <time>2024-09-30T07:26:23.999Z</time>
      </trkpt>
      <trkpt lat="42.40962" lon="0.72355">
        <ele>922.43</ele>
        <time>2024-09-30T07:26:30.999Z</time>
      </trkpt>
      <trkpt lat="42.4096" lon="0.72342">
        <ele>922.99</ele>
        <time>2024-09-30T07:26:37.999Z</time>
      </trkpt>
      <trkpt lat="42.40958" lon="0.7233">
        <ele>923.65</ele>
        <time>2024-09-30T07:26:44.999Z</time>
      </trkpt>
      <trkpt lat="42.40953" lon="0.72319">
        <ele>924.42</ele>
        <time>2024-09-30T07:26:51.999Z</time>
      </trkpt>
      <trkpt lat="42.40948" lon="0.72309">
        <ele>925.26</ele>
        <time>2024-09-30T07:26:58.999Z</time>
      </trkpt>
      <trkpt lat="42.40945" lon="0.72297">
        <ele>926.17</ele>
        <time>2024-09-30T07:27:05.999Z</time>
      </trkpt>
      <trkpt lat="42.40944" lon="0.72284">
        <ele>927.11</ele>
        <time>2024-09-30T07:27:12.999Z</time>
      </trkpt>
      <trkpt lat="42.40945" lon="0.72271">
        <ele>927.8</ele>
        <time>2024-09-30T07:27:17.999Z</time>
      </trkpt>
      <trkpt lat="42.40948" lon="0.72253">
        <ele>928.46</ele>
        <time>2024-09-30T07:27:22.999Z</time>
      </trkpt>
      <trkpt lat="42.40954" lon="0.72221">
        <ele>932.66</ele>
        <time>2024-09-30T07:27:27.999Z</time>
      </trkpt>
      <trkpt lat="42.40961" lon="0.72177">
        <ele>934.38</ele>
        <time>2024-09-30T07:27:32.999Z</time>
      </trkpt>
      <trkpt lat="42.40967" lon="0.72146">
        <ele>934.95</ele>
        <time>2024-09-30T07:27:37.999Z</time>
      </trkpt>
      <trkpt lat="42.4097" lon="0.72134">
        <ele>935.07</ele>
        <time>2024-09-30T07:27:42.999Z</time>
      </trkpt>
      <trkpt lat="42.40976" lon="0.72122">
        <ele>935.33</ele>
        <time>2024-09-30T07:27:49.999Z</time>
      </trkpt>
      <trkpt lat="42.40981" lon="0.72111">
        <ele>935.63</ele>
        <time>2024-09-30T07:27:56.999Z</time>
      </trkpt>
      <trkpt lat="42.40987" lon="0.721">
        <ele>935.98</ele>
        <time>2024-09-30T07:28:04.999Z</time>
      </trkpt>
      <trkpt lat="42.40993" lon="0.72089">
        <ele>936.39</ele>
        <time>2024-09-30T07:28:12.999Z</time>
      </trkpt>
      <trkpt lat="42.40993" lon="0.72076">
        <ele>936.94</ele>
        <time>2024-09-30T07:28:20.999Z</time>
      </trkpt>
      <trkpt lat="42.40989" lon="0.72065">
        <ele>937.63</ele>
        <time>2024-09-30T07:28:28.999Z</time>
      </trkpt>
      <trkpt lat="42.40984" lon="0.72054">
        <ele>938.36</ele>
        <time>2024-09-30T07:28:36.999Z</time>
      </trkpt>
      <trkpt lat="42.40978" lon="0.72043">
        <ele>939.14</ele>
        <time>2024-09-30T07:28:44.999Z</time>
      </trkpt>
      <trkpt lat="42.40974" lon="0.72032">
        <ele>939.94</ele>
        <time>2024-09-30T07:28:52.999Z</time>
      </trkpt>
      <trkpt lat="42.40968" lon="0.7202">
        <ele>940.76</ele>
        <time>2024-09-30T07:29:00.999Z</time>
      </trkpt>
      <trkpt lat="42.40964" lon="0.72008">
        <ele>941.61</ele>
        <time>2024-09-30T07:29:08.999Z</time>
      </trkpt>
      <trkpt lat="42.4096" lon="0.71997">
        <ele>942.46</ele>
        <time>2024-09-30T07:29:16.999Z</time>
      </trkpt>
      <trkpt lat="42.40957" lon="0.71984">
        <ele>943.39</ele>
        <time>2024-09-30T07:29:25.999Z</time>
      </trkpt>
      <trkpt lat="42.40955" lon="0.71971">
        <ele>944.25</ele>
        <time>2024-09-30T07:29:33.999Z</time>
      </trkpt>
      <trkpt lat="42.40955" lon="0.71959">
        <ele>945.17</ele>
        <time>2024-09-30T07:29:41.999Z</time>
      </trkpt>
      <trkpt lat="42.40954" lon="0.71947">
        <ele>946.15</ele>
        <time>2024-09-30T07:29:49.999Z</time>
      </trkpt>
      <trkpt lat="42.40952" lon="0.71935">
        <ele>947.17</ele>
        <time>2024-09-30T07:29:57.999Z</time>
      </trkpt>
      <trkpt lat="42.40948" lon="0.71924">
        <ele>948.08</ele>
        <time>2024-09-30T07:30:04.999Z</time>
      </trkpt>
      <trkpt lat="42.40944" lon="0.71912">
        <ele>949.12</ele>
        <time>2024-09-30T07:30:12.999Z</time>
      </trkpt>
      <trkpt lat="42.40944" lon="0.71899">
        <ele>950.12</ele>
        <time>2024-09-30T07:30:20.999Z</time>
      </trkpt>
      <trkpt lat="42.40942" lon="0.71887">
        <ele>950.96</ele>
        <time>2024-09-30T07:30:28.000Z</time>
      </trkpt>
      <trkpt lat="42.40939" lon="0.71875">
        <ele>951.92</ele>
        <time>2024-09-30T07:30:36.000Z</time>
      </trkpt>
      <trkpt lat="42.40934" lon="0.71864">
        <ele>952.88</ele>
        <time>2024-09-30T07:30:44.000Z</time>
      </trkpt>
      <trkpt lat="42.40929" lon="0.71852">
        <ele>953.87</ele>
        <time>2024-09-30T07:30:52.000Z</time>
      </trkpt>
      <trkpt lat="42.40928" lon="0.71839">
        <ele>954.86</ele>
        <time>2024-09-30T07:31:00.000Z</time>
      </trkpt>
      <trkpt lat="42.40933" lon="0.71828">
        <ele>955.85</ele>
        <time>2024-09-30T07:31:08.000Z</time>
      </trkpt>
      <trkpt lat="42.40936" lon="0.71815">
        <ele>956.8</ele>
        <time>2024-09-30T07:31:16.000Z</time>
      </trkpt>
      <trkpt lat="42.40939" lon="0.71804">
        <ele>957.64</ele>
        <time>2024-09-30T07:31:23.000Z</time>
      </trkpt>
      <trkpt lat="42.40942" lon="0.71791">
        <ele>958.8</ele>
        <time>2024-09-30T07:31:32.000Z</time>
      </trkpt>
      <trkpt lat="42.40945" lon="0.71779">
        <ele>960.04</ele>
        <time>2024-09-30T07:31:41.000Z</time>
      </trkpt>
      <trkpt lat="42.40949" lon="0.71768">
        <ele>960.98</ele>
        <time>2024-09-30T07:31:48.000Z</time>
      </trkpt>
      <trkpt lat="42.40951" lon="0.71755">
        <ele>962.06</ele>
        <time>2024-09-30T07:31:56.000Z</time>
      </trkpt>
      <trkpt lat="42.40953" lon="0.71742">
        <ele>963.2</ele>
        <time>2024-09-30T07:32:04.000Z</time>
      </trkpt>
      <trkpt lat="42.40956" lon="0.71729">
        <ele>964.6</ele>
        <time>2024-09-30T07:32:13.000Z</time>
      </trkpt>
      <trkpt lat="42.40957" lon="0.71717">
        <ele>965.78</ele>
        <time>2024-09-30T07:32:20.000Z</time>
      </trkpt>
      <trkpt lat="42.40959" lon="0.71705">
        <ele>967.22</ele>
        <time>2024-09-30T07:32:28.000Z</time>
      </trkpt>
      <trkpt lat="42.40958" lon="0.71693">
        <ele>968.66</ele>
        <time>2024-09-30T07:32:36.000Z</time>
      </trkpt>
      <trkpt lat="42.40959" lon="0.71679">
        <ele>970.24</ele>
        <time>2024-09-30T07:32:44.000Z</time>
      </trkpt>
      <trkpt lat="42.40962" lon="0.71667">
        <ele>971.82</ele>
        <time>2024-09-30T07:32:52.000Z</time>
      </trkpt>
      <trkpt lat="42.40966" lon="0.71655">
        <ele>973.16</ele>
        <time>2024-09-30T07:32:59.000Z</time>
      </trkpt>
      <trkpt lat="42.40973" lon="0.71647">
        <ele>974.46</ele>
        <time>2024-09-30T07:33:06.000Z</time>
      </trkpt>
      <trkpt lat="42.4098" lon="0.71654">
        <ele>975.85</ele>
        <time>2024-09-30T07:33:14.000Z</time>
      </trkpt>
      <trkpt lat="42.40979" lon="0.71667">
        <ele>976.98</ele>
        <time>2024-09-30T07:33:21.000Z</time>
      </trkpt>
      <trkpt lat="42.40976" lon="0.7168">
        <ele>978.22</ele>
        <time>2024-09-30T07:33:29.000Z</time>
      </trkpt>
      <trkpt lat="42.40974" lon="0.71693">
        <ele>979.48</ele>
        <time>2024-09-30T07:33:37.000Z</time>
      </trkpt>
      <trkpt lat="42.40975" lon="0.71706">
        <ele>980.75</ele>
        <time>2024-09-30T07:33:45.000Z</time>
      </trkpt>
      <trkpt lat="42.40979" lon="0.71719">
        <ele>982.11</ele>
        <time>2024-09-30T07:33:54.000Z</time>
      </trkpt>
      <trkpt lat="42.40982" lon="0.7173">
        <ele>983.13</ele>
        <time>2024-09-30T07:34:01.000Z</time>
      </trkpt>
      <trkpt lat="42.40985" lon="0.71742">
        <ele>984.3</ele>
        <time>2024-09-30T07:34:09.000Z</time>
      </trkpt>
      <trkpt lat="42.40988" lon="0.71754">
        <ele>985.2</ele>
        <time>2024-09-30T07:34:15.000Z</time>
      </trkpt>
      <trkpt lat="42.4099" lon="0.71766">
        <ele>986.41</ele>
        <time>2024-09-30T07:34:23.000Z</time>
      </trkpt>
      <trkpt lat="42.40992" lon="0.71779">
        <ele>987.76</ele>
        <time>2024-09-30T07:34:32.000Z</time>
      </trkpt>
      <trkpt lat="42.40994" lon="0.71792">
        <ele>989.07</ele>
        <time>2024-09-30T07:34:41.000Z</time>
      </trkpt>
      <trkpt lat="42.40998" lon="0.71804">
        <ele>990.32</ele>
        <time>2024-09-30T07:34:50.000Z</time>
      </trkpt>
      <trkpt lat="42.41003" lon="0.71815">
        <ele>991.57</ele>
        <time>2024-09-30T07:34:59.000Z</time>
      </trkpt>
      <trkpt lat="42.41007" lon="0.71826">
        <ele>992.67</ele>
        <time>2024-09-30T07:35:07.000Z</time>
      </trkpt>
      <trkpt lat="42.4101" lon="0.71838">
        <ele>993.78</ele>
        <time>2024-09-30T07:35:15.000Z</time>
      </trkpt>
      <trkpt lat="42.41014" lon="0.71851">
        <ele>994.87</ele>
        <time>2024-09-30T07:35:23.000Z</time>
      </trkpt>
      <trkpt lat="42.41018" lon="0.71863">
        <ele>995.95</ele>
        <time>2024-09-30T07:35:31.000Z</time>
      </trkpt>
      <trkpt lat="42.41023" lon="0.71874">
        <ele>996.89</ele>
        <time>2024-09-30T07:35:38.000Z</time>
      </trkpt>
      <trkpt lat="42.41028" lon="0.71884">
        <ele>997.81</ele>
        <time>2024-09-30T07:35:46.000Z</time>
      </trkpt>
      <trkpt lat="42.41035" lon="0.71894">
        <ele>1000.23</ele>
        <time>2024-09-30T07:36:19.000Z</time>
      </trkpt>
      <trkpt lat="42.41044" lon="0.719">
        <ele>1001.75</ele>
        <time>2024-09-30T07:36:29.000Z</time>
      </trkpt>
      <trkpt lat="42.41053" lon="0.71898">
        <ele>1003</ele>
        <time>2024-09-30T07:36:38.000Z</time>
      </trkpt>
      <trkpt lat="42.4106" lon="0.71889">
        <ele>1004.57</ele>
        <time>2024-09-30T07:36:50.000Z</time>
      </trkpt>
      <trkpt lat="42.41063" lon="0.71876">
        <ele>1005.98</ele>
        <time>2024-09-30T07:37:02.000Z</time>
      </trkpt>
      <trkpt lat="42.41061" lon="0.71864">
        <ele>1007.32</ele>
        <time>2024-09-30T07:37:16.000Z</time>
      </trkpt>
      <trkpt lat="42.41057" lon="0.71851">
        <ele>1008.66</ele>
        <time>2024-09-30T07:37:29.000Z</time>
      </trkpt>
      <trkpt lat="42.41053" lon="0.7184">
        <ele>1009.53</ele>
        <time>2024-09-30T07:37:37.000Z</time>
      </trkpt>
      <trkpt lat="42.41051" lon="0.71828">
        <ele>1010.36</ele>
        <time>2024-09-30T07:37:45.000Z</time>
      </trkpt>
      <trkpt lat="42.41048" lon="0.71817">
        <ele>1012.09</ele>
        <time>2024-09-30T07:38:40.000Z</time>
      </trkpt>
      <trkpt lat="42.41048" lon="0.71805">
        <ele>1014.83</ele>
        <time>2024-09-30T07:39:27.000Z</time>
      </trkpt>
      <trkpt lat="42.41046" lon="0.71793">
        <ele>1016.01</ele>
        <time>2024-09-30T07:39:36.000Z</time>
      </trkpt>
      <trkpt lat="42.41046" lon="0.7178">
        <ele>1017.05</ele>
        <time>2024-09-30T07:39:45.000Z</time>
      </trkpt>
      <trkpt lat="42.41055" lon="0.71777">
        <ele>1018.09</ele>
        <time>2024-09-30T07:39:55.000Z</time>
      </trkpt>
      <trkpt lat="42.41061" lon="0.71788">
        <ele>1018.84</ele>
        <time>2024-09-30T07:40:03.000Z</time>
      </trkpt>
      <trkpt lat="42.41066" lon="0.718">
        <ele>1019.69</ele>
        <time>2024-09-30T07:40:20.000Z</time>
      </trkpt>
      <trkpt lat="42.4107" lon="0.71811">
        <ele>1020.16</ele>
        <time>2024-09-30T07:40:26.000Z</time>
      </trkpt>
      <trkpt lat="42.41076" lon="0.71823">
        <ele>1020.68</ele>
        <time>2024-09-30T07:40:33.000Z</time>
      </trkpt>
      <trkpt lat="42.41082" lon="0.71833">
        <ele>1021.09</ele>
        <time>2024-09-30T07:40:39.000Z</time>
      </trkpt>
      <trkpt lat="42.41091" lon="0.71838">
        <ele>1021.48</ele>
        <time>2024-09-30T07:40:45.000Z</time>
      </trkpt>
      <trkpt lat="42.41095" lon="0.71827">
        <ele>1021.92</ele>
        <time>2024-09-30T07:40:52.000Z</time>
      </trkpt>
      <trkpt lat="42.4109" lon="0.71816">
        <ele>1022.33</ele>
        <time>2024-09-30T07:40:59.000Z</time>
      </trkpt>
      <trkpt lat="42.41086" lon="0.71804">
        <ele>1022.73</ele>
        <time>2024-09-30T07:41:06.000Z</time>
      </trkpt>
      <trkpt lat="42.41082" lon="0.71792">
        <ele>1023.11</ele>
        <time>2024-09-30T07:41:13.000Z</time>
      </trkpt>
      <trkpt lat="42.41079" lon="0.7178">
        <ele>1023.49</ele>
        <time>2024-09-30T07:41:20.000Z</time>
      </trkpt>
      <trkpt lat="42.41078" lon="0.71767">
        <ele>1023.88</ele>
        <time>2024-09-30T07:41:27.000Z</time>
      </trkpt>
      <trkpt lat="42.41075" lon="0.71755">
        <ele>1024.32</ele>
        <time>2024-09-30T07:41:35.000Z</time>
      </trkpt>
      <trkpt lat="42.41073" lon="0.71742">
        <ele>1024.65</ele>
        <time>2024-09-30T07:41:41.000Z</time>
      </trkpt>
      <trkpt lat="42.41071" lon="0.71729">
        <ele>1025.06</ele>
        <time>2024-09-30T07:41:49.000Z</time>
      </trkpt>
      <trkpt lat="42.41071" lon="0.71716">
        <ele>1025.46</ele>
        <time>2024-09-30T07:41:57.000Z</time>
      </trkpt>
      <trkpt lat="42.4107" lon="0.71702">
        <ele>1025.84</ele>
        <time>2024-09-30T07:42:05.000Z</time>
      </trkpt>
      <trkpt lat="42.41068" lon="0.7169">
        <ele>1026.21</ele>
        <time>2024-09-30T07:42:13.000Z</time>
      </trkpt>
      <trkpt lat="42.41066" lon="0.71677">
        <ele>1026.56</ele>
        <time>2024-09-30T07:42:20.000Z</time>
      </trkpt>
      <trkpt lat="42.41063" lon="0.71664">
        <ele>1026.96</ele>
        <time>2024-09-30T07:42:28.000Z</time>
      </trkpt>
      <trkpt lat="42.4106" lon="0.71652">
        <ele>1027.34</ele>
        <time>2024-09-30T07:42:35.000Z</time>
      </trkpt>
      <trkpt lat="42.41061" lon="0.7164">
        <ele>1028.86</ele>
        <time>2024-09-30T07:43:42.999Z</time>
      </trkpt>
      <trkpt lat="42.4107" lon="0.71643">
        <ele>1030.23</ele>
        <time>2024-09-30T07:44:23.999Z</time>
      </trkpt>
      <trkpt lat="42.41076" lon="0.71654">
        <ele>1030.9</ele>
        <time>2024-09-30T07:44:30.999Z</time>
      </trkpt>
      <trkpt lat="42.41079" lon="0.71667">
        <ele>1031.53</ele>
        <time>2024-09-30T07:44:37.999Z</time>
      </trkpt>
      <trkpt lat="42.41083" lon="0.71679">
        <ele>1032.04</ele>
        <time>2024-09-30T07:44:43.999Z</time>
      </trkpt>
      <trkpt lat="42.41087" lon="0.7169">
        <ele>1032.61</ele>
        <time>2024-09-30T07:44:50.999Z</time>
      </trkpt>
      <trkpt lat="42.41092" lon="0.71701">
        <ele>1033.29</ele>
        <time>2024-09-30T07:44:59.999Z</time>
      </trkpt>
      <trkpt lat="42.41097" lon="0.71713">
        <ele>1033.72</ele>
        <time>2024-09-30T07:45:05.999Z</time>
      </trkpt>
      <trkpt lat="42.41103" lon="0.71722">
        <ele>1034.21</ele>
        <time>2024-09-30T07:45:12.999Z</time>
      </trkpt>
      <trkpt lat="42.41109" lon="0.71732">
        <ele>1034.67</ele>
        <time>2024-09-30T07:45:19.999Z</time>
      </trkpt>
      <trkpt lat="42.41116" lon="0.71743">
        <ele>1035.13</ele>
        <time>2024-09-30T07:45:26.999Z</time>
      </trkpt>
      <trkpt lat="42.41124" lon="0.71749">
        <ele>1035.83</ele>
        <time>2024-09-30T07:45:45.999Z</time>
      </trkpt>
      <trkpt lat="42.41133" lon="0.71751">
        <ele>1036.51</ele>
        <time>2024-09-30T07:45:54.999Z</time>
      </trkpt>
      <trkpt lat="42.41136" lon="0.71739">
        <ele>1037.47</ele>
        <time>2024-09-30T07:46:07.999Z</time>
      </trkpt>
      <trkpt lat="42.41132" lon="0.71727">
        <ele>1037.99</ele>
        <time>2024-09-30T07:46:14.999Z</time>
      </trkpt>
      <trkpt lat="42.41128" lon="0.71716">
        <ele>1039.31</ele>
        <time>2024-09-30T07:46:35.999Z</time>
      </trkpt>
      <trkpt lat="42.41124" lon="0.71703">
        <ele>1039.92</ele>
        <time>2024-09-30T07:46:44.999Z</time>
      </trkpt>
      <trkpt lat="42.4112" lon="0.71691">
        <ele>1040.6</ele>
        <time>2024-09-30T07:46:54.999Z</time>
      </trkpt>
      <trkpt lat="42.41117" lon="0.71679">
        <ele>1041.22</ele>
        <time>2024-09-30T07:47:03.999Z</time>
      </trkpt>
      <trkpt lat="42.41116" lon="0.71667">
        <ele>1041.86</ele>
        <time>2024-09-30T07:47:12.999Z</time>
      </trkpt>
      <trkpt lat="42.41114" lon="0.71654">
        <ele>1042.59</ele>
        <time>2024-09-30T07:47:22.999Z</time>
      </trkpt>
      <trkpt lat="42.41114" lon="0.7164">
        <ele>1043.35</ele>
        <time>2024-09-30T07:47:32.999Z</time>
      </trkpt>
      <trkpt lat="42.41114" lon="0.71627">
        <ele>1044.06</ele>
        <time>2024-09-30T07:47:41.999Z</time>
      </trkpt>
      <trkpt lat="42.41116" lon="0.71615">
        <ele>1044.69</ele>
        <time>2024-09-30T07:47:49.999Z</time>
      </trkpt>
      <trkpt lat="42.41121" lon="0.71602">
        <ele>1045.64</ele>
        <time>2024-09-30T07:48:02.999Z</time>
      </trkpt>
      <trkpt lat="42.41124" lon="0.71589">
        <ele>1046.3</ele>
        <time>2024-09-30T07:48:11.999Z</time>
      </trkpt>
      <trkpt lat="42.41126" lon="0.71576">
        <ele>1047.39</ele>
        <time>2024-09-30T07:48:24.999Z</time>
      </trkpt>
      <trkpt lat="42.41125" lon="0.71564">
        <ele>1048.18</ele>
        <time>2024-09-30T07:48:32.999Z</time>
      </trkpt>
      <trkpt lat="42.41126" lon="0.71551">
        <ele>1049.31</ele>
        <time>2024-09-30T07:48:42.999Z</time>
      </trkpt>
      <trkpt lat="42.41125" lon="0.71539">
        <ele>1050.54</ele>
        <time>2024-09-30T07:48:52.999Z</time>
      </trkpt>
      <trkpt lat="42.41124" lon="0.71527">
        <ele>1051.94</ele>
        <time>2024-09-30T07:49:03.999Z</time>
      </trkpt>
      <trkpt lat="42.41124" lon="0.71514">
        <ele>1052.99</ele>
        <time>2024-09-30T07:49:12.999Z</time>
      </trkpt>
      <trkpt lat="42.41127" lon="0.71502">
        <ele>1053.86</ele>
        <time>2024-09-30T07:49:20.999Z</time>
      </trkpt>
      <trkpt lat="42.4113" lon="0.7149">
        <ele>1055.06</ele>
        <time>2024-09-30T07:49:31.999Z</time>
      </trkpt>
      <trkpt lat="42.4113" lon="0.71478">
        <ele>1056.06</ele>
        <time>2024-09-30T07:49:40.999Z</time>
      </trkpt>
      <trkpt lat="42.41126" lon="0.71464">
        <ele>1057.38</ele>
        <time>2024-09-30T07:49:52.999Z</time>
      </trkpt>
      <trkpt lat="42.41118" lon="0.71456">
        <ele>1058.56</ele>
        <time>2024-09-30T07:50:03.999Z</time>
      </trkpt>
      <trkpt lat="42.41111" lon="0.71446">
        <ele>1059.43</ele>
        <time>2024-09-30T07:50:11.999Z</time>
      </trkpt>
      <trkpt lat="42.41106" lon="0.71436">
        <ele>1060.52</ele>
        <time>2024-09-30T07:50:24.999Z</time>
      </trkpt>
      <trkpt lat="42.41103" lon="0.71424">
        <ele>1061.5</ele>
        <time>2024-09-30T07:50:32.999Z</time>
      </trkpt>
      <trkpt lat="42.41101" lon="0.71411">
        <ele>1062.39</ele>
        <time>2024-09-30T07:50:39.999Z</time>
      </trkpt>
      <trkpt lat="42.41099" lon="0.71396">
        <ele>1063.18</ele>
        <time>2024-09-30T07:50:45.999Z</time>
      </trkpt>
      <trkpt lat="42.41098" lon="0.71384">
        <ele>1072.41</ele>
        <time>2024-09-30T07:53:12.999Z</time>
      </trkpt>
      <trkpt lat="42.41096" lon="0.7137">
        <ele>1088.85</ele>
        <time>2024-09-30T08:00:11.000Z</time>
      </trkpt>
      <trkpt lat="42.41098" lon="0.71355">
        <ele>1089.27</ele>
        <time>2024-09-30T08:00:16.000Z</time>
      </trkpt>
      <trkpt lat="42.41101" lon="0.71331">
        <ele>1091.07</ele>
        <time>2024-09-30T08:00:21.000Z</time>
      </trkpt>
      <trkpt lat="42.41106" lon="0.713">
        <ele>1092.4</ele>
        <time>2024-09-30T08:00:26.000Z</time>
      </trkpt>
      <trkpt lat="42.4111" lon="0.71265">
        <ele>1092.77</ele>
        <time>2024-09-30T08:00:31.000Z</time>
      </trkpt>
      <trkpt lat="42.41113" lon="0.71228">
        <ele>1092.84</ele>
        <time>2024-09-30T08:00:36.000Z</time>
      </trkpt>
      <trkpt lat="42.41116" lon="0.71185">
        <ele>1092.76</ele>
        <time>2024-09-30T08:00:41.000Z</time>
      </trkpt>
      <trkpt lat="42.4112" lon="0.71138">
        <ele>1092.43</ele>
        <time>2024-09-30T08:00:46.000Z</time>
      </trkpt>
      <trkpt lat="42.41129" lon="0.71096">
        <ele>1091.77</ele>
        <time>2024-09-30T08:00:51.000Z</time>
      </trkpt>
      <trkpt lat="42.41111" lon="0.71064">
        <ele>1091.13</ele>
        <time>2024-09-30T08:00:56.000Z</time>
      </trkpt>
      <trkpt lat="42.41097" lon="0.71023">
        <ele>1090.42</ele>
        <time>2024-09-30T08:01:01.000Z</time>
      </trkpt>
      <trkpt lat="42.41111" lon="0.70979">
        <ele>1089</ele>
        <time>2024-09-30T08:01:06.000Z</time>
      </trkpt>
      <trkpt lat="42.41124" lon="0.70932">
        <ele>1086.86</ele>
        <time>2024-09-30T08:01:11.000Z</time>
      </trkpt>
      <trkpt lat="42.41127" lon="0.70887">
        <ele>1084.93</ele>
        <time>2024-09-30T08:01:16.000Z</time>
      </trkpt>
      <trkpt lat="42.41114" lon="0.70864">
        <ele>1083.51</ele>
        <time>2024-09-30T08:01:21.000Z</time>
      </trkpt>
      <trkpt lat="42.41094" lon="0.70866">
        <ele>1082.98</ele>
        <time>2024-09-30T08:01:26.000Z</time>
      </trkpt>
      <trkpt lat="42.4108" lon="0.70851">
        <ele>1082.82</ele>
        <time>2024-09-30T08:01:31.000Z</time>
      </trkpt>
      <trkpt lat="42.41084" lon="0.70822">
        <ele>1080.39</ele>
        <time>2024-09-30T08:01:36.000Z</time>
      </trkpt>
      <trkpt lat="42.41092" lon="0.70787">
        <ele>1078.8</ele>
        <time>2024-09-30T08:01:41.000Z</time>
      </trkpt>
      <trkpt lat="42.41089" lon="0.7076">
        <ele>1077.74</ele>
        <time>2024-09-30T08:01:46.000Z</time>
      </trkpt>
      <trkpt lat="42.41073" lon="0.7075">
        <ele>1077.15</ele>
        <time>2024-09-30T08:01:51.000Z</time>
      </trkpt>
      <trkpt lat="42.41081" lon="0.70756">
        <ele>1075.98</ele>
        <time>2024-09-30T08:02:51.000Z</time>
      </trkpt>
      <trkpt lat="42.41092" lon="0.70777">
        <ele>1073.85</ele>
        <time>2024-09-30T08:02:56.000Z</time>
      </trkpt>
      <trkpt lat="42.41089" lon="0.708">
        <ele>1073.41</ele>
        <time>2024-09-30T08:03:01.000Z</time>
      </trkpt>
      <trkpt lat="42.41085" lon="0.70814">
        <ele>1073.16</ele>
        <time>2024-09-30T08:03:06.000Z</time>
      </trkpt>
      <trkpt lat="42.41082" lon="0.70825">
        <ele>1072.94</ele>
        <time>2024-09-30T08:03:11.000Z</time>
      </trkpt>
      <trkpt lat="42.41079" lon="0.70838">
        <ele>1072.72</ele>
        <time>2024-09-30T08:03:17.000Z</time>
      </trkpt>
      <trkpt lat="42.41078" lon="0.70851">
        <ele>1072.56</ele>
        <time>2024-09-30T08:03:23.000Z</time>
      </trkpt>
      <trkpt lat="42.41083" lon="0.70861">
        <ele>1072.47</ele>
        <time>2024-09-30T08:03:29.000Z</time>
      </trkpt>
      <trkpt lat="42.41092" lon="0.70864">
        <ele>1072.44</ele>
        <time>2024-09-30T08:03:34.000Z</time>
      </trkpt>
      <trkpt lat="42.41102" lon="0.70863">
        <ele>1072.45</ele>
        <time>2024-09-30T08:03:39.000Z</time>
      </trkpt>
      <trkpt lat="42.4112" lon="0.70869">
        <ele>1072.51</ele>
        <time>2024-09-30T08:03:44.000Z</time>
      </trkpt>
      <trkpt lat="42.41124" lon="0.70896">
        <ele>1072.61</ele>
        <time>2024-09-30T08:03:49.000Z</time>
      </trkpt>
      <trkpt lat="42.41121" lon="0.70918">
        <ele>1072.63</ele>
        <time>2024-09-30T08:03:54.000Z</time>
      </trkpt>
      <trkpt lat="42.41117" lon="0.70936">
        <ele>1072.63</ele>
        <time>2024-09-30T08:03:59.000Z</time>
      </trkpt>
      <trkpt lat="42.41114" lon="0.70949">
        <ele>1072.63</ele>
        <time>2024-09-30T08:04:05.000Z</time>
      </trkpt>
      <trkpt lat="42.4111" lon="0.70961">
        <ele>1072.64</ele>
        <time>2024-09-30T08:04:11.000Z</time>
      </trkpt>
      <trkpt lat="42.41108" lon="0.70975">
        <ele>1072.67</ele>
        <time>2024-09-30T08:04:17.000Z</time>
      </trkpt>
      <trkpt lat="42.41107" lon="0.70988">
        <ele>1072.71</ele>
        <time>2024-09-30T08:04:24.000Z</time>
      </trkpt>
      <trkpt lat="42.41103" lon="0.70999">
        <ele>1072.77</ele>
        <time>2024-09-30T08:04:31.000Z</time>
      </trkpt>
      <trkpt lat="42.411" lon="0.71011">
        <ele>1072.85</ele>
        <time>2024-09-30T08:04:38.000Z</time>
      </trkpt>
      <trkpt lat="42.41098" lon="0.71023">
        <ele>1072.93</ele>
        <time>2024-09-30T08:04:45.000Z</time>
      </trkpt>
      <trkpt lat="42.41096" lon="0.71036">
        <ele>1073.03</ele>
        <time>2024-09-30T08:04:52.000Z</time>
      </trkpt>
      <trkpt lat="42.41098" lon="0.71049">
        <ele>1073.17</ele>
        <time>2024-09-30T08:05:00.000Z</time>
      </trkpt>
      <trkpt lat="42.41106" lon="0.71059">
        <ele>1073.27</ele>
        <time>2024-09-30T08:05:05.000Z</time>
      </trkpt>
      <trkpt lat="42.41113" lon="0.7107">
        <ele>1073.38</ele>
        <time>2024-09-30T08:05:10.000Z</time>
      </trkpt>
      <trkpt lat="42.41121" lon="0.71082">
        <ele>1073.5</ele>
        <time>2024-09-30T08:05:15.000Z</time>
      </trkpt>
      <trkpt lat="42.41128" lon="0.71096">
        <ele>1073.61</ele>
        <time>2024-09-30T08:05:20.000Z</time>
      </trkpt>
      <trkpt lat="42.41129" lon="0.71109">
        <ele>1073.75</ele>
        <time>2024-09-30T08:05:26.000Z</time>
      </trkpt>
      <trkpt lat="42.41124" lon="0.71121">
        <ele>1073.92</ele>
        <time>2024-09-30T08:05:33.000Z</time>
      </trkpt>
      <trkpt lat="42.41121" lon="0.71134">
        <ele>1074.07</ele>
        <time>2024-09-30T08:05:39.000Z</time>
      </trkpt>
      <trkpt lat="42.41118" lon="0.71147">
        <ele>1074.22</ele>
        <time>2024-09-30T08:05:45.000Z</time>
      </trkpt>
      <trkpt lat="42.41115" lon="0.7116">
        <ele>1074.39</ele>
        <time>2024-09-30T08:05:51.000Z</time>
      </trkpt>
      <trkpt lat="42.41114" lon="0.71173">
        <ele>1074.58</ele>
        <time>2024-09-30T08:05:57.000Z</time>
      </trkpt>
      <trkpt lat="42.41114" lon="0.71185">
        <ele>1074.79</ele>
        <time>2024-09-30T08:06:03.000Z</time>
      </trkpt>
      <trkpt lat="42.41114" lon="0.71198">
        <ele>1075.01</ele>
        <time>2024-09-30T08:06:09.000Z</time>
      </trkpt>
      <trkpt lat="42.41112" lon="0.71211">
        <ele>1075.28</ele>
        <time>2024-09-30T08:06:16.000Z</time>
      </trkpt>
      <trkpt lat="42.41111" lon="0.71224">
        <ele>1075.53</ele>
        <time>2024-09-30T08:06:22.000Z</time>
      </trkpt>
      <trkpt lat="42.41112" lon="0.71238">
        <ele>1075.79</ele>
        <time>2024-09-30T08:06:28.000Z</time>
      </trkpt>
      <trkpt lat="42.4111" lon="0.71252">
        <ele>1076.02</ele>
        <time>2024-09-30T08:06:33.000Z</time>
      </trkpt>
      <trkpt lat="42.41108" lon="0.71266">
        <ele>1076.25</ele>
        <time>2024-09-30T08:06:38.000Z</time>
      </trkpt>
      <trkpt lat="42.41107" lon="0.7128">
        <ele>1076.49</ele>
        <time>2024-09-30T08:06:43.000Z</time>
      </trkpt>
      <trkpt lat="42.41106" lon="0.71293">
        <ele>1076.74</ele>
        <time>2024-09-30T08:06:48.000Z</time>
      </trkpt>
      <trkpt lat="42.41107" lon="0.71308">
        <ele>1076.99</ele>
        <time>2024-09-30T08:06:53.000Z</time>
      </trkpt>
      <trkpt lat="42.41111" lon="0.71322">
        <ele>1077.25</ele>
        <time>2024-09-30T08:06:58.000Z</time>
      </trkpt>
      <trkpt lat="42.41113" lon="0.71335">
        <ele>1077.62</ele>
        <time>2024-09-30T08:07:05.000Z</time>
      </trkpt>
      <trkpt lat="42.41112" lon="0.71348">
        <ele>1078</ele>
        <time>2024-09-30T08:07:12.000Z</time>
      </trkpt>
      <trkpt lat="42.41113" lon="0.71361">
        <ele>1078.33</ele>
        <time>2024-09-30T08:07:17.999Z</time>
      </trkpt>
      <trkpt lat="42.41112" lon="0.71374">
        <ele>1078.79</ele>
        <time>2024-09-30T08:07:25.999Z</time>
      </trkpt>
      <trkpt lat="42.41113" lon="0.71387">
        <ele>1079.2</ele>
        <time>2024-09-30T08:07:32.999Z</time>
      </trkpt>
      <trkpt lat="42.41115" lon="0.71398">
        <ele>1079.61</ele>
        <time>2024-09-30T08:07:39.999Z</time>
      </trkpt>
      <trkpt lat="42.41117" lon="0.71412">
        <ele>1080.88</ele>
        <time>2024-09-30T08:08:18.999Z</time>
      </trkpt>
      <trkpt lat="42.41125" lon="0.71418">
        <ele>1082.45</ele>
        <time>2024-09-30T08:08:49.999Z</time>
      </trkpt>
      <trkpt lat="42.41134" lon="0.71415">
        <ele>1083.81</ele>
        <time>2024-09-30T08:09:06.999Z</time>
      </trkpt>
      <trkpt lat="42.41135" lon="0.71401">
        <ele>1084.64</ele>
        <time>2024-09-30T08:09:16.999Z</time>
      </trkpt>
      <trkpt lat="42.41136" lon="0.71389">
        <ele>1085.43</ele>
        <time>2024-09-30T08:09:26.999Z</time>
      </trkpt>
      <trkpt lat="42.41138" lon="0.71376">
        <ele>1086.18</ele>
        <time>2024-09-30T08:09:36.999Z</time>
      </trkpt>
      <trkpt lat="42.41141" lon="0.71364">
        <ele>1087.03</ele>
        <time>2024-09-30T08:09:48.999Z</time>
      </trkpt>
      <trkpt lat="42.41143" lon="0.71351">
        <ele>1088.11</ele>
        <time>2024-09-30T08:10:09.999Z</time>
      </trkpt>
      <trkpt lat="42.41144" lon="0.71339">
        <ele>1091.14</ele>
        <time>2024-09-30T08:11:56.999Z</time>
      </trkpt>
      <trkpt lat="42.41148" lon="0.71327">
        <ele>1092.15</ele>
        <time>2024-09-30T08:12:08.999Z</time>
      </trkpt>
      <trkpt lat="42.41152" lon="0.71311">
        <ele>1092.59</ele>
        <time>2024-09-30T08:12:13.999Z</time>
      </trkpt>
      <trkpt lat="42.41156" lon="0.71296">
        <ele>1092.99</ele>
        <time>2024-09-30T08:12:18.999Z</time>
      </trkpt>
      <trkpt lat="42.41159" lon="0.71281">
        <ele>1093.37</ele>
        <time>2024-09-30T08:12:23.999Z</time>
      </trkpt>
      <trkpt lat="42.41164" lon="0.71265">
        <ele>1093.72</ele>
        <time>2024-09-30T08:12:28.999Z</time>
      </trkpt>
      <trkpt lat="42.41168" lon="0.71252">
        <ele>1094.04</ele>
        <time>2024-09-30T08:12:33.999Z</time>
      </trkpt>
      <trkpt lat="42.41169" lon="0.71232">
        <ele>1094.33</ele>
        <time>2024-09-30T08:12:38.999Z</time>
      </trkpt>
      <trkpt lat="42.41172" lon="0.71212">
        <ele>1094.61</ele>
        <time>2024-09-30T08:12:43.999Z</time>
      </trkpt>
      <trkpt lat="42.41175" lon="0.71194">
        <ele>1094.86</ele>
        <time>2024-09-30T08:12:48.999Z</time>
      </trkpt>
      <trkpt lat="42.4118" lon="0.71179">
        <ele>1095.1</ele>
        <time>2024-09-30T08:12:53.999Z</time>
      </trkpt>
      <trkpt lat="42.41185" lon="0.71166">
        <ele>1095.33</ele>
        <time>2024-09-30T08:12:58.999Z</time>
      </trkpt>
      <trkpt lat="42.4119" lon="0.71154">
        <ele>1095.55</ele>
        <time>2024-09-30T08:13:03.999Z</time>
      </trkpt>
      <trkpt lat="42.41194" lon="0.71142">
        <ele>1095.75</ele>
        <time>2024-09-30T08:13:08.999Z</time>
      </trkpt>
      <trkpt lat="42.41201" lon="0.71127">
        <ele>1095.94</ele>
        <time>2024-09-30T08:13:13.999Z</time>
      </trkpt>
      <trkpt lat="42.41206" lon="0.7111">
        <ele>1096.12</ele>
        <time>2024-09-30T08:13:18.999Z</time>
      </trkpt>
      <trkpt lat="42.41209" lon="0.71094">
        <ele>1096.3</ele>
        <time>2024-09-30T08:13:23.999Z</time>
      </trkpt>
      <trkpt lat="42.41209" lon="0.7108">
        <ele>1096.48</ele>
        <time>2024-09-30T08:13:28.999Z</time>
      </trkpt>
      <trkpt lat="42.41208" lon="0.71066">
        <ele>1096.66</ele>
        <time>2024-09-30T08:13:33.999Z</time>
      </trkpt>
      <trkpt lat="42.41208" lon="0.71052">
        <ele>1096.85</ele>
        <time>2024-09-30T08:13:38.999Z</time>
      </trkpt>
      <trkpt lat="42.41209" lon="0.71038">
        <ele>1097.04</ele>
        <time>2024-09-30T08:13:43.999Z</time>
      </trkpt>
      <trkpt lat="42.41211" lon="0.71022">
        <ele>1097.27</ele>
        <time>2024-09-30T08:13:49.999Z</time>
      </trkpt>
      <trkpt lat="42.41214" lon="0.71008">
        <ele>1097.48</ele>
        <time>2024-09-30T08:13:54.999Z</time>
      </trkpt>
      <trkpt lat="42.41217" lon="0.70994">
        <ele>1097.68</ele>
        <time>2024-09-30T08:13:59.999Z</time>
      </trkpt>
      <trkpt lat="42.41219" lon="0.70981">
        <ele>1097.95</ele>
        <time>2024-09-30T08:14:06.999Z</time>
      </trkpt>
      <trkpt lat="42.41221" lon="0.70964">
        <ele>1098.14</ele>
        <time>2024-09-30T08:14:11.999Z</time>
      </trkpt>
      <trkpt lat="42.41224" lon="0.70948">
        <ele>1098.32</ele>
        <time>2024-09-30T08:14:16.999Z</time>
      </trkpt>
      <trkpt lat="42.41227" lon="0.70932">
        <ele>1098.52</ele>
        <time>2024-09-30T08:14:21.999Z</time>
      </trkpt>
      <trkpt lat="42.41231" lon="0.70919">
        <ele>1098.75</ele>
        <time>2024-09-30T08:14:27.999Z</time>
      </trkpt>
      <trkpt lat="42.41234" lon="0.70908">
        <ele>1098.95</ele>
        <time>2024-09-30T08:14:32.999Z</time>
      </trkpt>
      <trkpt lat="42.4124" lon="0.70897">
        <ele>1099.19</ele>
        <time>2024-09-30T08:14:38.999Z</time>
      </trkpt>
      <trkpt lat="42.41248" lon="0.7089">
        <ele>1099.38</ele>
        <time>2024-09-30T08:14:43.999Z</time>
      </trkpt>
      <trkpt lat="42.41256" lon="0.70884">
        <ele>1099.57</ele>
        <time>2024-09-30T08:14:48.999Z</time>
      </trkpt>
      <trkpt lat="42.41268" lon="0.70881">
        <ele>1099.75</ele>
        <time>2024-09-30T08:14:53.999Z</time>
      </trkpt>
      <trkpt lat="42.41278" lon="0.70878">
        <ele>1099.94</ele>
        <time>2024-09-30T08:14:58.999Z</time>
      </trkpt>
      <trkpt lat="42.41286" lon="0.70874">
        <ele>1100.16</ele>
        <time>2024-09-30T08:15:04.999Z</time>
      </trkpt>
      <trkpt lat="42.41291" lon="0.70862">
        <ele>1100.37</ele>
        <time>2024-09-30T08:15:10.999Z</time>
      </trkpt>
      <trkpt lat="42.41288" lon="0.7085">
        <ele>1100.61</ele>
        <time>2024-09-30T08:15:17.999Z</time>
      </trkpt>
      <trkpt lat="42.41284" lon="0.70838">
        <ele>1100.86</ele>
        <time>2024-09-30T08:15:24.999Z</time>
      </trkpt>
      <trkpt lat="42.41281" lon="0.70826">
        <ele>1101.1</ele>
        <time>2024-09-30T08:15:31.999Z</time>
      </trkpt>
      <trkpt lat="42.41277" lon="0.70813">
        <ele>1101.34</ele>
        <time>2024-09-30T08:15:38.999Z</time>
      </trkpt>
      <trkpt lat="42.41277" lon="0.70801">
        <ele>1101.54</ele>
        <time>2024-09-30T08:15:44.999Z</time>
      </trkpt>
      <trkpt lat="42.41273" lon="0.70789">
        <ele>1102.84</ele>
        <time>2024-09-30T08:17:13.999Z</time>
      </trkpt>
      <trkpt lat="42.41275" lon="0.70775">
        <ele>1103.17</ele>
        <time>2024-09-30T08:17:18.999Z</time>
      </trkpt>
      <trkpt lat="42.41279" lon="0.70761">
        <ele>1103.56</ele>
        <time>2024-09-30T08:17:24.999Z</time>
      </trkpt>
      <trkpt lat="42.41285" lon="0.70753">
        <ele>1104</ele>
        <time>2024-09-30T08:17:31.999Z</time>
      </trkpt>
      <trkpt lat="42.41294" lon="0.70747">
        <ele>1104.78</ele>
        <time>2024-09-30T08:17:59.999Z</time>
      </trkpt>
      <trkpt lat="42.41302" lon="0.7074">
        <ele>1105.57</ele>
        <time>2024-09-30T08:18:13.999Z</time>
      </trkpt>
      <trkpt lat="42.4131" lon="0.70732">
        <ele>1106.15</ele>
        <time>2024-09-30T08:18:25.999Z</time>
      </trkpt>
      <trkpt lat="42.41317" lon="0.70724">
        <ele>1106.51</ele>
        <time>2024-09-30T08:18:33.999Z</time>
      </trkpt>
      <trkpt lat="42.41326" lon="0.70719">
        <ele>1107.19</ele>
        <time>2024-09-30T08:18:48.999Z</time>
      </trkpt>
      <trkpt lat="42.41334" lon="0.70712">
        <ele>1107.65</ele>
        <time>2024-09-30T08:18:59.999Z</time>
      </trkpt>
      <trkpt lat="42.41342" lon="0.70704">
        <ele>1108.11</ele>
        <time>2024-09-30T08:19:17.999Z</time>
      </trkpt>
      <trkpt lat="42.4135" lon="0.70695">
        <ele>1108.51</ele>
        <time>2024-09-30T08:19:29.000Z</time>
      </trkpt>
      <trkpt lat="42.41358" lon="0.70685">
        <ele>1108.72</ele>
        <time>2024-09-30T08:19:34.000Z</time>
      </trkpt>
      <trkpt lat="42.41366" lon="0.70674">
        <ele>1108.94</ele>
        <time>2024-09-30T08:19:39.000Z</time>
      </trkpt>
      <trkpt lat="42.41377" lon="0.70662">
        <ele>1109.16</ele>
        <time>2024-09-30T08:19:44.000Z</time>
      </trkpt>
      <trkpt lat="42.41391" lon="0.70648">
        <ele>1109.39</ele>
        <time>2024-09-30T08:19:49.000Z</time>
      </trkpt>
      <trkpt lat="42.41407" lon="0.7064">
        <ele>1109.59</ele>
        <time>2024-09-30T08:19:54.000Z</time>
      </trkpt>
      <trkpt lat="42.41419" lon="0.70634">
        <ele>1109.79</ele>
        <time>2024-09-30T08:19:59.000Z</time>
      </trkpt>
      <trkpt lat="42.41421" lon="0.70621">
        <ele>1109.98</ele>
        <time>2024-09-30T08:20:04.000Z</time>
      </trkpt>
      <trkpt lat="42.41418" lon="0.70608">
        <ele>1110.17</ele>
        <time>2024-09-30T08:20:09.000Z</time>
      </trkpt>
      <trkpt lat="42.41414" lon="0.70597">
        <ele>1110.44</ele>
        <time>2024-09-30T08:20:15.000Z</time>
      </trkpt>
      <trkpt lat="42.41404" lon="0.70591">
        <ele>1110.86</ele>
        <time>2024-09-30T08:20:23.000Z</time>
      </trkpt>
      <trkpt lat="42.41394" lon="0.70587">
        <ele>1111.19</ele>
        <time>2024-09-30T08:20:29.000Z</time>
      </trkpt>
      <trkpt lat="42.41381" lon="0.70583">
        <ele>1111.47</ele>
        <time>2024-09-30T08:20:34.000Z</time>
      </trkpt>
      <trkpt lat="42.4137" lon="0.70574">
        <ele>1111.74</ele>
        <time>2024-09-30T08:20:39.000Z</time>
      </trkpt>
      <trkpt lat="42.41363" lon="0.70554">
        <ele>1112.03</ele>
        <time>2024-09-30T08:20:44.000Z</time>
      </trkpt>
      <trkpt lat="42.4136" lon="0.70535">
        <ele>1112.31</ele>
        <time>2024-09-30T08:20:49.000Z</time>
      </trkpt>
      <trkpt lat="42.4136" lon="0.70519">
        <ele>1112.6</ele>
        <time>2024-09-30T08:20:54.000Z</time>
      </trkpt>
      <trkpt lat="42.41359" lon="0.70503">
        <ele>1112.89</ele>
        <time>2024-09-30T08:20:59.000Z</time>
      </trkpt>
      <trkpt lat="42.41356" lon="0.70489">
        <ele>1113.2</ele>
        <time>2024-09-30T08:21:04.000Z</time>
      </trkpt>
      <trkpt lat="42.41356" lon="0.70473">
        <ele>1113.53</ele>
        <time>2024-09-30T08:21:09.000Z</time>
      </trkpt>
      <trkpt lat="42.4136" lon="0.70456">
        <ele>1113.88</ele>
        <time>2024-09-30T08:21:14.000Z</time>
      </trkpt>
      <trkpt lat="42.41359" lon="0.70439">
        <ele>1114.24</ele>
        <time>2024-09-30T08:21:19.000Z</time>
      </trkpt>
      <trkpt lat="42.41356" lon="0.70425">
        <ele>1114.6</ele>
        <time>2024-09-30T08:21:24.000Z</time>
      </trkpt>
      <trkpt lat="42.41359" lon="0.70413">
        <ele>1115.05</ele>
        <time>2024-09-30T08:21:30.000Z</time>
      </trkpt>
      <trkpt lat="42.41368" lon="0.7041">
        <ele>1116.62</ele>
        <time>2024-09-30T08:21:59.000Z</time>
      </trkpt>
      <trkpt lat="42.41378" lon="0.70411">
        <ele>1117.98</ele>
        <time>2024-09-30T08:22:13.000Z</time>
      </trkpt>
      <trkpt lat="42.41387" lon="0.70411">
        <ele>1119.16</ele>
        <time>2024-09-30T08:22:26.000Z</time>
      </trkpt>
      <trkpt lat="42.41396" lon="0.70412">
        <ele>1120.28</ele>
        <time>2024-09-30T08:22:39.000Z</time>
      </trkpt>
      <trkpt lat="42.41404" lon="0.70417">
        <ele>1121.51</ele>
        <time>2024-09-30T08:22:54.000Z</time>
      </trkpt>
      <trkpt lat="42.41413" lon="0.70423">
        <ele>1122.9</ele>
        <time>2024-09-30T08:23:12.000Z</time>
      </trkpt>
      <trkpt lat="42.41421" lon="0.70431">
        <ele>1123.86</ele>
        <time>2024-09-30T08:23:25.000Z</time>
      </trkpt>
      <trkpt lat="42.41426" lon="0.70442">
        <ele>1124.6</ele>
        <time>2024-09-30T08:23:35.000Z</time>
      </trkpt>
      <trkpt lat="42.41433" lon="0.7045">
        <ele>1125.54</ele>
        <time>2024-09-30T08:23:49.000Z</time>
      </trkpt>
      <trkpt lat="42.41434" lon="0.70463">
        <ele>1126.38</ele>
        <time>2024-09-30T08:24:02.000Z</time>
      </trkpt>
      <trkpt lat="42.41433" lon="0.70476">
        <ele>1127.08</ele>
        <time>2024-09-30T08:24:13.000Z</time>
      </trkpt>
      <trkpt lat="42.41434" lon="0.70489">
        <ele>1127.69</ele>
        <time>2024-09-30T08:24:23.000Z</time>
      </trkpt>
      <trkpt lat="42.41434" lon="0.70501">
        <ele>1128.08</ele>
        <time>2024-09-30T08:24:30.000Z</time>
      </trkpt>
      <trkpt lat="42.4144" lon="0.7051">
        <ele>1128.86</ele>
        <time>2024-09-30T08:24:44.000Z</time>
      </trkpt>
      <trkpt lat="42.41442" lon="0.70498">
        <ele>1129.48</ele>
        <time>2024-09-30T08:24:55.000Z</time>
      </trkpt>
      <trkpt lat="42.41446" lon="0.70487">
        <ele>1130.38</ele>
        <time>2024-09-30T08:25:11.000Z</time>
      </trkpt>
      <trkpt lat="42.41454" lon="0.70481">
        <ele>1130.83</ele>
        <time>2024-09-30T08:25:19.000Z</time>
      </trkpt>
      <trkpt lat="42.41461" lon="0.70472">
        <ele>1131.46</ele>
        <time>2024-09-30T08:25:29.000Z</time>
      </trkpt>
      <trkpt lat="42.41466" lon="0.70462">
        <ele>1132.45</ele>
        <time>2024-09-30T08:25:45.000Z</time>
      </trkpt>
      <trkpt lat="42.41473" lon="0.70454">
        <ele>1133.04</ele>
        <time>2024-09-30T08:25:56.000Z</time>
      </trkpt>
      <trkpt lat="42.4148" lon="0.70446">
        <ele>1133.39</ele>
        <time>2024-09-30T08:26:03.000Z</time>
      </trkpt>
      <trkpt lat="42.41487" lon="0.70436">
        <ele>1133.91</ele>
        <time>2024-09-30T08:26:13.000Z</time>
      </trkpt>
      <trkpt lat="42.41494" lon="0.70427">
        <ele>1134.51</ele>
        <time>2024-09-30T08:26:24.000Z</time>
      </trkpt>
      <trkpt lat="42.415" lon="0.70418">
        <ele>1134.96</ele>
        <time>2024-09-30T08:26:32.000Z</time>
      </trkpt>
      <trkpt lat="42.41506" lon="0.70407">
        <ele>1135.59</ele>
        <time>2024-09-30T08:26:43.000Z</time>
      </trkpt>
      <trkpt lat="42.41507" lon="0.70394">
        <ele>1136.46</ele>
        <time>2024-09-30T08:26:58.000Z</time>
      </trkpt>
      <trkpt lat="42.41512" lon="0.70383">
        <ele>1137.19</ele>
        <time>2024-09-30T08:27:12.000Z</time>
      </trkpt>
      <trkpt lat="42.41518" lon="0.70373">
        <ele>1137.74</ele>
        <time>2024-09-30T08:27:28.000Z</time>
      </trkpt>
      <trkpt lat="42.41524" lon="0.70363">
        <ele>1138.1</ele>
        <time>2024-09-30T08:27:36.000Z</time>
      </trkpt>
      <trkpt lat="42.41527" lon="0.70351">
        <ele>1139</ele>
        <time>2024-09-30T08:27:53.000Z</time>
      </trkpt>
      <trkpt lat="42.41526" lon="0.70337">
        <ele>1139.58</ele>
        <time>2024-09-30T08:28:04.000Z</time>
      </trkpt>
      <trkpt lat="42.41526" lon="0.70324">
        <ele>1140.06</ele>
        <time>2024-09-30T08:28:12.000Z</time>
      </trkpt>
      <trkpt lat="42.41525" lon="0.70311">
        <ele>1141.78</ele>
        <time>2024-09-30T08:29:14.000Z</time>
      </trkpt>
      <trkpt lat="42.41528" lon="0.703">
        <ele>1145.97</ele>
        <time>2024-09-30T08:31:39.999Z</time>
      </trkpt>
      <trkpt lat="42.41531" lon="0.70287">
        <ele>1147.36</ele>
        <time>2024-09-30T08:31:49.999Z</time>
      </trkpt>
      <trkpt lat="42.41533" lon="0.70274">
        <ele>1148.4</ele>
        <time>2024-09-30T08:31:54.999Z</time>
      </trkpt>
      <trkpt lat="42.41534" lon="0.70261">
        <ele>1149.36</ele>
        <time>2024-09-30T08:31:59.999Z</time>
      </trkpt>
      <trkpt lat="42.41537" lon="0.70246">
        <ele>1150.25</ele>
        <time>2024-09-30T08:32:04.999Z</time>
      </trkpt>
      <trkpt lat="42.41543" lon="0.70229">
        <ele>1151.07</ele>
        <time>2024-09-30T08:32:09.999Z</time>
      </trkpt>
      <trkpt lat="42.41549" lon="0.70208">
        <ele>1151.82</ele>
        <time>2024-09-30T08:32:14.999Z</time>
      </trkpt>
      <trkpt lat="42.41552" lon="0.70191">
        <ele>1152.51</ele>
        <time>2024-09-30T08:32:19.999Z</time>
      </trkpt>
      <trkpt lat="42.41556" lon="0.70178">
        <ele>1153.16</ele>
        <time>2024-09-30T08:32:24.999Z</time>
      </trkpt>
      <trkpt lat="42.41559" lon="0.70167">
        <ele>1153.76</ele>
        <time>2024-09-30T08:32:29.999Z</time>
      </trkpt>
      <trkpt lat="42.41563" lon="0.70154">
        <ele>1154.32</ele>
        <time>2024-09-30T08:32:34.999Z</time>
      </trkpt>
      <trkpt lat="42.41567" lon="0.70142">
        <ele>1154.84</ele>
        <time>2024-09-30T08:32:39.999Z</time>
      </trkpt>
      <trkpt lat="42.41571" lon="0.70126">
        <ele>1155.32</ele>
        <time>2024-09-30T08:32:44.999Z</time>
      </trkpt>
      <trkpt lat="42.41576" lon="0.70108">
        <ele>1155.76</ele>
        <time>2024-09-30T08:32:49.999Z</time>
      </trkpt>
      <trkpt lat="42.41579" lon="0.70093">
        <ele>1156.19</ele>
        <time>2024-09-30T08:32:54.999Z</time>
      </trkpt>
      <trkpt lat="42.4158" lon="0.70079">
        <ele>1157.42</ele>
        <time>2024-09-30T08:33:14.999Z</time>
      </trkpt>
      <trkpt lat="42.41585" lon="0.70068">
        <ele>1158.27</ele>
        <time>2024-09-30T08:33:28.999Z</time>
      </trkpt>
      <trkpt lat="42.41592" lon="0.70059">
        <ele>1158.77</ele>
        <time>2024-09-30T08:33:38.999Z</time>
      </trkpt>
      <trkpt lat="42.41596" lon="0.70047">
        <ele>1159.18</ele>
        <time>2024-09-30T08:33:47.999Z</time>
      </trkpt>
      <trkpt lat="42.41602" lon="0.70037">
        <ele>1159.54</ele>
        <time>2024-09-30T08:33:56.999Z</time>
      </trkpt>
      <trkpt lat="42.41609" lon="0.70028">
        <ele>1159.87</ele>
        <time>2024-09-30T08:34:05.999Z</time>
      </trkpt>
      <trkpt lat="42.41615" lon="0.70018">
        <ele>1160.15</ele>
        <time>2024-09-30T08:34:13.999Z</time>
      </trkpt>
      <trkpt lat="42.4162" lon="0.70008">
        <ele>1160.49</ele>
        <time>2024-09-30T08:34:23.999Z</time>
      </trkpt>
      <trkpt lat="42.41624" lon="0.69996">
        <ele>1160.83</ele>
        <time>2024-09-30T08:34:34.999Z</time>
      </trkpt>
      <trkpt lat="42.41627" lon="0.69984">
        <ele>1161.16</ele>
        <time>2024-09-30T08:34:45.999Z</time>
      </trkpt>
      <trkpt lat="42.41634" lon="0.69975">
        <ele>1161.45</ele>
        <time>2024-09-30T08:34:55.999Z</time>
      </trkpt>
      <trkpt lat="42.41642" lon="0.69968">
        <ele>1161.75</ele>
        <time>2024-09-30T08:35:05.999Z</time>
      </trkpt>
      <trkpt lat="42.41649" lon="0.69961">
        <ele>1162.02</ele>
        <time>2024-09-30T08:35:14.999Z</time>
      </trkpt>
      <trkpt lat="42.41659" lon="0.69955">
        <ele>1162.31</ele>
        <time>2024-09-30T08:35:23.999Z</time>
      </trkpt>
      <trkpt lat="42.4167" lon="0.69957">
        <ele>1163.4</ele>
        <time>2024-09-30T08:36:35.999Z</time>
      </trkpt>
      <trkpt lat="42.41683" lon="0.69958">
        <ele>1163.78</ele>
        <time>2024-09-30T08:36:40.999Z</time>
      </trkpt>
      <trkpt lat="42.41692" lon="0.69949">
        <ele>1164.13</ele>
        <time>2024-09-30T08:36:45.999Z</time>
      </trkpt>
      <trkpt lat="42.41693" lon="0.69935">
        <ele>1164.42</ele>
        <time>2024-09-30T08:36:50.999Z</time>
      </trkpt>
      <trkpt lat="42.41692" lon="0.69918">
        <ele>1164.71</ele>
        <time>2024-09-30T08:36:55.999Z</time>
      </trkpt>
      <trkpt lat="42.4169" lon="0.69904">
        <ele>1165.1</ele>
        <time>2024-09-30T08:37:00.999Z</time>
      </trkpt>
      <trkpt lat="42.41685" lon="0.69893">
        <ele>1165.71</ele>
        <time>2024-09-30T08:37:06.999Z</time>
      </trkpt>
      <trkpt lat="42.41681" lon="0.69883">
        <ele>1166.36</ele>
        <time>2024-09-30T08:37:12.999Z</time>
      </trkpt>
      <trkpt lat="42.41676" lon="0.69871">
        <ele>1167.08</ele>
        <time>2024-09-30T08:37:18.999Z</time>
      </trkpt>
      <trkpt lat="42.41669" lon="0.6986">
        <ele>1167.99</ele>
        <time>2024-09-30T08:37:25.999Z</time>
      </trkpt>
      <trkpt lat="42.41663" lon="0.69851">
        <ele>1168.76</ele>
        <time>2024-09-30T08:37:31.999Z</time>
      </trkpt>
      <trkpt lat="42.41657" lon="0.69841">
        <ele>1169.54</ele>
        <time>2024-09-30T08:37:37.999Z</time>
      </trkpt>
      <trkpt lat="42.41651" lon="0.69831">
        <ele>1170.2</ele>
        <time>2024-09-30T08:37:42.999Z</time>
      </trkpt>
      <trkpt lat="42.41649" lon="0.69818">
        <ele>1170.95</ele>
        <time>2024-09-30T08:37:48.999Z</time>
      </trkpt>
      <trkpt lat="42.41652" lon="0.69807">
        <ele>1171.7</ele>
        <time>2024-09-30T08:37:54.999Z</time>
      </trkpt>
      <trkpt lat="42.41651" lon="0.69793">
        <ele>1172.45</ele>
        <time>2024-09-30T08:38:00.999Z</time>
      </trkpt>
      <trkpt lat="42.4165" lon="0.6978">
        <ele>1173.27</ele>
        <time>2024-09-30T08:38:07.999Z</time>
      </trkpt>
      <trkpt lat="42.41653" lon="0.69767">
        <ele>1174.07</ele>
        <time>2024-09-30T08:38:14.999Z</time>
      </trkpt>
      <trkpt lat="42.41657" lon="0.69755">
        <ele>1174.73</ele>
        <time>2024-09-30T08:38:20.999Z</time>
      </trkpt>
      <trkpt lat="42.41659" lon="0.69743">
        <ele>1175.26</ele>
        <time>2024-09-30T08:38:25.999Z</time>
      </trkpt>
      <trkpt lat="42.41663" lon="0.6973">
        <ele>1175.88</ele>
        <time>2024-09-30T08:38:31.999Z</time>
      </trkpt>
      <trkpt lat="42.41666" lon="0.69718">
        <ele>1176.48</ele>
        <time>2024-09-30T08:38:37.999Z</time>
      </trkpt>
      <trkpt lat="42.41668" lon="0.69705">
        <ele>1177.06</ele>
        <time>2024-09-30T08:38:43.999Z</time>
      </trkpt>
      <trkpt lat="42.4167" lon="0.69692">
        <ele>1177.64</ele>
        <time>2024-09-30T08:38:49.999Z</time>
      </trkpt>
      <trkpt lat="42.41673" lon="0.69679">
        <ele>1178.22</ele>
        <time>2024-09-30T08:38:55.999Z</time>
      </trkpt>
      <trkpt lat="42.41676" lon="0.69667">
        <ele>1178.82</ele>
        <time>2024-09-30T08:39:01.999Z</time>
      </trkpt>
      <trkpt lat="42.41681" lon="0.69655">
        <ele>1179.5</ele>
        <time>2024-09-30T08:39:08.999Z</time>
      </trkpt>
      <trkpt lat="42.41686" lon="0.69642">
        <ele>1180.07</ele>
        <time>2024-09-30T08:39:14.999Z</time>
      </trkpt>
      <trkpt lat="42.4169" lon="0.6963">
        <ele>1180.73</ele>
        <time>2024-09-30T08:39:21.999Z</time>
      </trkpt>
      <trkpt lat="42.41688" lon="0.69618">
        <ele>1181.4</ele>
        <time>2024-09-30T08:39:31.999Z</time>
      </trkpt>
      <trkpt lat="42.41689" lon="0.69605">
        <ele>1182.08</ele>
        <time>2024-09-30T08:39:40.999Z</time>
      </trkpt>
      <trkpt lat="42.41693" lon="0.69594">
        <ele>1182.7</ele>
        <time>2024-09-30T08:39:49.999Z</time>
      </trkpt>
      <trkpt lat="42.41696" lon="0.69581">
        <ele>1183.34</ele>
        <time>2024-09-30T08:39:59.999Z</time>
      </trkpt>
      <trkpt lat="42.41698" lon="0.69569">
        <ele>1183.88</ele>
        <time>2024-09-30T08:40:08.999Z</time>
      </trkpt>
      <trkpt lat="42.41701" lon="0.69557">
        <ele>1184.38</ele>
        <time>2024-09-30T08:40:17.999Z</time>
      </trkpt>
      <trkpt lat="42.41703" lon="0.69544">
        <ele>1184.86</ele>
        <time>2024-09-30T08:40:26.999Z</time>
      </trkpt>
      <trkpt lat="42.41706" lon="0.69532">
        <ele>1185.26</ele>
        <time>2024-09-30T08:40:34.999Z</time>
      </trkpt>
      <trkpt lat="42.41708" lon="0.6952">
        <ele>1185.63</ele>
        <time>2024-09-30T08:40:42.999Z</time>
      </trkpt>
      <trkpt lat="42.41709" lon="0.69507">
        <ele>1186.05</ele>
        <time>2024-09-30T08:40:51.999Z</time>
      </trkpt>
      <trkpt lat="42.41708" lon="0.69494">
        <ele>1186.47</ele>
        <time>2024-09-30T08:41:00.999Z</time>
      </trkpt>
      <trkpt lat="42.41709" lon="0.69481">
        <ele>1186.93</ele>
        <time>2024-09-30T08:41:17.999Z</time>
      </trkpt>
      <trkpt lat="42.41712" lon="0.69468">
        <ele>1187.29</ele>
        <time>2024-09-30T08:41:25.999Z</time>
      </trkpt>
      <trkpt lat="42.41712" lon="0.69456">
        <ele>1187.61</ele>
        <time>2024-09-30T08:42:01.999Z</time>
      </trkpt>
      <trkpt lat="42.41716" lon="0.69445">
        <ele>1188.84</ele>
        <time>2024-09-30T08:43:58.000Z</time>
      </trkpt>
      <trkpt lat="42.41717" lon="0.6943">
        <ele>1189.07</ele>
        <time>2024-09-30T08:44:03.000Z</time>
      </trkpt>
      <trkpt lat="42.41717" lon="0.69415">
        <ele>1189.29</ele>
        <time>2024-09-30T08:44:08.000Z</time>
      </trkpt>
      <trkpt lat="42.41715" lon="0.69401">
        <ele>1189.5</ele>
        <time>2024-09-30T08:44:13.000Z</time>
      </trkpt>
      <trkpt lat="42.41715" lon="0.69386">
        <ele>1189.71</ele>
        <time>2024-09-30T08:44:18.000Z</time>
      </trkpt>
      <trkpt lat="42.41712" lon="0.69374">
        <ele>1189.9</ele>
        <time>2024-09-30T08:44:23.000Z</time>
      </trkpt>
      <trkpt lat="42.4171" lon="0.69361">
        <ele>1190.13</ele>
        <time>2024-09-30T08:44:29.000Z</time>
      </trkpt>
      <trkpt lat="42.41707" lon="0.69347">
        <ele>1190.36</ele>
        <time>2024-09-30T08:44:35.000Z</time>
      </trkpt>
      <trkpt lat="42.41702" lon="0.69335">
        <ele>1190.58</ele>
        <time>2024-09-30T08:44:41.000Z</time>
      </trkpt>
      <trkpt lat="42.41701" lon="0.69321">
        <ele>1190.8</ele>
        <time>2024-09-30T08:44:47.000Z</time>
      </trkpt>
      <trkpt lat="42.417" lon="0.69308">
        <ele>1190.98</ele>
        <time>2024-09-30T08:44:52.000Z</time>
      </trkpt>
      <trkpt lat="42.41697" lon="0.69294">
        <ele>1191.16</ele>
        <time>2024-09-30T08:44:57.000Z</time>
      </trkpt>
      <trkpt lat="42.41694" lon="0.6928">
        <ele>1191.34</ele>
        <time>2024-09-30T08:45:02.000Z</time>
      </trkpt>
      <trkpt lat="42.41693" lon="0.69266">
        <ele>1191.52</ele>
        <time>2024-09-30T08:45:07.000Z</time>
      </trkpt>
      <trkpt lat="42.4169" lon="0.69251">
        <ele>1191.7</ele>
        <time>2024-09-30T08:45:12.000Z</time>
      </trkpt>
      <trkpt lat="42.41687" lon="0.69236">
        <ele>1191.88</ele>
        <time>2024-09-30T08:45:17.000Z</time>
      </trkpt>
      <trkpt lat="42.41685" lon="0.69221">
        <ele>1192.06</ele>
        <time>2024-09-30T08:45:22.000Z</time>
      </trkpt>
      <trkpt lat="42.41682" lon="0.69207">
        <ele>1192.23</ele>
        <time>2024-09-30T08:45:27.000Z</time>
      </trkpt>
      <trkpt lat="42.41682" lon="0.69192">
        <ele>1192.41</ele>
        <time>2024-09-30T08:45:32.000Z</time>
      </trkpt>
      <trkpt lat="42.4168" lon="0.69177">
        <ele>1192.58</ele>
        <time>2024-09-30T08:45:37.000Z</time>
      </trkpt>
      <trkpt lat="42.41678" lon="0.69164">
        <ele>1192.76</ele>
        <time>2024-09-30T08:45:42.000Z</time>
      </trkpt>
      <trkpt lat="42.41675" lon="0.6915">
        <ele>1192.97</ele>
        <time>2024-09-30T08:45:48.000Z</time>
      </trkpt>
      <trkpt lat="42.41672" lon="0.69138">
        <ele>1193.15</ele>
        <time>2024-09-30T08:45:53.000Z</time>
      </trkpt>
      <trkpt lat="42.41669" lon="0.69124">
        <ele>1193.36</ele>
        <time>2024-09-30T08:45:59.000Z</time>
      </trkpt>
      <trkpt lat="42.41669" lon="0.69112">
        <ele>1193.56</ele>
        <time>2024-09-30T08:46:05.000Z</time>
      </trkpt>
      <trkpt lat="42.4167" lon="0.69098">
        <ele>1193.74</ele>
        <time>2024-09-30T08:46:10.000Z</time>
      </trkpt>
      <trkpt lat="42.4167" lon="0.69084">
        <ele>1193.93</ele>
        <time>2024-09-30T08:46:16.000Z</time>
      </trkpt>
      <trkpt lat="42.41673" lon="0.69069">
        <ele>1194.1</ele>
        <time>2024-09-30T08:46:21.000Z</time>
      </trkpt>
      <trkpt lat="42.41673" lon="0.69056">
        <ele>1194.36</ele>
        <time>2024-09-30T08:46:37.000Z</time>
      </trkpt>
      <trkpt lat="42.41676" lon="0.69044">
        <ele>1194.7</ele>
        <time>2024-09-30T08:46:46.000Z</time>
      </trkpt>
      <trkpt lat="42.41679" lon="0.69032">
        <ele>1194.88</ele>
        <time>2024-09-30T08:46:51.000Z</time>
      </trkpt>
      <trkpt lat="42.41683" lon="0.69019">
        <ele>1195.09</ele>
        <time>2024-09-30T08:46:57.000Z</time>
      </trkpt>
      <trkpt lat="42.41686" lon="0.69008">
        <ele>1195.25</ele>
        <time>2024-09-30T08:47:02.000Z</time>
      </trkpt>
      <trkpt lat="42.4169" lon="0.68996">
        <ele>1195.41</ele>
        <time>2024-09-30T08:47:07.000Z</time>
      </trkpt>
      <trkpt lat="42.41694" lon="0.68983">
        <ele>1195.56</ele>
        <time>2024-09-30T08:47:12.000Z</time>
      </trkpt>
      <trkpt lat="42.41698" lon="0.68971">
        <ele>1195.71</ele>
        <time>2024-09-30T08:47:17.000Z</time>
      </trkpt>
      <trkpt lat="42.41701" lon="0.68959">
        <ele>1195.85</ele>
        <time>2024-09-30T08:47:22.000Z</time>
      </trkpt>
      <trkpt lat="42.41704" lon="0.68946">
        <ele>1195.99</ele>
        <time>2024-09-30T08:47:27.000Z</time>
      </trkpt>
      <trkpt lat="42.41707" lon="0.68933">
        <ele>1196.13</ele>
        <time>2024-09-30T08:47:32.000Z</time>
      </trkpt>
      <trkpt lat="42.41711" lon="0.68919">
        <ele>1196.26</ele>
        <time>2024-09-30T08:47:37.000Z</time>
      </trkpt>
      <trkpt lat="42.41715" lon="0.68902">
        <ele>1196.39</ele>
        <time>2024-09-30T08:47:42.000Z</time>
      </trkpt>
      <trkpt lat="42.41719" lon="0.68888">
        <ele>1196.52</ele>
        <time>2024-09-30T08:47:47.000Z</time>
      </trkpt>
      <trkpt lat="42.41723" lon="0.68875">
        <ele>1196.67</ele>
        <time>2024-09-30T08:47:53.000Z</time>
      </trkpt>
      <trkpt lat="42.41721" lon="0.68863">
        <ele>1196.94</ele>
        <time>2024-09-30T08:48:13.000Z</time>
      </trkpt>
      <trkpt lat="42.41725" lon="0.68851">
        <ele>1197.09</ele>
        <time>2024-09-30T08:48:21.000Z</time>
      </trkpt>
      <trkpt lat="42.41729" lon="0.6884">
        <ele>1197.32</ele>
        <time>2024-09-30T08:48:35.000Z</time>
      </trkpt>
      <trkpt lat="42.41733" lon="0.68829">
        <ele>1197.66</ele>
        <time>2024-09-30T08:49:00.000Z</time>
      </trkpt>
      <trkpt lat="42.41736" lon="0.68817">
        <ele>1197.84</ele>
        <time>2024-09-30T08:49:12.000Z</time>
      </trkpt>
      <trkpt lat="42.4174" lon="0.68806">
        <ele>1197.97</ele>
        <time>2024-09-30T08:49:22.000Z</time>
      </trkpt>
      <trkpt lat="42.41746" lon="0.68795">
        <ele>1198.1</ele>
        <time>2024-09-30T08:49:34.000Z</time>
      </trkpt>
      <trkpt lat="42.41749" lon="0.68784">
        <ele>1198.3</ele>
        <time>2024-09-30T08:49:56.000Z</time>
      </trkpt>
      <trkpt lat="42.41754" lon="0.68774">
        <ele>1198.48</ele>
        <time>2024-09-30T08:50:10.000Z</time>
      </trkpt>
      <trkpt lat="42.41757" lon="0.68761">
        <ele>1198.61</ele>
        <time>2024-09-30T08:50:20.000Z</time>
      </trkpt>
      <trkpt lat="42.4176" lon="0.68749">
        <ele>1198.7</ele>
        <time>2024-09-30T08:50:28.000Z</time>
      </trkpt>
      <trkpt lat="42.41763" lon="0.68737">
        <ele>1198.81</ele>
        <time>2024-09-30T08:50:37.000Z</time>
      </trkpt>
      <trkpt lat="42.41765" lon="0.68725">
        <ele>1201.32</ele>
        <time>2024-09-30T08:57:50.999Z</time>
      </trkpt>
      <trkpt lat="42.41768" lon="0.68711">
        <ele>1202.41</ele>
        <time>2024-09-30T09:01:57.999Z</time>
      </trkpt>
      <trkpt lat="42.41773" lon="0.68695">
        <ele>1202.51</ele>
        <time>2024-09-30T09:02:02.999Z</time>
      </trkpt>
      <trkpt lat="42.41778" lon="0.68683">
        <ele>1202.6</ele>
        <time>2024-09-30T09:02:07.999Z</time>
      </trkpt>
      <trkpt lat="42.41784" lon="0.68673">
        <ele>1202.71</ele>
        <time>2024-09-30T09:02:13.999Z</time>
      </trkpt>
      <trkpt lat="42.41788" lon="0.68661">
        <ele>1202.92</ele>
        <time>2024-09-30T09:02:36.999Z</time>
      </trkpt>
      <trkpt lat="42.41795" lon="0.68654">
        <ele>1203.03</ele>
        <time>2024-09-30T09:02:45.999Z</time>
      </trkpt>
      <trkpt lat="42.41803" lon="0.68646">
        <ele>1203.15</ele>
        <time>2024-09-30T09:02:56.999Z</time>
      </trkpt>
      <trkpt lat="42.41809" lon="0.68637">
        <ele>1203.24</ele>
        <time>2024-09-30T09:03:06.999Z</time>
      </trkpt>
      <trkpt lat="42.41816" lon="0.68627">
        <ele>1203.3</ele>
        <time>2024-09-30T09:03:14.999Z</time>
      </trkpt>
      <trkpt lat="42.41824" lon="0.68619">
        <ele>1203.37</ele>
        <time>2024-09-30T09:03:23.999Z</time>
      </trkpt>
      <trkpt lat="42.4183" lon="0.6861">
        <ele>1203.44</ele>
        <time>2024-09-30T09:03:32.999Z</time>
      </trkpt>
      <trkpt lat="42.41836" lon="0.686">
        <ele>1203.51</ele>
        <time>2024-09-30T09:03:41.999Z</time>
      </trkpt>
      <trkpt lat="42.41842" lon="0.6859">
        <ele>1203.61</ele>
        <time>2024-09-30T09:03:52.999Z</time>
      </trkpt>
      <trkpt lat="42.41847" lon="0.68579">
        <ele>1203.68</ele>
        <time>2024-09-30T09:04:00.999Z</time>
      </trkpt>
      <trkpt lat="42.41853" lon="0.68568">
        <ele>1203.79</ele>
        <time>2024-09-30T09:04:24.999Z</time>
      </trkpt>
      <trkpt lat="42.41858" lon="0.68556">
        <ele>1203.83</ele>
        <time>2024-09-30T09:04:30.999Z</time>
      </trkpt>
      <trkpt lat="42.41864" lon="0.68545">
        <ele>1203.85</ele>
        <time>2024-09-30T09:04:35.999Z</time>
      </trkpt>
      <trkpt lat="42.4187" lon="0.68536">
        <ele>1203.94</ele>
        <time>2024-09-30T09:05:07.999Z</time>
      </trkpt>
      <trkpt lat="42.41878" lon="0.68531">
        <ele>1204.17</ele>
        <time>2024-09-30T09:05:52.999Z</time>
      </trkpt>
      <trkpt lat="42.41879" lon="0.68518">
        <ele>1204.59</ele>
        <time>2024-09-30T09:07:32.999Z</time>
      </trkpt>
      <trkpt lat="42.4188" lon="0.68505">
        <ele>1204.77</ele>
        <time>2024-09-30T09:09:18.000Z</time>
      </trkpt>
      <trkpt lat="42.4188" lon="0.68492">
        <ele>1204.83</ele>
        <time>2024-09-30T09:09:23.000Z</time>
      </trkpt>
      <trkpt lat="42.41881" lon="0.6848">
        <ele>1204.91</ele>
        <time>2024-09-30T09:09:29.000Z</time>
      </trkpt>
      <trkpt lat="42.4188" lon="0.68465">
        <ele>1204.98</ele>
        <time>2024-09-30T09:09:35.000Z</time>
      </trkpt>
      <trkpt lat="42.41875" lon="0.68446">
        <ele>1205.03</ele>
        <time>2024-09-30T09:09:40.000Z</time>
      </trkpt>
      <trkpt lat="42.41871" lon="0.6843">
        <ele>1205.04</ele>
        <time>2024-09-30T09:09:45.000Z</time>
      </trkpt>
      <trkpt lat="42.41866" lon="0.68414">
        <ele>1205.01</ele>
        <time>2024-09-30T09:09:50.000Z</time>
      </trkpt>
      <trkpt lat="42.41862" lon="0.68395">
        <ele>1204.96</ele>
        <time>2024-09-30T09:09:55.000Z</time>
      </trkpt>
      <trkpt lat="42.4186" lon="0.68378">
        <ele>1204.9</ele>
        <time>2024-09-30T09:10:00.000Z</time>
      </trkpt>
      <trkpt lat="42.41858" lon="0.68361">
        <ele>1204.85</ele>
        <time>2024-09-30T09:10:05.000Z</time>
      </trkpt>
      <trkpt lat="42.41855" lon="0.68341">
        <ele>1204.8</ele>
        <time>2024-09-30T09:10:10.000Z</time>
      </trkpt>
      <trkpt lat="42.41851" lon="0.68327">
        <ele>1204.76</ele>
        <time>2024-09-30T09:10:15.000Z</time>
      </trkpt>
      <trkpt lat="42.41849" lon="0.68312">
        <ele>1204.72</ele>
        <time>2024-09-30T09:10:20.000Z</time>
      </trkpt>
      <trkpt lat="42.41844" lon="0.68296">
        <ele>1204.69</ele>
        <time>2024-09-30T09:10:25.000Z</time>
      </trkpt>
      <trkpt lat="42.41844" lon="0.68279">
        <ele>1204.66</ele>
        <time>2024-09-30T09:10:30.000Z</time>
      </trkpt>
      <trkpt lat="42.41841" lon="0.68262">
        <ele>1204.62</ele>
        <time>2024-09-30T09:10:35.000Z</time>
      </trkpt>
      <trkpt lat="42.41834" lon="0.6824">
        <ele>1204.58</ele>
        <time>2024-09-30T09:10:40.000Z</time>
      </trkpt>
      <trkpt lat="42.41827" lon="0.68219">
        <ele>1204.55</ele>
        <time>2024-09-30T09:10:45.000Z</time>
      </trkpt>
      <trkpt lat="42.41821" lon="0.68199">
        <ele>1204.51</ele>
        <time>2024-09-30T09:10:50.000Z</time>
      </trkpt>
      <trkpt lat="42.41812" lon="0.68169">
        <ele>1204.45</ele>
        <time>2024-09-30T09:10:55.000Z</time>
      </trkpt>
      <trkpt lat="42.41802" lon="0.68145">
        <ele>1204.38</ele>
        <time>2024-09-30T09:11:00.000Z</time>
      </trkpt>
      <trkpt lat="42.41794" lon="0.68124">
        <ele>1204.31</ele>
        <time>2024-09-30T09:11:05.000Z</time>
      </trkpt>
      <trkpt lat="42.41793" lon="0.68106">
        <ele>1204.25</ele>
        <time>2024-09-30T09:11:10.000Z</time>
      </trkpt>
      <trkpt lat="42.418" lon="0.68096">
        <ele>1204.18</ele>
        <time>2024-09-30T09:11:16.000Z</time>
      </trkpt>
      <trkpt lat="42.41806" lon="0.68085">
        <ele>1204.1</ele>
        <time>2024-09-30T09:11:22.000Z</time>
      </trkpt>
      <trkpt lat="42.41813" lon="0.68074">
        <ele>1203.99</ele>
        <time>2024-09-30T09:11:29.000Z</time>
      </trkpt>
      <trkpt lat="42.41818" lon="0.68065">
        <ele>1203.9</ele>
        <time>2024-09-30T09:11:34.000Z</time>
      </trkpt>
      <trkpt lat="42.41821" lon="0.6805">
        <ele>1203.83</ele>
        <time>2024-09-30T09:11:39.000Z</time>
      </trkpt>
      <trkpt lat="42.41821" lon="0.68034">
        <ele>1203.76</ele>
        <time>2024-09-30T09:11:44.000Z</time>
      </trkpt>
      <trkpt lat="42.41822" lon="0.68018">
        <ele>1203.7</ele>
        <time>2024-09-30T09:11:49.000Z</time>
      </trkpt>
      <trkpt lat="42.41825" lon="0.68004">
        <ele>1203.63</ele>
        <time>2024-09-30T09:11:54.000Z</time>
      </trkpt>
      <trkpt lat="42.41829" lon="0.6799">
        <ele>1203.56</ele>
        <time>2024-09-30T09:12:00.000Z</time>
      </trkpt>
      <trkpt lat="42.41831" lon="0.67974">
        <ele>1203.51</ele>
        <time>2024-09-30T09:12:05.000Z</time>
      </trkpt>
      <trkpt lat="42.41828" lon="0.67954">
        <ele>1203.45</ele>
        <time>2024-09-30T09:12:10.000Z</time>
      </trkpt>
      <trkpt lat="42.41823" lon="0.67935">
        <ele>1203.37</ele>
        <time>2024-09-30T09:12:15.000Z</time>
      </trkpt>
      <trkpt lat="42.41816" lon="0.67918">
        <ele>1203.3</ele>
        <time>2024-09-30T09:12:20.000Z</time>
      </trkpt>
      <trkpt lat="42.41813" lon="0.67904">
        <ele>1203.23</ele>
        <time>2024-09-30T09:12:25.000Z</time>
      </trkpt>
      <trkpt lat="42.41818" lon="0.67893">
        <ele>1203.05</ele>
        <time>2024-09-30T09:12:34.000Z</time>
      </trkpt>
      <trkpt lat="42.41827" lon="0.6789">
        <ele>1202.9</ele>
        <time>2024-09-30T09:12:40.000Z</time>
      </trkpt>
      <trkpt lat="42.41837" lon="0.67888">
        <ele>1202.5</ele>
        <time>2024-09-30T09:13:02.000Z</time>
      </trkpt>
      <trkpt lat="42.41846" lon="0.67888">
        <ele>1202.05</ele>
        <time>2024-09-30T09:13:19.000Z</time>
      </trkpt>
      <trkpt lat="42.41855" lon="0.67889">
        <ele>1201.66</ele>
        <time>2024-09-30T09:13:29.000Z</time>
      </trkpt>
      <trkpt lat="42.41864" lon="0.67891">
        <ele>1199.39</ele>
        <time>2024-09-30T09:15:05.000Z</time>
      </trkpt>
      <trkpt lat="42.41874" lon="0.67892">
        <ele>1198.22</ele>
        <time>2024-09-30T09:15:15.000Z</time>
      </trkpt>
      <trkpt lat="42.41883" lon="0.67895">
        <ele>1197.36</ele>
        <time>2024-09-30T09:15:24.000Z</time>
      </trkpt>
      <trkpt lat="42.41892" lon="0.679">
        <ele>1196.71</ele>
        <time>2024-09-30T09:15:32.000Z</time>
      </trkpt>
      <trkpt lat="42.41902" lon="0.67902">
        <ele>1196.1</ele>
        <time>2024-09-30T09:15:41.000Z</time>
      </trkpt>
      <trkpt lat="42.4191" lon="0.67907">
        <ele>1195.22</ele>
        <time>2024-09-30T09:16:15.000Z</time>
      </trkpt>
      <trkpt lat="42.41919" lon="0.6791">
        <ele>1194.85</ele>
        <time>2024-09-30T09:16:25.000Z</time>
      </trkpt>
      <trkpt lat="42.4193" lon="0.67913">
        <ele>1194.54</ele>
        <time>2024-09-30T09:16:37.000Z</time>
      </trkpt>
      <trkpt lat="42.41938" lon="0.67918">
        <ele>1194.36</ele>
        <time>2024-09-30T09:16:47.000Z</time>
      </trkpt>
      <trkpt lat="42.41947" lon="0.67923">
        <ele>1194.26</ele>
        <time>2024-09-30T09:16:56.000Z</time>
      </trkpt>
      <trkpt lat="42.41956" lon="0.67929">
        <ele>1194.22</ele>
        <time>2024-09-30T09:17:04.000Z</time>
      </trkpt>
      <trkpt lat="42.41964" lon="0.67936">
        <ele>1194.25</ele>
        <time>2024-09-30T09:17:15.000Z</time>
      </trkpt>
      <trkpt lat="42.41973" lon="0.67941">
        <ele>1194.33</ele>
        <time>2024-09-30T09:17:25.000Z</time>
      </trkpt>
      <trkpt lat="42.41982" lon="0.67945">
        <ele>1194.44</ele>
        <time>2024-09-30T09:17:36.000Z</time>
      </trkpt>
      <trkpt lat="42.4199" lon="0.6795">
        <ele>1194.55</ele>
        <time>2024-09-30T09:17:45.000Z</time>
      </trkpt>
      <trkpt lat="42.42" lon="0.67955">
        <ele>1194.65</ele>
        <time>2024-09-30T09:17:53.000Z</time>
      </trkpt>
      <trkpt lat="42.42008" lon="0.67958">
        <ele>1194.78</ele>
        <time>2024-09-30T09:18:03.000Z</time>
      </trkpt>
      <trkpt lat="42.42018" lon="0.67961">
        <ele>1194.9</ele>
        <time>2024-09-30T09:18:12.000Z</time>
      </trkpt>
      <trkpt lat="42.42027" lon="0.67963">
        <ele>1195.06</ele>
        <time>2024-09-30T09:18:23.000Z</time>
      </trkpt>
      <trkpt lat="42.42035" lon="0.67967">
        <ele>1195.21</ele>
        <time>2024-09-30T09:18:33.000Z</time>
      </trkpt>
      <trkpt lat="42.42044" lon="0.67972">
        <ele>1195.35</ele>
        <time>2024-09-30T09:18:43.000Z</time>
      </trkpt>
      <trkpt lat="42.42054" lon="0.67976">
        <ele>1195.5</ele>
        <time>2024-09-30T09:18:52.000Z</time>
      </trkpt>
      <trkpt lat="42.42063" lon="0.67981">
        <ele>1195.68</ele>
        <time>2024-09-30T09:19:02.000Z</time>
      </trkpt>
      <trkpt lat="42.42072" lon="0.67985">
        <ele>1195.86</ele>
        <time>2024-09-30T09:19:10.000Z</time>
      </trkpt>
      <trkpt lat="42.42081" lon="0.67986">
        <ele>1196.08</ele>
        <time>2024-09-30T09:19:19.000Z</time>
      </trkpt>
      <trkpt lat="42.42091" lon="0.67988">
        <ele>1196.42</ele>
        <time>2024-09-30T09:19:32.000Z</time>
      </trkpt>
      <trkpt lat="42.421" lon="0.67991">
        <ele>1196.58</ele>
        <time>2024-09-30T09:19:39.000Z</time>
      </trkpt>
      <trkpt lat="42.42109" lon="0.67995">
        <ele>1196.84</ele>
        <time>2024-09-30T09:19:47.999Z</time>
      </trkpt>
      <trkpt lat="42.42118" lon="0.67998">
        <ele>1197.18</ele>
        <time>2024-09-30T09:19:57.999Z</time>
      </trkpt>
      <trkpt lat="42.42126" lon="0.68004">
        <ele>1197.61</ele>
        <time>2024-09-30T09:20:08.999Z</time>
      </trkpt>
      <trkpt lat="42.42135" lon="0.68008">
        <ele>1198.13</ele>
        <time>2024-09-30T09:20:19.999Z</time>
      </trkpt>
      <trkpt lat="42.42144" lon="0.68013">
        <ele>1198.77</ele>
        <time>2024-09-30T09:20:30.999Z</time>
      </trkpt>
      <trkpt lat="42.42151" lon="0.68021">
        <ele>1199.32</ele>
        <time>2024-09-30T09:20:39.999Z</time>
      </trkpt>
      <trkpt lat="42.4216" lon="0.68029">
        <ele>1200</ele>
        <time>2024-09-30T09:20:49.999Z</time>
      </trkpt>
      <trkpt lat="42.42168" lon="0.68036">
        <ele>1200.73</ele>
        <time>2024-09-30T09:21:00.999Z</time>
      </trkpt>
      <trkpt lat="42.42176" lon="0.68043">
        <ele>1201.53</ele>
        <time>2024-09-30T09:21:10.999Z</time>
      </trkpt>
      <trkpt lat="42.42184" lon="0.68049">
        <ele>1202.54</ele>
        <time>2024-09-30T09:21:31.999Z</time>
      </trkpt>
      <trkpt lat="42.42193" lon="0.68043">
        <ele>1203.67</ele>
        <time>2024-09-30T09:21:43.999Z</time>
      </trkpt>
      <trkpt lat="42.42192" lon="0.6803">
        <ele>1204.54</ele>
        <time>2024-09-30T09:21:53.999Z</time>
      </trkpt>
      <trkpt lat="42.42188" lon="0.68018">
        <ele>1205.45</ele>
        <time>2024-09-30T09:22:04.999Z</time>
      </trkpt>
      <trkpt lat="42.42184" lon="0.68007">
        <ele>1206.07</ele>
        <time>2024-09-30T09:22:12.999Z</time>
      </trkpt>
      <trkpt lat="42.42181" lon="0.67996">
        <ele>1206.77</ele>
        <time>2024-09-30T09:22:21.999Z</time>
      </trkpt>
      <trkpt lat="42.42178" lon="0.67983">
        <ele>1207.48</ele>
        <time>2024-09-30T09:22:30.999Z</time>
      </trkpt>
      <trkpt lat="42.42171" lon="0.67973">
        <ele>1208.21</ele>
        <time>2024-09-30T09:22:38.999Z</time>
      </trkpt>
      <trkpt lat="42.42165" lon="0.67963">
        <ele>1209.09</ele>
        <time>2024-09-30T09:22:47.999Z</time>
      </trkpt>
      <trkpt lat="42.42161" lon="0.67951">
        <ele>1209.97</ele>
        <time>2024-09-30T09:22:56.999Z</time>
      </trkpt>
      <trkpt lat="42.42158" lon="0.67939">
        <ele>1210.71</ele>
        <time>2024-09-30T09:23:04.999Z</time>
      </trkpt>
      <trkpt lat="42.42152" lon="0.67929">
        <ele>1211.73</ele>
        <time>2024-09-30T09:23:16.999Z</time>
      </trkpt>
      <trkpt lat="42.42149" lon="0.67917">
        <ele>1212.2</ele>
        <time>2024-09-30T09:23:22.999Z</time>
      </trkpt>
      <trkpt lat="42.42145" lon="0.67904">
        <ele>1212.91</ele>
        <time>2024-09-30T09:23:31.999Z</time>
      </trkpt>
      <trkpt lat="42.42141" lon="0.67893">
        <ele>1213.75</ele>
        <time>2024-09-30T09:23:47.999Z</time>
      </trkpt>
      <trkpt lat="42.42134" lon="0.67885">
        <ele>1214.7</ele>
        <time>2024-09-30T09:24:02.999Z</time>
      </trkpt>
      <trkpt lat="42.42129" lon="0.67874">
        <ele>1216.64</ele>
        <time>2024-09-30T09:25:03.999Z</time>
      </trkpt>
      <trkpt lat="42.42121" lon="0.67871">
        <ele>1217.49</ele>
        <time>2024-09-30T09:25:14.999Z</time>
      </trkpt>
      <trkpt lat="42.42114" lon="0.67862">
        <ele>1218.01</ele>
        <time>2024-09-30T09:25:21.999Z</time>
      </trkpt>
      <trkpt lat="42.42106" lon="0.67854">
        <ele>1218.5</ele>
        <time>2024-09-30T09:25:28.999Z</time>
      </trkpt>
      <trkpt lat="42.42099" lon="0.67846">
        <ele>1219.01</ele>
        <time>2024-09-30T09:25:36.999Z</time>
      </trkpt>
      <trkpt lat="42.42091" lon="0.6784">
        <ele>1219.37</ele>
        <time>2024-09-30T09:25:42.999Z</time>
      </trkpt>
      <trkpt lat="42.42083" lon="0.67831">
        <ele>1219.85</ele>
        <time>2024-09-30T09:25:51.999Z</time>
      </trkpt>
      <trkpt lat="42.4208" lon="0.67819">
        <ele>1220.46</ele>
        <time>2024-09-30T09:26:18.999Z</time>
      </trkpt>
      <trkpt lat="42.42086" lon="0.67807">
        <ele>1220.92</ele>
        <time>2024-09-30T09:26:30.999Z</time>
      </trkpt>
      <trkpt lat="42.4209" lon="0.67795">
        <ele>1221.18</ele>
        <time>2024-09-30T09:26:35.999Z</time>
      </trkpt>
      <trkpt lat="42.42092" lon="0.67782">
        <ele>1221.4</ele>
        <time>2024-09-30T09:26:40.999Z</time>
      </trkpt>
      <trkpt lat="42.42097" lon="0.67772">
        <ele>1221.59</ele>
        <time>2024-09-30T09:26:45.999Z</time>
      </trkpt>
      <trkpt lat="42.42101" lon="0.67759">
        <ele>1221.76</ele>
        <time>2024-09-30T09:26:50.999Z</time>
      </trkpt>
      <trkpt lat="42.42104" lon="0.67744">
        <ele>1221.91</ele>
        <time>2024-09-30T09:26:55.999Z</time>
      </trkpt>
      <trkpt lat="42.42109" lon="0.67734">
        <ele>1222.07</ele>
        <time>2024-09-30T09:27:01.999Z</time>
      </trkpt>
      <trkpt lat="42.42111" lon="0.67717">
        <ele>1222.18</ele>
        <time>2024-09-30T09:27:06.999Z</time>
      </trkpt>
      <trkpt lat="42.42114" lon="0.67697">
        <ele>1222.27</ele>
        <time>2024-09-30T09:27:11.999Z</time>
      </trkpt>
      <trkpt lat="42.42115" lon="0.67671">
        <ele>1222.33</ele>
        <time>2024-09-30T09:27:16.999Z</time>
      </trkpt>
      <trkpt lat="42.42114" lon="0.67654">
        <ele>1222.37</ele>
        <time>2024-09-30T09:27:21.999Z</time>
      </trkpt>
      <trkpt lat="42.42117" lon="0.67639">
        <ele>1222.41</ele>
        <time>2024-09-30T09:27:26.999Z</time>
      </trkpt>
      <trkpt lat="42.42116" lon="0.67626">
        <ele>1222.46</ele>
        <time>2024-09-30T09:27:32.999Z</time>
      </trkpt>
      <trkpt lat="42.42115" lon="0.67612">
        <ele>1222.5</ele>
        <time>2024-09-30T09:27:37.999Z</time>
      </trkpt>
      <trkpt lat="42.42112" lon="0.67588">
        <ele>1222.51</ele>
        <time>2024-09-30T09:27:42.999Z</time>
      </trkpt>
      <trkpt lat="42.42109" lon="0.67565">
        <ele>1222.52</ele>
        <time>2024-09-30T09:27:47.999Z</time>
      </trkpt>
      <trkpt lat="42.42108" lon="0.6755">
        <ele>1222.53</ele>
        <time>2024-09-30T09:27:52.999Z</time>
      </trkpt>
      <trkpt lat="42.42106" lon="0.67531">
        <ele>1222.53</ele>
        <time>2024-09-30T09:27:57.999Z</time>
      </trkpt>
      <trkpt lat="42.42105" lon="0.67518">
        <ele>1222.51</ele>
        <time>2024-09-30T09:28:02.999Z</time>
      </trkpt>
      <trkpt lat="42.42107" lon="0.67506">
        <ele>1222.48</ele>
        <time>2024-09-30T09:28:18.999Z</time>
      </trkpt>
      <trkpt lat="42.42112" lon="0.67494">
        <ele>1222.17</ele>
        <time>2024-09-30T09:28:53.999Z</time>
      </trkpt>
      <trkpt lat="42.42118" lon="0.67484">
        <ele>1222.01</ele>
        <time>2024-09-30T09:29:04.999Z</time>
      </trkpt>
      <trkpt lat="42.42124" lon="0.67475">
        <ele>1221.67</ele>
        <time>2024-09-30T09:29:25.999Z</time>
      </trkpt>
      <trkpt lat="42.42127" lon="0.67464">
        <ele>1221.19</ele>
        <time>2024-09-30T09:29:56.999Z</time>
      </trkpt>
      <trkpt lat="42.42136" lon="0.67468">
        <ele>1217</ele>
        <time>2024-09-30T09:36:19.000Z</time>
      </trkpt>
      <trkpt lat="42.42133" lon="0.67452">
        <ele>1214.67</ele>
        <time>2024-09-30T09:38:36.000Z</time>
      </trkpt>
      <trkpt lat="42.42128" lon="0.6744">
        <ele>1213.9</ele>
        <time>2024-09-30T09:38:52.000Z</time>
      </trkpt>
      <trkpt lat="42.42121" lon="0.67431">
        <ele>1213.47</ele>
        <time>2024-09-30T09:39:02.000Z</time>
      </trkpt>
      <trkpt lat="42.42124" lon="0.67419">
        <ele>1213.21</ele>
        <time>2024-09-30T09:39:10.000Z</time>
      </trkpt>
      <trkpt lat="42.42115" lon="0.6741">
        <ele>1213.05</ele>
        <time>2024-09-30T09:39:15.000Z</time>
      </trkpt>
      <trkpt lat="42.42122" lon="0.67401">
        <ele>1212.72</ele>
        <time>2024-09-30T09:39:31.000Z</time>
      </trkpt>
      <trkpt lat="42.42125" lon="0.67388">
        <ele>1212.55</ele>
        <time>2024-09-30T09:39:39.000Z</time>
      </trkpt>
      <trkpt lat="42.42131" lon="0.67376">
        <ele>1212.38</ele>
        <time>2024-09-30T09:39:48.000Z</time>
      </trkpt>
      <trkpt lat="42.42136" lon="0.67366">
        <ele>1212.26</ele>
        <time>2024-09-30T09:39:56.000Z</time>
      </trkpt>
      <trkpt lat="42.4213" lon="0.67357">
        <ele>1212.04</ele>
        <time>2024-09-30T09:40:18.000Z</time>
      </trkpt>
      <trkpt lat="42.42121" lon="0.67351">
        <ele>1211.91</ele>
        <time>2024-09-30T09:40:31.000Z</time>
      </trkpt>
      <trkpt lat="42.42113" lon="0.67342">
        <ele>1211.8</ele>
        <time>2024-09-30T09:40:41.000Z</time>
      </trkpt>
      <trkpt lat="42.42105" lon="0.67335">
        <ele>1211.67</ele>
        <time>2024-09-30T09:40:52.000Z</time>
      </trkpt>
      <trkpt lat="42.42099" lon="0.67325">
        <ele>1211.53</ele>
        <time>2024-09-30T09:41:05.000Z</time>
      </trkpt>
      <trkpt lat="42.42093" lon="0.67314">
        <ele>1211.42</ele>
        <time>2024-09-30T09:41:17.000Z</time>
      </trkpt>
      <trkpt lat="42.42087" lon="0.67304">
        <ele>1211.32</ele>
        <time>2024-09-30T09:41:30.000Z</time>
      </trkpt>
      <trkpt lat="42.42083" lon="0.67292">
        <ele>1211.24</ele>
        <time>2024-09-30T09:41:45.000Z</time>
      </trkpt>
      <trkpt lat="42.42078" lon="0.67281">
        <ele>1211.22</ele>
        <time>2024-09-30T09:41:59.000Z</time>
      </trkpt>
      <trkpt lat="42.42073" lon="0.67269">
        <ele>1211.24</ele>
        <time>2024-09-30T09:42:14.000Z</time>
      </trkpt>
      <trkpt lat="42.42073" lon="0.67281">
        <ele>1211.3</ele>
        <time>2024-09-30T09:42:32.000Z</time>
      </trkpt>
      <trkpt lat="42.42077" lon="0.67293">
        <ele>1211.35</ele>
        <time>2024-09-30T09:42:41.000Z</time>
      </trkpt>
      <trkpt lat="42.42081" lon="0.67305">
        <ele>1211.41</ele>
        <time>2024-09-30T09:42:53.000Z</time>
      </trkpt>
      <trkpt lat="42.42087" lon="0.67316">
        <ele>1211.45</ele>
        <time>2024-09-30T09:43:02.000Z</time>
      </trkpt>
      <trkpt lat="42.42089" lon="0.67328">
        <ele>1211.53</ele>
        <time>2024-09-30T09:43:11.000Z</time>
      </trkpt>
      <trkpt lat="42.42087" lon="0.67341">
        <ele>1211.58</ele>
        <time>2024-09-30T09:43:19.000Z</time>
      </trkpt>
      <trkpt lat="42.4209" lon="0.67353">
        <ele>1211.59</ele>
        <time>2024-09-30T09:43:28.000Z</time>
      </trkpt>
      <trkpt lat="42.42095" lon="0.67364">
        <ele>1211.54</ele>
        <time>2024-09-30T09:43:38.000Z</time>
      </trkpt>
      <trkpt lat="42.42099" lon="0.67376">
        <ele>1211.3</ele>
        <time>2024-09-30T09:43:51.000Z</time>
      </trkpt>
      <trkpt lat="42.42105" lon="0.67386">
        <ele>1211.07</ele>
        <time>2024-09-30T09:44:00.999Z</time>
      </trkpt>
      <trkpt lat="42.42101" lon="0.67398">
        <ele>1210.93</ele>
        <time>2024-09-30T09:44:08.999Z</time>
      </trkpt>
      <trkpt lat="42.42099" lon="0.67412">
        <ele>1210.76</ele>
        <time>2024-09-30T09:44:25.999Z</time>
      </trkpt>
      <trkpt lat="42.42099" lon="0.67424">
        <ele>1210.64</ele>
        <time>2024-09-30T09:44:37.999Z</time>
      </trkpt>
      <trkpt lat="42.42098" lon="0.67437">
        <ele>1210.54</ele>
        <time>2024-09-30T09:44:48.999Z</time>
      </trkpt>
      <trkpt lat="42.42101" lon="0.67449">
        <ele>1210.51</ele>
        <time>2024-09-30T09:44:56.999Z</time>
      </trkpt>
      <trkpt lat="42.42107" lon="0.67458">
        <ele>1210.17</ele>
        <time>2024-09-30T09:45:24.999Z</time>
      </trkpt>
      <trkpt lat="42.42115" lon="0.67466">
        <ele>1210.09</ele>
        <time>2024-09-30T09:45:29.999Z</time>
      </trkpt>
      <trkpt lat="42.42125" lon="0.67462">
        <ele>1209.92</ele>
        <time>2024-09-30T09:45:40.999Z</time>
      </trkpt>
      <trkpt lat="42.42134" lon="0.67459">
        <ele>1209.78</ele>
        <time>2024-09-30T09:45:55.999Z</time>
      </trkpt>
      <trkpt lat="42.42127" lon="0.67469">
        <ele>1208.85</ele>
        <time>2024-09-30T09:46:44.999Z</time>
      </trkpt>
      <trkpt lat="42.42121" lon="0.67477">
        <ele>1208</ele>
        <time>2024-09-30T09:47:06.999Z</time>
      </trkpt>
      <trkpt lat="42.42116" lon="0.67489">
        <ele>1207.54</ele>
        <time>2024-09-30T09:47:34.999Z</time>
      </trkpt>
      <trkpt lat="42.42111" lon="0.675">
        <ele>1207.38</ele>
        <time>2024-09-30T09:47:50.999Z</time>
      </trkpt>
      <trkpt lat="42.42107" lon="0.67512">
        <ele>1207.36</ele>
        <time>2024-09-30T09:47:59.999Z</time>
      </trkpt>
      <trkpt lat="42.42106" lon="0.67524">
        <ele>1207.37</ele>
        <time>2024-09-30T09:48:08.999Z</time>
      </trkpt>
      <trkpt lat="42.42104" lon="0.67538">
        <ele>1207.42</ele>
        <time>2024-09-30T09:48:19.999Z</time>
      </trkpt>
      <trkpt lat="42.42102" lon="0.67551">
        <ele>1207.48</ele>
        <time>2024-09-30T09:48:26.999Z</time>
      </trkpt>
      <trkpt lat="42.42102" lon="0.67565">
        <ele>1207.62</ele>
        <time>2024-09-30T09:48:41.999Z</time>
      </trkpt>
      <trkpt lat="42.421" lon="0.67577">
        <ele>1207.71</ele>
        <time>2024-09-30T09:48:50.999Z</time>
      </trkpt>
      <trkpt lat="42.42099" lon="0.67589">
        <ele>1207.76</ele>
        <time>2024-09-30T09:49:02.999Z</time>
      </trkpt>
      <trkpt lat="42.42098" lon="0.67602">
        <ele>1207.76</ele>
        <time>2024-09-30T09:49:12.999Z</time>
      </trkpt>
      <trkpt lat="42.42095" lon="0.67614">
        <ele>1207.79</ele>
        <time>2024-09-30T09:49:25.999Z</time>
      </trkpt>
      <trkpt lat="42.42097" lon="0.67627">
        <ele>1207.82</ele>
        <time>2024-09-30T09:49:36.999Z</time>
      </trkpt>
      <trkpt lat="42.42101" lon="0.6764">
        <ele>1207.9</ele>
        <time>2024-09-30T09:49:45.999Z</time>
      </trkpt>
      <trkpt lat="42.42108" lon="0.67651">
        <ele>1208</ele>
        <time>2024-09-30T09:49:53.999Z</time>
      </trkpt>
      <trkpt lat="42.42115" lon="0.67659">
        <ele>1208.16</ele>
        <time>2024-09-30T09:50:03.999Z</time>
      </trkpt>
      <trkpt lat="42.42116" lon="0.67673">
        <ele>1208.5</ele>
        <time>2024-09-30T09:50:25.999Z</time>
      </trkpt>
      <trkpt lat="42.42116" lon="0.67685">
        <ele>1208.65</ele>
        <time>2024-09-30T09:50:37.999Z</time>
      </trkpt>
      <trkpt lat="42.42117" lon="0.67698">
        <ele>1208.91</ele>
        <time>2024-09-30T09:50:59.999Z</time>
      </trkpt>
      <trkpt lat="42.42115" lon="0.67711">
        <ele>1209.39</ele>
        <time>2024-09-30T09:51:21.999Z</time>
      </trkpt>
      <trkpt lat="42.42115" lon="0.67724">
        <ele>1209.81</ele>
        <time>2024-09-30T09:51:37.999Z</time>
      </trkpt>
      <trkpt lat="42.4211" lon="0.67736">
        <ele>1210.26</ele>
        <time>2024-09-30T09:51:56.999Z</time>
      </trkpt>
      <trkpt lat="42.42106" lon="0.67747">
        <ele>1210.49</ele>
        <time>2024-09-30T09:52:03.999Z</time>
      </trkpt>
      <trkpt lat="42.42104" lon="0.6776">
        <ele>1210.78</ele>
        <time>2024-09-30T09:52:15.999Z</time>
      </trkpt>
      <trkpt lat="42.421" lon="0.67773">
        <ele>1211.13</ele>
        <time>2024-09-30T09:52:25.999Z</time>
      </trkpt>
      <trkpt lat="42.42101" lon="0.67786">
        <ele>1211.83</ele>
        <time>2024-09-30T09:52:45.999Z</time>
      </trkpt>
      <trkpt lat="42.42098" lon="0.67798">
        <ele>1212.1</ele>
        <time>2024-09-30T09:52:51.999Z</time>
      </trkpt>
      <trkpt lat="42.42093" lon="0.67809">
        <ele>1212.54</ele>
        <time>2024-09-30T09:53:00.999Z</time>
      </trkpt>
      <trkpt lat="42.42086" lon="0.67817">
        <ele>1213.08</ele>
        <time>2024-09-30T09:53:10.999Z</time>
      </trkpt>
      <trkpt lat="42.42079" lon="0.67808">
        <ele>1213.96</ele>
        <time>2024-09-30T09:53:24.999Z</time>
      </trkpt>
      <trkpt lat="42.42073" lon="0.67798">
        <ele>1214.5</ele>
        <time>2024-09-30T09:53:32.999Z</time>
      </trkpt>
      <trkpt lat="42.42067" lon="0.67788">
        <ele>1216.89</ele>
        <time>2024-09-30T09:54:51.999Z</time>
      </trkpt>
      <trkpt lat="42.42058" lon="0.6779">
        <ele>1229.35</ele>
        <time>2024-09-30T10:02:26.000Z</time>
      </trkpt>
      <trkpt lat="42.42054" lon="0.67779">
        <ele>1230.12</ele>
        <time>2024-09-30T10:02:35.000Z</time>
      </trkpt>
      <trkpt lat="42.42051" lon="0.67766">
        <ele>1230.77</ele>
        <time>2024-09-30T10:02:44.000Z</time>
      </trkpt>
      <trkpt lat="42.42048" lon="0.67754">
        <ele>1231.16</ele>
        <time>2024-09-30T10:02:50.000Z</time>
      </trkpt>
      <trkpt lat="42.42045" lon="0.67743">
        <ele>1231.67</ele>
        <time>2024-09-30T10:02:59.000Z</time>
      </trkpt>
      <trkpt lat="42.42041" lon="0.67731">
        <ele>1232.15</ele>
        <time>2024-09-30T10:03:09.000Z</time>
      </trkpt>
      <trkpt lat="42.42036" lon="0.67721">
        <ele>1232.53</ele>
        <time>2024-09-30T10:03:18.000Z</time>
      </trkpt>
      <trkpt lat="42.42034" lon="0.67709">
        <ele>1232.83</ele>
        <time>2024-09-30T10:03:26.000Z</time>
      </trkpt>
      <trkpt lat="42.42029" lon="0.67697">
        <ele>1233.13</ele>
        <time>2024-09-30T10:03:35.000Z</time>
      </trkpt>
      <trkpt lat="42.42025" lon="0.67686">
        <ele>1233.4</ele>
        <time>2024-09-30T10:03:44.000Z</time>
      </trkpt>
      <trkpt lat="42.42021" lon="0.67675">
        <ele>1233.61</ele>
        <time>2024-09-30T10:03:52.000Z</time>
      </trkpt>
      <trkpt lat="42.42014" lon="0.67667">
        <ele>1233.78</ele>
        <time>2024-09-30T10:03:59.000Z</time>
      </trkpt>
      <trkpt lat="42.42009" lon="0.67656">
        <ele>1234.01</ele>
        <time>2024-09-30T10:04:10.000Z</time>
      </trkpt>
      <trkpt lat="42.42003" lon="0.67646">
        <ele>1234.18</ele>
        <time>2024-09-30T10:04:18.000Z</time>
      </trkpt>
      <trkpt lat="42.41998" lon="0.67634">
        <ele>1234.33</ele>
        <time>2024-09-30T10:04:25.000Z</time>
      </trkpt>
      <trkpt lat="42.41991" lon="0.67626">
        <ele>1234.48</ele>
        <time>2024-09-30T10:04:32.000Z</time>
      </trkpt>
      <trkpt lat="42.41985" lon="0.67617">
        <ele>1234.65</ele>
        <time>2024-09-30T10:04:41.000Z</time>
      </trkpt>
      <trkpt lat="42.41979" lon="0.67608">
        <ele>1234.89</ele>
        <time>2024-09-30T10:04:52.000Z</time>
      </trkpt>
      <trkpt lat="42.41973" lon="0.67598">
        <ele>1235.02</ele>
        <time>2024-09-30T10:04:58.000Z</time>
      </trkpt>
      <trkpt lat="42.41968" lon="0.67588">
        <ele>1235.25</ele>
        <time>2024-09-30T10:05:08.000Z</time>
      </trkpt>
      <trkpt lat="42.41962" lon="0.67577">
        <ele>1235.42</ele>
        <time>2024-09-30T10:05:15.000Z</time>
      </trkpt>
      <trkpt lat="42.41958" lon="0.67566">
        <ele>1235.62</ele>
        <time>2024-09-30T10:05:23.000Z</time>
      </trkpt>
      <trkpt lat="42.41953" lon="0.67556">
        <ele>1235.79</ele>
        <time>2024-09-30T10:05:30.000Z</time>
      </trkpt>
      <trkpt lat="42.41948" lon="0.67544">
        <ele>1236.01</ele>
        <time>2024-09-30T10:05:39.000Z</time>
      </trkpt>
      <trkpt lat="42.41943" lon="0.67533">
        <ele>1236.21</ele>
        <time>2024-09-30T10:05:47.000Z</time>
      </trkpt>
      <trkpt lat="42.4194" lon="0.6752">
        <ele>1236.5</ele>
        <time>2024-09-30T10:06:01.000Z</time>
      </trkpt>
      <trkpt lat="42.4194" lon="0.67506">
        <ele>1236.62</ele>
        <time>2024-09-30T10:06:06.000Z</time>
      </trkpt>
      <trkpt lat="42.4194" lon="0.67483">
        <ele>1236.75</ele>
        <time>2024-09-30T10:06:11.000Z</time>
      </trkpt>
      <trkpt lat="42.41946" lon="0.67459">
        <ele>1236.86</ele>
        <time>2024-09-30T10:06:16.000Z</time>
      </trkpt>
      <trkpt lat="42.41953" lon="0.67435">
        <ele>1236.97</ele>
        <time>2024-09-30T10:06:21.000Z</time>
      </trkpt>
      <trkpt lat="42.41964" lon="0.67409">
        <ele>1237.24</ele>
        <time>2024-09-30T10:06:26.000Z</time>
      </trkpt>
      <trkpt lat="42.41975" lon="0.67391">
        <ele>1237.34</ele>
        <time>2024-09-30T10:06:31.000Z</time>
      </trkpt>
      <trkpt lat="42.4199" lon="0.67372">
        <ele>1237.41</ele>
        <time>2024-09-30T10:06:36.000Z</time>
      </trkpt>
      <trkpt lat="42.42005" lon="0.67354">
        <ele>1237.62</ele>
        <time>2024-09-30T10:06:41.000Z</time>
      </trkpt>
      <trkpt lat="42.42012" lon="0.67334">
        <ele>1237.8</ele>
        <time>2024-09-30T10:06:46.000Z</time>
      </trkpt>
      <trkpt lat="42.42009" lon="0.67308">
        <ele>1237.81</ele>
        <time>2024-09-30T10:06:51.000Z</time>
      </trkpt>
      <trkpt lat="42.42009" lon="0.67287">
        <ele>1237.72</ele>
        <time>2024-09-30T10:06:56.000Z</time>
      </trkpt>
      <trkpt lat="42.42005" lon="0.67262">
        <ele>1237.56</ele>
        <time>2024-09-30T10:07:01.000Z</time>
      </trkpt>
      <trkpt lat="42.42" lon="0.67243">
        <ele>1237.44</ele>
        <time>2024-09-30T10:07:06.000Z</time>
      </trkpt>
      <trkpt lat="42.41992" lon="0.67216">
        <ele>1237.32</ele>
        <time>2024-09-30T10:07:11.000Z</time>
      </trkpt>
      <trkpt lat="42.41982" lon="0.6718">
        <ele>1237.04</ele>
        <time>2024-09-30T10:07:16.000Z</time>
      </trkpt>
      <trkpt lat="42.41976" lon="0.67154">
        <ele>1237.07</ele>
        <time>2024-09-30T10:07:21.000Z</time>
      </trkpt>
      <trkpt lat="42.41972" lon="0.6713">
        <ele>1237.18</ele>
        <time>2024-09-30T10:07:26.000Z</time>
      </trkpt>
      <trkpt lat="42.41981" lon="0.67117">
        <ele>1237.31</ele>
        <time>2024-09-30T10:07:31.000Z</time>
      </trkpt>
      <trkpt lat="42.41994" lon="0.67114">
        <ele>1237.49</ele>
        <time>2024-09-30T10:07:36.000Z</time>
      </trkpt>
      <trkpt lat="42.42007" lon="0.67115">
        <ele>1237.66</ele>
        <time>2024-09-30T10:07:41.000Z</time>
      </trkpt>
      <trkpt lat="42.42019" lon="0.67119">
        <ele>1237.81</ele>
        <time>2024-09-30T10:07:46.000Z</time>
      </trkpt>
      <trkpt lat="42.4203" lon="0.67121">
        <ele>1237.95</ele>
        <time>2024-09-30T10:07:51.000Z</time>
      </trkpt>
      <trkpt lat="42.42042" lon="0.67121">
        <ele>1238.11</ele>
        <time>2024-09-30T10:07:56.000Z</time>
      </trkpt>
      <trkpt lat="42.42053" lon="0.67123">
        <ele>1238.24</ele>
        <time>2024-09-30T10:08:01.000Z</time>
      </trkpt>
      <trkpt lat="42.42065" lon="0.67126">
        <ele>1238.38</ele>
        <time>2024-09-30T10:08:06.000Z</time>
      </trkpt>
      <trkpt lat="42.42077" lon="0.67127">
        <ele>1238.56</ele>
        <time>2024-09-30T10:08:11.999Z</time>
      </trkpt>
      <trkpt lat="42.42087" lon="0.67128">
        <ele>1238.73</ele>
        <time>2024-09-30T10:08:16.999Z</time>
      </trkpt>
      <trkpt lat="42.42096" lon="0.67127">
        <ele>1238.92</ele>
        <time>2024-09-30T10:08:21.999Z</time>
      </trkpt>
      <trkpt lat="42.42106" lon="0.67123">
        <ele>1239.23</ele>
        <time>2024-09-30T10:08:27.999Z</time>
      </trkpt>
      <trkpt lat="42.42114" lon="0.67116">
        <ele>1239.56</ele>
        <time>2024-09-30T10:08:33.999Z</time>
      </trkpt>
      <trkpt lat="42.42122" lon="0.67109">
        <ele>1239.95</ele>
        <time>2024-09-30T10:08:40.999Z</time>
      </trkpt>
      <trkpt lat="42.42128" lon="0.671">
        <ele>1240.31</ele>
        <time>2024-09-30T10:08:46.999Z</time>
      </trkpt>
      <trkpt lat="42.42136" lon="0.67092">
        <ele>1240.68</ele>
        <time>2024-09-30T10:08:53.999Z</time>
      </trkpt>
      <trkpt lat="42.42142" lon="0.67082">
        <ele>1240.94</ele>
        <time>2024-09-30T10:08:58.999Z</time>
      </trkpt>
      <trkpt lat="42.42148" lon="0.67072">
        <ele>1241.21</ele>
        <time>2024-09-30T10:09:03.999Z</time>
      </trkpt>
      <trkpt lat="42.42154" lon="0.6706">
        <ele>1241.51</ele>
        <time>2024-09-30T10:09:09.999Z</time>
      </trkpt>
      <trkpt lat="42.42159" lon="0.6705">
        <ele>1241.79</ele>
        <time>2024-09-30T10:09:15.999Z</time>
      </trkpt>
      <trkpt lat="42.42163" lon="0.67038">
        <ele>1242.21</ele>
        <time>2024-09-30T10:09:35.999Z</time>
      </trkpt>
      <trkpt lat="42.42168" lon="0.67028">
        <ele>1242.47</ele>
        <time>2024-09-30T10:09:41.999Z</time>
      </trkpt>
      <trkpt lat="42.42175" lon="0.6702">
        <ele>1242.68</ele>
        <time>2024-09-30T10:09:46.999Z</time>
      </trkpt>
      <trkpt lat="42.42182" lon="0.67012">
        <ele>1242.93</ele>
        <time>2024-09-30T10:09:52.999Z</time>
      </trkpt>
      <trkpt lat="42.42189" lon="0.67005">
        <ele>1243.15</ele>
        <time>2024-09-30T10:09:58.999Z</time>
      </trkpt>
      <trkpt lat="42.42196" lon="0.66996">
        <ele>1243.4</ele>
        <time>2024-09-30T10:10:05.999Z</time>
      </trkpt>
      <trkpt lat="42.42204" lon="0.66988">
        <ele>1243.6</ele>
        <time>2024-09-30T10:10:11.999Z</time>
      </trkpt>
      <trkpt lat="42.42211" lon="0.6698">
        <ele>1243.78</ele>
        <time>2024-09-30T10:10:16.999Z</time>
      </trkpt>
      <trkpt lat="42.42217" lon="0.66969">
        <ele>1243.99</ele>
        <time>2024-09-30T10:10:22.999Z</time>
      </trkpt>
      <trkpt lat="42.42222" lon="0.66956">
        <ele>1244.22</ele>
        <time>2024-09-30T10:10:28.999Z</time>
      </trkpt>
      <trkpt lat="42.42225" lon="0.66944">
        <ele>1244.41</ele>
        <time>2024-09-30T10:10:33.999Z</time>
      </trkpt>
      <trkpt lat="42.42225" lon="0.6693">
        <ele>1244.67</ele>
        <time>2024-09-30T10:10:39.999Z</time>
      </trkpt>
      <trkpt lat="42.42224" lon="0.66916">
        <ele>1244.93</ele>
        <time>2024-09-30T10:10:45.999Z</time>
      </trkpt>
      <trkpt lat="42.42222" lon="0.66903">
        <ele>1245.2</ele>
        <time>2024-09-30T10:10:51.999Z</time>
      </trkpt>
      <trkpt lat="42.42221" lon="0.66891">
        <ele>1245.44</ele>
        <time>2024-09-30T10:10:56.999Z</time>
      </trkpt>
      <trkpt lat="42.42216" lon="0.66879">
        <ele>1245.7</ele>
        <time>2024-09-30T10:11:01.999Z</time>
      </trkpt>
      <trkpt lat="42.4221" lon="0.66869">
        <ele>1246.07</ele>
        <time>2024-09-30T10:11:07.999Z</time>
      </trkpt>
      <trkpt lat="42.42203" lon="0.66861">
        <ele>1249.05</ele>
        <time>2024-09-30T10:13:30.999Z</time>
      </trkpt>
      <trkpt lat="42.42194" lon="0.66854">
        <ele>1249.71</ele>
        <time>2024-09-30T10:13:36.999Z</time>
      </trkpt>
      <trkpt lat="42.42185" lon="0.66847">
        <ele>1250.22</ele>
        <time>2024-09-30T10:13:41.999Z</time>
      </trkpt>
      <trkpt lat="42.42177" lon="0.66842">
        <ele>1250.68</ele>
        <time>2024-09-30T10:13:46.999Z</time>
      </trkpt>
      <trkpt lat="42.42168" lon="0.66839">
        <ele>1251.11</ele>
        <time>2024-09-30T10:13:51.999Z</time>
      </trkpt>
      <trkpt lat="42.42157" lon="0.66839">
        <ele>1251.52</ele>
        <time>2024-09-30T10:13:56.999Z</time>
      </trkpt>
      <trkpt lat="42.42147" lon="0.6684">
        <ele>1251.92</ele>
        <time>2024-09-30T10:14:01.999Z</time>
      </trkpt>
      <trkpt lat="42.42136" lon="0.6684">
        <ele>1252.3</ele>
        <time>2024-09-30T10:14:06.999Z</time>
      </trkpt>
      <trkpt lat="42.42126" lon="0.66838">
        <ele>1252.68</ele>
        <time>2024-09-30T10:14:11.999Z</time>
      </trkpt>
      <trkpt lat="42.42115" lon="0.66836">
        <ele>1253.06</ele>
        <time>2024-09-30T10:14:16.999Z</time>
      </trkpt>
      <trkpt lat="42.42105" lon="0.66834">
        <ele>1253.43</ele>
        <time>2024-09-30T10:14:21.999Z</time>
      </trkpt>
      <trkpt lat="42.42095" lon="0.66831">
        <ele>1253.79</ele>
        <time>2024-09-30T10:14:26.999Z</time>
      </trkpt>
      <trkpt lat="42.42086" lon="0.66826">
        <ele>1254.15</ele>
        <time>2024-09-30T10:14:31.999Z</time>
      </trkpt>
      <trkpt lat="42.42076" lon="0.66822">
        <ele>1254.52</ele>
        <time>2024-09-30T10:14:36.999Z</time>
      </trkpt>
      <trkpt lat="42.42066" lon="0.66816">
        <ele>1254.89</ele>
        <time>2024-09-30T10:14:41.999Z</time>
      </trkpt>
      <trkpt lat="42.42051" lon="0.66801">
        <ele>1256.62</ele>
        <time>2024-09-30T10:14:46.999Z</time>
      </trkpt>
      <trkpt lat="42.42034" lon="0.66785">
        <ele>1257.96</ele>
        <time>2024-09-30T10:14:51.999Z</time>
      </trkpt>
      <trkpt lat="42.4202" lon="0.66768">
        <ele>1258.38</ele>
        <time>2024-09-30T10:14:56.999Z</time>
      </trkpt>
      <trkpt lat="42.42006" lon="0.66745">
        <ele>1258.72</ele>
        <time>2024-09-30T10:15:01.999Z</time>
      </trkpt>
      <trkpt lat="42.41991" lon="0.66715">
        <ele>1258.87</ele>
        <time>2024-09-30T10:15:06.999Z</time>
      </trkpt>
      <trkpt lat="42.41973" lon="0.6669">
        <ele>1258.9</ele>
        <time>2024-09-30T10:15:11.999Z</time>
      </trkpt>
      <trkpt lat="42.41962" lon="0.6667">
        <ele>1258.9</ele>
        <time>2024-09-30T10:15:16.999Z</time>
      </trkpt>
      <trkpt lat="42.41965" lon="0.66653">
        <ele>1258.88</ele>
        <time>2024-09-30T10:15:21.999Z</time>
      </trkpt>
      <trkpt lat="42.41975" lon="0.66645">
        <ele>1258.85</ele>
        <time>2024-09-30T10:15:26.999Z</time>
      </trkpt>
      <trkpt lat="42.41987" lon="0.66639">
        <ele>1258.8</ele>
        <time>2024-09-30T10:15:31.999Z</time>
      </trkpt>
      <trkpt lat="42.41998" lon="0.66639">
        <ele>1258.74</ele>
        <time>2024-09-30T10:15:36.999Z</time>
      </trkpt>
      <trkpt lat="42.42008" lon="0.66642">
        <ele>1258.68</ele>
        <time>2024-09-30T10:15:41.999Z</time>
      </trkpt>
      <trkpt lat="42.42018" lon="0.66647">
        <ele>1258.57</ele>
        <time>2024-09-30T10:15:49.999Z</time>
      </trkpt>
      <trkpt lat="42.42025" lon="0.66656">
        <ele>1258.45</ele>
        <time>2024-09-30T10:15:57.999Z</time>
      </trkpt>
      <trkpt lat="42.4204" lon="0.66655">
        <ele>1258.38</ele>
        <time>2024-09-30T10:16:02.999Z</time>
      </trkpt>
      <trkpt lat="42.42057" lon="0.66656">
        <ele>1258.31</ele>
        <time>2024-09-30T10:16:07.999Z</time>
      </trkpt>
      <trkpt lat="42.4207" lon="0.66663">
        <ele>1258.25</ele>
        <time>2024-09-30T10:16:12.999Z</time>
      </trkpt>
      <trkpt lat="42.42083" lon="0.66668">
        <ele>1258.2</ele>
        <time>2024-09-30T10:16:17.999Z</time>
      </trkpt>
      <trkpt lat="42.42103" lon="0.66677">
        <ele>1257.96</ele>
        <time>2024-09-30T10:16:22.999Z</time>
      </trkpt>
      <trkpt lat="42.42127" lon="0.66674">
        <ele>1257.74</ele>
        <time>2024-09-30T10:16:27.999Z</time>
      </trkpt>
      <trkpt lat="42.42147" lon="0.6667">
        <ele>1257.7</ele>
        <time>2024-09-30T10:16:32.999Z</time>
      </trkpt>
      <trkpt lat="42.42177" lon="0.66659">
        <ele>1257.46</ele>
        <time>2024-09-30T10:16:37.999Z</time>
      </trkpt>
      <trkpt lat="42.42198" lon="0.6666">
        <ele>1257.42</ele>
        <time>2024-09-30T10:16:42.999Z</time>
      </trkpt>
      <trkpt lat="42.42219" lon="0.66661">
        <ele>1257.35</ele>
        <time>2024-09-30T10:16:47.999Z</time>
      </trkpt>
      <trkpt lat="42.42241" lon="0.6666">
        <ele>1257.22</ele>
        <time>2024-09-30T10:16:52.999Z</time>
      </trkpt>
      <trkpt lat="42.42265" lon="0.66654">
        <ele>1257.07</ele>
        <time>2024-09-30T10:16:57.999Z</time>
      </trkpt>
      <trkpt lat="42.42283" lon="0.66656">
        <ele>1257.04</ele>
        <time>2024-09-30T10:17:02.999Z</time>
      </trkpt>
      <trkpt lat="42.42297" lon="0.66658">
        <ele>1257</ele>
        <time>2024-09-30T10:17:07.999Z</time>
      </trkpt>
      <trkpt lat="42.42314" lon="0.66655">
        <ele>1256.97</ele>
        <time>2024-09-30T10:17:12.999Z</time>
      </trkpt>
      <trkpt lat="42.42331" lon="0.66657">
        <ele>1256.92</ele>
        <time>2024-09-30T10:17:17.999Z</time>
      </trkpt>
      <trkpt lat="42.42349" lon="0.66656">
        <ele>1256.87</ele>
        <time>2024-09-30T10:17:22.999Z</time>
      </trkpt>
      <trkpt lat="42.42364" lon="0.66651">
        <ele>1256.83</ele>
        <time>2024-09-30T10:17:27.999Z</time>
      </trkpt>
      <trkpt lat="42.42375" lon="0.66641">
        <ele>1256.79</ele>
        <time>2024-09-30T10:17:32.999Z</time>
      </trkpt>
      <trkpt lat="42.42385" lon="0.66626">
        <ele>1256.74</ele>
        <time>2024-09-30T10:17:37.999Z</time>
      </trkpt>
      <trkpt lat="42.42394" lon="0.66612">
        <ele>1256.7</ele>
        <time>2024-09-30T10:17:42.999Z</time>
      </trkpt>
      <trkpt lat="42.42402" lon="0.66596">
        <ele>1256.65</ele>
        <time>2024-09-30T10:17:47.999Z</time>
      </trkpt>
      <trkpt lat="42.42407" lon="0.66578">
        <ele>1256.6</ele>
        <time>2024-09-30T10:17:52.999Z</time>
      </trkpt>
      <trkpt lat="42.42411" lon="0.66558">
        <ele>1256.54</ele>
        <time>2024-09-30T10:17:57.999Z</time>
      </trkpt>
      <trkpt lat="42.42411" lon="0.6654">
        <ele>1256.49</ele>
        <time>2024-09-30T10:18:02.999Z</time>
      </trkpt>
      <trkpt lat="42.42409" lon="0.66521">
        <ele>1256.43</ele>
        <time>2024-09-30T10:18:07.999Z</time>
      </trkpt>
      <trkpt lat="42.42406" lon="0.66507">
        <ele>1256.33</ele>
        <time>2024-09-30T10:18:29.999Z</time>
      </trkpt>
      <trkpt lat="42.424" lon="0.66492">
        <ele>1256.22</ele>
        <time>2024-09-30T10:18:34.999Z</time>
      </trkpt>
      <trkpt lat="42.42384" lon="0.66467">
        <ele>1255.98</ele>
        <time>2024-09-30T10:18:39.999Z</time>
      </trkpt>
      <trkpt lat="42.42378" lon="0.66433">
        <ele>1255.93</ele>
        <time>2024-09-30T10:18:44.999Z</time>
      </trkpt>
      <trkpt lat="42.42386" lon="0.66399">
        <ele>1255.9</ele>
        <time>2024-09-30T10:18:49.999Z</time>
      </trkpt>
      <trkpt lat="42.42396" lon="0.66377">
        <ele>1255.91</ele>
        <time>2024-09-30T10:18:54.999Z</time>
      </trkpt>
      <trkpt lat="42.42405" lon="0.66351">
        <ele>1255.85</ele>
        <time>2024-09-30T10:18:59.999Z</time>
      </trkpt>
      <trkpt lat="42.42414" lon="0.66321">
        <ele>1255.82</ele>
        <time>2024-09-30T10:19:04.999Z</time>
      </trkpt>
      <trkpt lat="42.42422" lon="0.66296">
        <ele>1255.79</ele>
        <time>2024-09-30T10:19:09.999Z</time>
      </trkpt>
      <trkpt lat="42.42429" lon="0.6627">
        <ele>1255.68</ele>
        <time>2024-09-30T10:19:14.999Z</time>
      </trkpt>
      <trkpt lat="42.42438" lon="0.66237">
        <ele>1255.5</ele>
        <time>2024-09-30T10:19:19.999Z</time>
      </trkpt>
      <trkpt lat="42.42449" lon="0.66206">
        <ele>1255.31</ele>
        <time>2024-09-30T10:19:24.999Z</time>
      </trkpt>
      <trkpt lat="42.42459" lon="0.66179">
        <ele>1255.13</ele>
        <time>2024-09-30T10:19:29.999Z</time>
      </trkpt>
      <trkpt lat="42.42469" lon="0.66155">
        <ele>1254.99</ele>
        <time>2024-09-30T10:19:34.999Z</time>
      </trkpt>
      <trkpt lat="42.4248" lon="0.66136">
        <ele>1254.96</ele>
        <time>2024-09-30T10:19:39.999Z</time>
      </trkpt>
      <trkpt lat="42.42491" lon="0.66117">
        <ele>1254.93</ele>
        <time>2024-09-30T10:19:44.999Z</time>
      </trkpt>
      <trkpt lat="42.42507" lon="0.66111">
        <ele>1254.89</ele>
        <time>2024-09-30T10:19:49.999Z</time>
      </trkpt>
      <trkpt lat="42.42518" lon="0.66118">
        <ele>1254.85</ele>
        <time>2024-09-30T10:19:54.999Z</time>
      </trkpt>
      <trkpt lat="42.42526" lon="0.66127">
        <ele>1254.75</ele>
        <time>2024-09-30T10:20:08.999Z</time>
      </trkpt>
      <trkpt lat="42.4253" lon="0.66143">
        <ele>1254.67</ele>
        <time>2024-09-30T10:20:14.000Z</time>
      </trkpt>
      <trkpt lat="42.42529" lon="0.66162">
        <ele>1254.59</ele>
        <time>2024-09-30T10:20:19.000Z</time>
      </trkpt>
      <trkpt lat="42.42524" lon="0.66183">
        <ele>1254.52</ele>
        <time>2024-09-30T10:20:24.000Z</time>
      </trkpt>
      <trkpt lat="42.42517" lon="0.66205">
        <ele>1254.46</ele>
        <time>2024-09-30T10:20:29.000Z</time>
      </trkpt>
      <trkpt lat="42.42514" lon="0.6623">
        <ele>1254.17</ele>
        <time>2024-09-30T10:20:34.000Z</time>
      </trkpt>
      <trkpt lat="42.42509" lon="0.66256">
        <ele>1254.04</ele>
        <time>2024-09-30T10:20:39.000Z</time>
      </trkpt>
      <trkpt lat="42.42506" lon="0.66287">
        <ele>1254.15</ele>
        <time>2024-09-30T10:20:44.000Z</time>
      </trkpt>
      <trkpt lat="42.42507" lon="0.66319">
        <ele>1254.16</ele>
        <time>2024-09-30T10:20:49.000Z</time>
      </trkpt>
      <trkpt lat="42.42509" lon="0.66352">
        <ele>1254.1</ele>
        <time>2024-09-30T10:20:54.000Z</time>
      </trkpt>
      <trkpt lat="42.42518" lon="0.6638">
        <ele>1254.08</ele>
        <time>2024-09-30T10:20:59.000Z</time>
      </trkpt>
      <trkpt lat="42.42528" lon="0.66401">
        <ele>1254.09</ele>
        <time>2024-09-30T10:21:04.000Z</time>
      </trkpt>
      <trkpt lat="42.42537" lon="0.66416">
        <ele>1254.09</ele>
        <time>2024-09-30T10:21:09.000Z</time>
      </trkpt>
      <trkpt lat="42.42551" lon="0.66428">
        <ele>1254.09</ele>
        <time>2024-09-30T10:21:14.000Z</time>
      </trkpt>
      <trkpt lat="42.42566" lon="0.66433">
        <ele>1254.1</ele>
        <time>2024-09-30T10:21:19.000Z</time>
      </trkpt>
      <trkpt lat="42.4258" lon="0.66438">
        <ele>1254.11</ele>
        <time>2024-09-30T10:21:24.000Z</time>
      </trkpt>
      <trkpt lat="42.42595" lon="0.66439">
        <ele>1254.13</ele>
        <time>2024-09-30T10:21:29.000Z</time>
      </trkpt>
      <trkpt lat="42.42613" lon="0.66429">
        <ele>1254.14</ele>
        <time>2024-09-30T10:21:34.000Z</time>
      </trkpt>
      <trkpt lat="42.4263" lon="0.66415">
        <ele>1254.23</ele>
        <time>2024-09-30T10:21:39.000Z</time>
      </trkpt>
      <trkpt lat="42.42656" lon="0.66395">
        <ele>1254.32</ele>
        <time>2024-09-30T10:21:44.000Z</time>
      </trkpt>
      <trkpt lat="42.42688" lon="0.66397">
        <ele>1254.4</ele>
        <time>2024-09-30T10:21:49.000Z</time>
      </trkpt>
      <trkpt lat="42.42705" lon="0.66431">
        <ele>1254.52</ele>
        <time>2024-09-30T10:21:54.000Z</time>
      </trkpt>
      <trkpt lat="42.42714" lon="0.66453">
        <ele>1254.48</ele>
        <time>2024-09-30T10:21:59.000Z</time>
      </trkpt>
      <trkpt lat="42.42718" lon="0.66464">
        <ele>1254.54</ele>
        <time>2024-09-30T10:22:04.000Z</time>
      </trkpt>
      <trkpt lat="42.42728" lon="0.66485">
        <ele>1254.6</ele>
        <time>2024-09-30T10:22:09.000Z</time>
      </trkpt>
      <trkpt lat="42.42733" lon="0.66496">
        <ele>1254.67</ele>
        <time>2024-09-30T10:22:14.000Z</time>
      </trkpt>
      <trkpt lat="42.42737" lon="0.66507">
        <ele>1254.92</ele>
        <time>2024-09-30T10:22:23.000Z</time>
      </trkpt>
      <trkpt lat="42.4274" lon="0.6652">
        <ele>1255.48</ele>
        <time>2024-09-30T10:22:30.000Z</time>
      </trkpt>
      <trkpt lat="42.42741" lon="0.66532">
        <ele>1256.07</ele>
        <time>2024-09-30T10:22:39.000Z</time>
      </trkpt>
      <trkpt lat="42.42747" lon="0.66543">
        <ele>1256.66</ele>
        <time>2024-09-30T10:22:49.000Z</time>
      </trkpt>
      <trkpt lat="42.42752" lon="0.66554">
        <ele>1257.17</ele>
        <time>2024-09-30T10:23:00.000Z</time>
      </trkpt>
      <trkpt lat="42.42744" lon="0.6656">
        <ele>1259.58</ele>
        <time>2024-09-30T10:26:33.000Z</time>
      </trkpt>
      <trkpt lat="42.42735" lon="0.66559">
        <ele>1259.8</ele>
        <time>2024-09-30T10:26:39.000Z</time>
      </trkpt>
      <trkpt lat="42.42723" lon="0.66559">
        <ele>1259.97</ele>
        <time>2024-09-30T10:26:44.000Z</time>
      </trkpt>
      <trkpt lat="42.42704" lon="0.6656">
        <ele>1260.61</ele>
        <time>2024-09-30T10:26:49.000Z</time>
      </trkpt>
      <trkpt lat="42.42683" lon="0.66569">
        <ele>1261.33</ele>
        <time>2024-09-30T10:26:54.000Z</time>
      </trkpt>
      <trkpt lat="42.42668" lon="0.66582">
        <ele>1261.38</ele>
        <time>2024-09-30T10:26:59.000Z</time>
      </trkpt>
      <trkpt lat="42.42654" lon="0.66595">
        <ele>1261.44</ele>
        <time>2024-09-30T10:27:04.000Z</time>
      </trkpt>
      <trkpt lat="42.4264" lon="0.66608">
        <ele>1261.52</ele>
        <time>2024-09-30T10:27:09.000Z</time>
      </trkpt>
      <trkpt lat="42.42628" lon="0.6662">
        <ele>1261.61</ele>
        <time>2024-09-30T10:27:14.000Z</time>
      </trkpt>
      <trkpt lat="42.4262" lon="0.66634">
        <ele>1261.71</ele>
        <time>2024-09-30T10:27:19.000Z</time>
      </trkpt>
      <trkpt lat="42.42616" lon="0.6665">
        <ele>1261.8</ele>
        <time>2024-09-30T10:27:24.000Z</time>
      </trkpt>
      <trkpt lat="42.42615" lon="0.66665">
        <ele>1261.9</ele>
        <time>2024-09-30T10:27:29.000Z</time>
      </trkpt>
      <trkpt lat="42.4262" lon="0.66652">
        <ele>1262.08</ele>
        <time>2024-09-30T10:27:40.000Z</time>
      </trkpt>
      <trkpt lat="42.42625" lon="0.66632">
        <ele>1262.13</ele>
        <time>2024-09-30T10:27:45.000Z</time>
      </trkpt>
      <trkpt lat="42.42637" lon="0.66616">
        <ele>1262.12</ele>
        <time>2024-09-30T10:27:50.000Z</time>
      </trkpt>
      <trkpt lat="42.4265" lon="0.66601">
        <ele>1262.1</ele>
        <time>2024-09-30T10:27:55.000Z</time>
      </trkpt>
      <trkpt lat="42.42661" lon="0.6659">
        <ele>1262.06</ele>
        <time>2024-09-30T10:28:00.000Z</time>
      </trkpt>
      <trkpt lat="42.42669" lon="0.66583">
        <ele>1262</ele>
        <time>2024-09-30T10:28:05.000Z</time>
      </trkpt>
      <trkpt lat="42.42677" lon="0.66575">
        <ele>1260.41</ele>
        <time>2024-09-30T10:32:11.000Z</time>
      </trkpt>
      <trkpt lat="42.42694" lon="0.66564">
        <ele>1260.32</ele>
        <time>2024-09-30T10:32:16.999Z</time>
      </trkpt>
      <trkpt lat="42.42709" lon="0.6656">
        <ele>1260.25</ele>
        <time>2024-09-30T10:32:21.999Z</time>
      </trkpt>
      <trkpt lat="42.42718" lon="0.66562">
        <ele>1260.18</ele>
        <time>2024-09-30T10:32:26.999Z</time>
      </trkpt>
      <trkpt lat="42.42729" lon="0.66564">
        <ele>1260.12</ele>
        <time>2024-09-30T10:32:31.999Z</time>
      </trkpt>
      <trkpt lat="42.42742" lon="0.66564">
        <ele>1260.05</ele>
        <time>2024-09-30T10:32:36.999Z</time>
      </trkpt>
      <trkpt lat="42.42753" lon="0.66565">
        <ele>1259.98</ele>
        <time>2024-09-30T10:32:41.999Z</time>
      </trkpt>
      <trkpt lat="42.42764" lon="0.66563">
        <ele>1259.91</ele>
        <time>2024-09-30T10:32:46.999Z</time>
      </trkpt>
      <trkpt lat="42.42774" lon="0.6656">
        <ele>1259.86</ele>
        <time>2024-09-30T10:32:51.999Z</time>
      </trkpt>
      <trkpt lat="42.42783" lon="0.66554">
        <ele>1259.82</ele>
        <time>2024-09-30T10:32:56.999Z</time>
      </trkpt>
      <trkpt lat="42.42791" lon="0.66546">
        <ele>1259.8</ele>
        <time>2024-09-30T10:33:02.999Z</time>
      </trkpt>
      <trkpt lat="42.42798" lon="0.66535">
        <ele>1259.82</ele>
        <time>2024-09-30T10:33:08.999Z</time>
      </trkpt>
      <trkpt lat="42.42804" lon="0.66524">
        <ele>1259.87</ele>
        <time>2024-09-30T10:33:14.999Z</time>
      </trkpt>
      <trkpt lat="42.42807" lon="0.66511">
        <ele>1259.96</ele>
        <time>2024-09-30T10:33:21.999Z</time>
      </trkpt>
      <trkpt lat="42.42809" lon="0.66499">
        <ele>1260.07</ele>
        <time>2024-09-30T10:33:27.999Z</time>
      </trkpt>
      <trkpt lat="42.4281" lon="0.66487">
        <ele>1260.21</ele>
        <time>2024-09-30T10:33:33.999Z</time>
      </trkpt>
      <trkpt lat="42.4281" lon="0.66474">
        <ele>1260.38</ele>
        <time>2024-09-30T10:33:39.999Z</time>
      </trkpt>
      <trkpt lat="42.4281" lon="0.66462">
        <ele>1260.57</ele>
        <time>2024-09-30T10:33:45.999Z</time>
      </trkpt>
      <trkpt lat="42.42811" lon="0.66448">
        <ele>1260.82</ele>
        <time>2024-09-30T10:33:52.999Z</time>
      </trkpt>
      <trkpt lat="42.42811" lon="0.66434">
        <ele>1261.07</ele>
        <time>2024-09-30T10:33:59.999Z</time>
      </trkpt>
      <trkpt lat="42.4281" lon="0.66421">
        <ele>1261.28</ele>
        <time>2024-09-30T10:34:05.999Z</time>
      </trkpt>
      <trkpt lat="42.42809" lon="0.66409">
        <ele>1261.5</ele>
        <time>2024-09-30T10:34:11.999Z</time>
      </trkpt>
      <trkpt lat="42.42807" lon="0.66397">
        <ele>1261.72</ele>
        <time>2024-09-30T10:34:17.999Z</time>
      </trkpt>
      <trkpt lat="42.42805" lon="0.66384">
        <ele>1261.95</ele>
        <time>2024-09-30T10:34:23.999Z</time>
      </trkpt>
      <trkpt lat="42.42804" lon="0.66371">
        <ele>1262.2</ele>
        <time>2024-09-30T10:34:29.999Z</time>
      </trkpt>
      <trkpt lat="42.42801" lon="0.6636">
        <ele>1262.46</ele>
        <time>2024-09-30T10:34:35.999Z</time>
      </trkpt>
      <trkpt lat="42.42799" lon="0.66348">
        <ele>1262.74</ele>
        <time>2024-09-30T10:34:41.999Z</time>
      </trkpt>
      <trkpt lat="42.42796" lon="0.66335">
        <ele>1263.05</ele>
        <time>2024-09-30T10:34:47.999Z</time>
      </trkpt>
      <trkpt lat="42.42793" lon="0.66321">
        <ele>1263.43</ele>
        <time>2024-09-30T10:34:54.999Z</time>
      </trkpt>
      <trkpt lat="42.4279" lon="0.66309">
        <ele>1263.78</ele>
        <time>2024-09-30T10:35:00.999Z</time>
      </trkpt>
      <trkpt lat="42.42788" lon="0.66296">
        <ele>1264.15</ele>
        <time>2024-09-30T10:35:06.999Z</time>
      </trkpt>
      <trkpt lat="42.42786" lon="0.66284">
        <ele>1264.52</ele>
        <time>2024-09-30T10:35:12.999Z</time>
      </trkpt>
      <trkpt lat="42.42784" lon="0.66271">
        <ele>1264.91</ele>
        <time>2024-09-30T10:35:18.999Z</time>
      </trkpt>
      <trkpt lat="42.42781" lon="0.66259">
        <ele>1265.31</ele>
        <time>2024-09-30T10:35:24.999Z</time>
      </trkpt>
      <trkpt lat="42.42779" lon="0.66247">
        <ele>1265.72</ele>
        <time>2024-09-30T10:35:30.999Z</time>
      </trkpt>
      <trkpt lat="42.42777" lon="0.66235">
        <ele>1266.13</ele>
        <time>2024-09-30T10:35:36.999Z</time>
      </trkpt>
      <trkpt lat="42.42775" lon="0.66223">
        <ele>1266.55</ele>
        <time>2024-09-30T10:35:42.999Z</time>
      </trkpt>
      <trkpt lat="42.42772" lon="0.66212">
        <ele>1266.96</ele>
        <time>2024-09-30T10:35:48.999Z</time>
      </trkpt>
      <trkpt lat="42.42771" lon="0.66199">
        <ele>1267.36</ele>
        <time>2024-09-30T10:35:54.999Z</time>
      </trkpt>
      <trkpt lat="42.42771" lon="0.66186">
        <ele>1267.79</ele>
        <time>2024-09-30T10:36:01.999Z</time>
      </trkpt>
      <trkpt lat="42.42771" lon="0.66173">
        <ele>1268.16</ele>
        <time>2024-09-30T10:36:07.999Z</time>
      </trkpt>
      <trkpt lat="42.42771" lon="0.66159">
        <ele>1268.59</ele>
        <time>2024-09-30T10:36:14.999Z</time>
      </trkpt>
      <trkpt lat="42.42772" lon="0.66146">
        <ele>1269.01</ele>
        <time>2024-09-30T10:36:21.999Z</time>
      </trkpt>
      <trkpt lat="42.42771" lon="0.66134">
        <ele>1269.37</ele>
        <time>2024-09-30T10:36:27.999Z</time>
      </trkpt>
      <trkpt lat="42.4277" lon="0.66119">
        <ele>1269.83</ele>
        <time>2024-09-30T10:36:34.999Z</time>
      </trkpt>
      <trkpt lat="42.42769" lon="0.66107">
        <ele>1270.26</ele>
        <time>2024-09-30T10:36:40.999Z</time>
      </trkpt>
      <trkpt lat="42.42769" lon="0.66094">
        <ele>1270.67</ele>
        <time>2024-09-30T10:36:46.999Z</time>
      </trkpt>
      <trkpt lat="42.42768" lon="0.6608">
        <ele>1271.06</ele>
        <time>2024-09-30T10:36:52.999Z</time>
      </trkpt>
      <trkpt lat="42.42767" lon="0.66066">
        <ele>1271.43</ele>
        <time>2024-09-30T10:36:58.999Z</time>
      </trkpt>
      <trkpt lat="42.42767" lon="0.66053">
        <ele>1271.8</ele>
        <time>2024-09-30T10:37:04.999Z</time>
      </trkpt>
      <trkpt lat="42.42766" lon="0.6604">
        <ele>1272.15</ele>
        <time>2024-09-30T10:37:10.999Z</time>
      </trkpt>
      <trkpt lat="42.42766" lon="0.66027">
        <ele>1272.55</ele>
        <time>2024-09-30T10:37:17.999Z</time>
      </trkpt>
      <trkpt lat="42.42765" lon="0.66015">
        <ele>1272.88</ele>
        <time>2024-09-30T10:37:23.999Z</time>
      </trkpt>
      <trkpt lat="42.42766" lon="0.66002">
        <ele>1273.26</ele>
        <time>2024-09-30T10:37:30.999Z</time>
      </trkpt>
      <trkpt lat="42.42766" lon="0.65989">
        <ele>1273.58</ele>
        <time>2024-09-30T10:37:36.999Z</time>
      </trkpt>
      <trkpt lat="42.42768" lon="0.65977">
        <ele>1273.91</ele>
        <time>2024-09-30T10:37:42.999Z</time>
      </trkpt>
      <trkpt lat="42.4277" lon="0.65964">
        <ele>1274.29</ele>
        <time>2024-09-30T10:37:49.999Z</time>
      </trkpt>
      <trkpt lat="42.4277" lon="0.6595">
        <ele>1274.61</ele>
        <time>2024-09-30T10:37:55.999Z</time>
      </trkpt>
      <trkpt lat="42.4277" lon="0.65936">
        <ele>1274.94</ele>
        <time>2024-09-30T10:38:01.999Z</time>
      </trkpt>
      <trkpt lat="42.42771" lon="0.65923">
        <ele>1275.29</ele>
        <time>2024-09-30T10:38:07.999Z</time>
      </trkpt>
      <trkpt lat="42.42771" lon="0.6591">
        <ele>1275.66</ele>
        <time>2024-09-30T10:38:13.999Z</time>
      </trkpt>
      <trkpt lat="42.42772" lon="0.65897">
        <ele>1276.07</ele>
        <time>2024-09-30T10:38:19.999Z</time>
      </trkpt>
      <trkpt lat="42.42773" lon="0.65884">
        <ele>1276.54</ele>
        <time>2024-09-30T10:38:25.999Z</time>
      </trkpt>
      <trkpt lat="42.42775" lon="0.65871">
        <ele>1277.05</ele>
        <time>2024-09-30T10:38:31.999Z</time>
      </trkpt>
      <trkpt lat="42.42776" lon="0.65857">
        <ele>1277.62</ele>
        <time>2024-09-30T10:38:37.999Z</time>
      </trkpt>
      <trkpt lat="42.42776" lon="0.65843">
        <ele>1278.26</ele>
        <time>2024-09-30T10:38:43.999Z</time>
      </trkpt>
      <trkpt lat="42.42774" lon="0.65831">
        <ele>1278.96</ele>
        <time>2024-09-30T10:38:49.999Z</time>
      </trkpt>
      <trkpt lat="42.42772" lon="0.65819">
        <ele>1279.76</ele>
        <time>2024-09-30T10:38:55.999Z</time>
      </trkpt>
      <trkpt lat="42.42769" lon="0.65807">
        <ele>1280.68</ele>
        <time>2024-09-30T10:39:01.999Z</time>
      </trkpt>
      <trkpt lat="42.42766" lon="0.65795">
        <ele>1281.72</ele>
        <time>2024-09-30T10:39:07.999Z</time>
      </trkpt>
      <trkpt lat="42.4276" lon="0.65785">
        <ele>1282.84</ele>
        <time>2024-09-30T10:39:13.999Z</time>
      </trkpt>
      <trkpt lat="42.42754" lon="0.65774">
        <ele>1284.22</ele>
        <time>2024-09-30T10:39:20.999Z</time>
      </trkpt>
      <trkpt lat="42.42746" lon="0.65767">
        <ele>1285.42</ele>
        <time>2024-09-30T10:39:26.999Z</time>
      </trkpt>
      <trkpt lat="42.42736" lon="0.65763">
        <ele>1286.62</ele>
        <time>2024-09-30T10:39:32.999Z</time>
      </trkpt>
      <trkpt lat="42.42726" lon="0.65761">
        <ele>1287.84</ele>
        <time>2024-09-30T10:39:38.999Z</time>
      </trkpt>
      <trkpt lat="42.42716" lon="0.65762">
        <ele>1289.08</ele>
        <time>2024-09-30T10:39:44.999Z</time>
      </trkpt>
      <trkpt lat="42.42706" lon="0.65764">
        <ele>1290.32</ele>
        <time>2024-09-30T10:39:50.999Z</time>
      </trkpt>
      <trkpt lat="42.42696" lon="0.65767">
        <ele>1291.55</ele>
        <time>2024-09-30T10:39:56.999Z</time>
      </trkpt>
      <trkpt lat="42.42687" lon="0.65771">
        <ele>1292.78</ele>
        <time>2024-09-30T10:40:02.999Z</time>
      </trkpt>
      <trkpt lat="42.42678" lon="0.65772">
        <ele>1294.16</ele>
        <time>2024-09-30T10:40:08.999Z</time>
      </trkpt>
      <trkpt lat="42.42668" lon="0.65772">
        <ele>1295.92</ele>
        <time>2024-09-30T10:40:15.999Z</time>
      </trkpt>
      <trkpt lat="42.42658" lon="0.65772">
        <ele>1297.66</ele>
        <time>2024-09-30T10:40:22.999Z</time>
      </trkpt>
      <trkpt lat="42.42649" lon="0.65772">
        <ele>1299.37</ele>
        <time>2024-09-30T10:40:29.999Z</time>
      </trkpt>
      <trkpt lat="42.42639" lon="0.65768">
        <ele>1301.04</ele>
        <time>2024-09-30T10:40:36.999Z</time>
      </trkpt>
      <trkpt lat="42.42629" lon="0.65765">
        <ele>1302.62</ele>
        <time>2024-09-30T10:40:43.999Z</time>
      </trkpt>
      <trkpt lat="42.4262" lon="0.6576">
        <ele>1304.11</ele>
        <time>2024-09-30T10:40:50.999Z</time>
      </trkpt>
      <trkpt lat="42.42611" lon="0.65757">
        <ele>1305.52</ele>
        <time>2024-09-30T10:40:57.999Z</time>
      </trkpt>
      <trkpt lat="42.42602" lon="0.65751">
        <ele>1306.86</ele>
        <time>2024-09-30T10:41:04.999Z</time>
      </trkpt>
      <trkpt lat="42.42593" lon="0.65745">
        <ele>1308.13</ele>
        <time>2024-09-30T10:41:11.999Z</time>
      </trkpt>
      <trkpt lat="42.42585" lon="0.65738">
        <ele>1309.35</ele>
        <time>2024-09-30T10:41:18.999Z</time>
      </trkpt>
      <trkpt lat="42.42577" lon="0.65729">
        <ele>1310.65</ele>
        <time>2024-09-30T10:41:26.999Z</time>
      </trkpt>
      <trkpt lat="42.42571" lon="0.65719">
        <ele>1311.72</ele>
        <time>2024-09-30T10:41:33.999Z</time>
      </trkpt>
      <trkpt lat="42.42564" lon="0.65709">
        <ele>1312.72</ele>
        <time>2024-09-30T10:41:40.999Z</time>
      </trkpt>
      <trkpt lat="42.42557" lon="0.657">
        <ele>1313.52</ele>
        <time>2024-09-30T10:41:46.999Z</time>
      </trkpt>
      <trkpt lat="42.42551" lon="0.6569">
        <ele>1314.38</ele>
        <time>2024-09-30T10:41:53.999Z</time>
      </trkpt>
      <trkpt lat="42.42545" lon="0.65681">
        <ele>1315.07</ele>
        <time>2024-09-30T10:41:59.999Z</time>
      </trkpt>
      <trkpt lat="42.42538" lon="0.65671">
        <ele>1315.83</ele>
        <time>2024-09-30T10:42:06.999Z</time>
      </trkpt>
      <trkpt lat="42.42531" lon="0.65662">
        <ele>1316.55</ele>
        <time>2024-09-30T10:42:13.999Z</time>
      </trkpt>
      <trkpt lat="42.42524" lon="0.65651">
        <ele>1317.26</ele>
        <time>2024-09-30T10:42:20.999Z</time>
      </trkpt>
      <trkpt lat="42.42519" lon="0.65642">
        <ele>1317.94</ele>
        <time>2024-09-30T10:42:27.999Z</time>
      </trkpt>
      <trkpt lat="42.42512" lon="0.65631">
        <ele>1318.6</ele>
        <time>2024-09-30T10:42:34.999Z</time>
      </trkpt>
      <trkpt lat="42.42506" lon="0.6562">
        <ele>1319.25</ele>
        <time>2024-09-30T10:42:41.999Z</time>
      </trkpt>
      <trkpt lat="42.425" lon="0.6561">
        <ele>1319.87</ele>
        <time>2024-09-30T10:42:48.999Z</time>
      </trkpt>
      <trkpt lat="42.42494" lon="0.656">
        <ele>1320.48</ele>
        <time>2024-09-30T10:42:55.999Z</time>
      </trkpt>
      <trkpt lat="42.42488" lon="0.65589">
        <ele>1321.07</ele>
        <time>2024-09-30T10:43:02.999Z</time>
      </trkpt>
      <trkpt lat="42.42484" lon="0.65577">
        <ele>1321.66</ele>
        <time>2024-09-30T10:43:09.999Z</time>
      </trkpt>
      <trkpt lat="42.42478" lon="0.65567">
        <ele>1322.26</ele>
        <time>2024-09-30T10:43:16.999Z</time>
      </trkpt>
      <trkpt lat="42.42473" lon="0.65555">
        <ele>1322.88</ele>
        <time>2024-09-30T10:43:23.999Z</time>
      </trkpt>
      <trkpt lat="42.42468" lon="0.65543">
        <ele>1323.52</ele>
        <time>2024-09-30T10:43:30.999Z</time>
      </trkpt>
      <trkpt lat="42.42462" lon="0.65533">
        <ele>1324.06</ele>
        <time>2024-09-30T10:43:36.999Z</time>
      </trkpt>
      <trkpt lat="42.42458" lon="0.65521">
        <ele>1324.64</ele>
        <time>2024-09-30T10:43:43.999Z</time>
      </trkpt>
      <trkpt lat="42.42452" lon="0.65511">
        <ele>1325.17</ele>
        <time>2024-09-30T10:43:50.999Z</time>
      </trkpt>
      <trkpt lat="42.42446" lon="0.655">
        <ele>1325.68</ele>
        <time>2024-09-30T10:43:57.999Z</time>
      </trkpt>
      <trkpt lat="42.42442" lon="0.65488">
        <ele>1326.18</ele>
        <time>2024-09-30T10:44:04.999Z</time>
      </trkpt>
      <trkpt lat="42.42437" lon="0.65477">
        <ele>1326.61</ele>
        <time>2024-09-30T10:44:11.000Z</time>
      </trkpt>
      <trkpt lat="42.42431" lon="0.65466">
        <ele>1327.11</ele>
        <time>2024-09-30T10:44:18.000Z</time>
      </trkpt>
      <trkpt lat="42.42427" lon="0.65454">
        <ele>1327.61</ele>
        <time>2024-09-30T10:44:25.000Z</time>
      </trkpt>
      <trkpt lat="42.42422" lon="0.65444">
        <ele>1328.11</ele>
        <time>2024-09-30T10:44:32.000Z</time>
      </trkpt>
      <trkpt lat="42.42417" lon="0.65432">
        <ele>1328.61</ele>
        <time>2024-09-30T10:44:39.000Z</time>
      </trkpt>
      <trkpt lat="42.42413" lon="0.65419">
        <ele>1329.12</ele>
        <time>2024-09-30T10:44:46.000Z</time>
      </trkpt>
      <trkpt lat="42.4241" lon="0.65406">
        <ele>1329.63</ele>
        <time>2024-09-30T10:44:53.000Z</time>
      </trkpt>
      <trkpt lat="42.42405" lon="0.65394">
        <ele>1330.15</ele>
        <time>2024-09-30T10:45:00.000Z</time>
      </trkpt>
      <trkpt lat="42.42403" lon="0.65382">
        <ele>1330.66</ele>
        <time>2024-09-30T10:45:07.000Z</time>
      </trkpt>
      <trkpt lat="42.424" lon="0.65369">
        <ele>1331.18</ele>
        <time>2024-09-30T10:45:14.000Z</time>
      </trkpt>
      <trkpt lat="42.42396" lon="0.65356">
        <ele>1331.7</ele>
        <time>2024-09-30T10:45:21.000Z</time>
      </trkpt>
      <trkpt lat="42.42393" lon="0.65343">
        <ele>1332.23</ele>
        <time>2024-09-30T10:45:28.000Z</time>
      </trkpt>
      <trkpt lat="42.42391" lon="0.65331">
        <ele>1332.77</ele>
        <time>2024-09-30T10:45:35.000Z</time>
      </trkpt>
      <trkpt lat="42.42388" lon="0.65318">
        <ele>1333.33</ele>
        <time>2024-09-30T10:45:42.000Z</time>
      </trkpt>
      <trkpt lat="42.42385" lon="0.65306">
        <ele>1333.84</ele>
        <time>2024-09-30T10:45:48.000Z</time>
      </trkpt>
      <trkpt lat="42.42383" lon="0.65294">
        <ele>1334.46</ele>
        <time>2024-09-30T10:45:55.000Z</time>
      </trkpt>
      <trkpt lat="42.42381" lon="0.6528">
        <ele>1335.12</ele>
        <time>2024-09-30T10:46:02.000Z</time>
      </trkpt>
      <trkpt lat="42.42379" lon="0.65268">
        <ele>1335.81</ele>
        <time>2024-09-30T10:46:09.000Z</time>
      </trkpt>
      <trkpt lat="42.42376" lon="0.65256">
        <ele>1336.53</ele>
        <time>2024-09-30T10:46:16.000Z</time>
      </trkpt>
      <trkpt lat="42.42373" lon="0.65244">
        <ele>1337.2</ele>
        <time>2024-09-30T10:46:22.000Z</time>
      </trkpt>
      <trkpt lat="42.4237" lon="0.65232">
        <ele>1338.01</ele>
        <time>2024-09-30T10:46:29.000Z</time>
      </trkpt>
      <trkpt lat="42.42366" lon="0.65219">
        <ele>1338.86</ele>
        <time>2024-09-30T10:46:36.000Z</time>
      </trkpt>
      <trkpt lat="42.42363" lon="0.65206">
        <ele>1339.75</ele>
        <time>2024-09-30T10:46:43.000Z</time>
      </trkpt>
      <trkpt lat="42.42361" lon="0.65194">
        <ele>1340.52</ele>
        <time>2024-09-30T10:46:49.000Z</time>
      </trkpt>
      <trkpt lat="42.42358" lon="0.65181">
        <ele>1341.46</ele>
        <time>2024-09-30T10:46:56.000Z</time>
      </trkpt>
      <trkpt lat="42.42356" lon="0.65168">
        <ele>1342.41</ele>
        <time>2024-09-30T10:47:03.000Z</time>
      </trkpt>
      <trkpt lat="42.42353" lon="0.65156">
        <ele>1343.23</ele>
        <time>2024-09-30T10:47:09.000Z</time>
      </trkpt>
      <trkpt lat="42.4235" lon="0.65143">
        <ele>1344.19</ele>
        <time>2024-09-30T10:47:16.000Z</time>
      </trkpt>
      <trkpt lat="42.42348" lon="0.6513">
        <ele>1345.15</ele>
        <time>2024-09-30T10:47:23.000Z</time>
      </trkpt>
      <trkpt lat="42.42345" lon="0.65117">
        <ele>1346.11</ele>
        <time>2024-09-30T10:47:30.000Z</time>
      </trkpt>
      <trkpt lat="42.42343" lon="0.65103">
        <ele>1347.06</ele>
        <time>2024-09-30T10:47:37.000Z</time>
      </trkpt>
      <trkpt lat="42.42343" lon="0.65089">
        <ele>1348.01</ele>
        <time>2024-09-30T10:47:44.000Z</time>
      </trkpt>
      <trkpt lat="42.42342" lon="0.65075">
        <ele>1349.25</ele>
        <time>2024-09-30T10:47:51.000Z</time>
      </trkpt>
      <trkpt lat="42.42341" lon="0.65063">
        <ele>1350.52</ele>
        <time>2024-09-30T10:47:57.000Z</time>
      </trkpt>
      <trkpt lat="42.4234" lon="0.6505">
        <ele>1352.4</ele>
        <time>2024-09-30T10:48:05.000Z</time>
      </trkpt>
      <trkpt lat="42.42339" lon="0.65037">
        <ele>1353.84</ele>
        <time>2024-09-30T10:48:11.000Z</time>
      </trkpt>
      <trkpt lat="42.42338" lon="0.65024">
        <ele>1355.47</ele>
        <time>2024-09-30T10:48:18.000Z</time>
      </trkpt>
      <trkpt lat="42.42336" lon="0.6501">
        <ele>1357.08</ele>
        <time>2024-09-30T10:48:25.000Z</time>
      </trkpt>
      <trkpt lat="42.42336" lon="0.64998">
        <ele>1358.44</ele>
        <time>2024-09-30T10:48:31.000Z</time>
      </trkpt>
      <trkpt lat="42.42335" lon="0.64982">
        <ele>1360.11</ele>
        <time>2024-09-30T10:48:39.000Z</time>
      </trkpt>
      <trkpt lat="42.42334" lon="0.64968">
        <ele>1361.59</ele>
        <time>2024-09-30T10:48:46.000Z</time>
      </trkpt>
      <trkpt lat="42.42333" lon="0.64955">
        <ele>1362.96</ele>
        <time>2024-09-30T10:48:53.000Z</time>
      </trkpt>
      <trkpt lat="42.42331" lon="0.64941">
        <ele>1364.25</ele>
        <time>2024-09-30T10:49:00.000Z</time>
      </trkpt>
      <trkpt lat="42.42332" lon="0.64929">
        <ele>1365.31</ele>
        <time>2024-09-30T10:49:06.000Z</time>
      </trkpt>
      <trkpt lat="42.42332" lon="0.64916">
        <ele>1366.49</ele>
        <time>2024-09-30T10:49:13.000Z</time>
      </trkpt>
      <trkpt lat="42.42334" lon="0.64903">
        <ele>1367.44</ele>
        <time>2024-09-30T10:49:19.000Z</time>
      </trkpt>
      <trkpt lat="42.42336" lon="0.64891">
        <ele>1368.36</ele>
        <time>2024-09-30T10:49:25.000Z</time>
      </trkpt>
      <trkpt lat="42.4234" lon="0.64878">
        <ele>1369.39</ele>
        <time>2024-09-30T10:49:32.000Z</time>
      </trkpt>
      <trkpt lat="42.42344" lon="0.64865">
        <ele>1370.38</ele>
        <time>2024-09-30T10:49:39.000Z</time>
      </trkpt>
      <trkpt lat="42.42349" lon="0.64853">
        <ele>1371.32</ele>
        <time>2024-09-30T10:49:46.000Z</time>
      </trkpt>
      <trkpt lat="42.42353" lon="0.64841">
        <ele>1372.09</ele>
        <time>2024-09-30T10:49:52.000Z</time>
      </trkpt>
      <trkpt lat="42.42358" lon="0.64829">
        <ele>1372.7</ele>
        <time>2024-09-30T10:49:57.000Z</time>
      </trkpt>
      <trkpt lat="42.42363" lon="0.64817">
        <ele>1373.4</ele>
        <time>2024-09-30T10:50:03.000Z</time>
      </trkpt>
      <trkpt lat="42.42367" lon="0.64805">
        <ele>1374.41</ele>
        <time>2024-09-30T10:50:18.000Z</time>
      </trkpt>
      <trkpt lat="42.42372" lon="0.6479">
        <ele>1374.95</ele>
        <time>2024-09-30T10:50:23.000Z</time>
      </trkpt>
      <trkpt lat="42.42379" lon="0.64773">
        <ele>1375.47</ele>
        <time>2024-09-30T10:50:28.000Z</time>
      </trkpt>
      <trkpt lat="42.42386" lon="0.64751">
        <ele>1375.97</ele>
        <time>2024-09-30T10:50:33.000Z</time>
      </trkpt>
      <trkpt lat="42.42395" lon="0.64729">
        <ele>1377.08</ele>
        <time>2024-09-30T10:50:38.000Z</time>
      </trkpt>
      <trkpt lat="42.42404" lon="0.64706">
        <ele>1379.82</ele>
        <time>2024-09-30T10:50:43.000Z</time>
      </trkpt>
      <trkpt lat="42.42414" lon="0.64681">
        <ele>1380.86</ele>
        <time>2024-09-30T10:50:48.000Z</time>
      </trkpt>
      <trkpt lat="42.42423" lon="0.64657">
        <ele>1381.29</ele>
        <time>2024-09-30T10:50:53.000Z</time>
      </trkpt>
      <trkpt lat="42.42432" lon="0.64632">
        <ele>1381.44</ele>
        <time>2024-09-30T10:50:58.000Z</time>
      </trkpt>
      <trkpt lat="42.42435" lon="0.64615">
        <ele>1381.45</ele>
        <time>2024-09-30T10:51:03.000Z</time>
      </trkpt>
      <trkpt lat="42.42435" lon="0.64602">
        <ele>1381.48</ele>
        <time>2024-09-30T10:51:18.000Z</time>
      </trkpt>
      <trkpt lat="42.42427" lon="0.64593">
        <ele>1381.48</ele>
        <time>2024-09-30T10:51:24.000Z</time>
      </trkpt>
      <trkpt lat="42.42421" lon="0.64583">
        <ele>1381.48</ele>
        <time>2024-09-30T10:51:30.000Z</time>
      </trkpt>
      <trkpt lat="42.42414" lon="0.64576">
        <ele>1381.65</ele>
        <time>2024-09-30T10:53:40.000Z</time>
      </trkpt>
      <trkpt lat="42.42406" lon="0.6457">
        <ele>1383.02</ele>
        <time>2024-09-30T10:58:40.999Z</time>
      </trkpt>
      <trkpt lat="42.42406" lon="0.64557">
        <ele>1383.36</ele>
        <time>2024-09-30T10:58:52.999Z</time>
      </trkpt>
      <trkpt lat="42.42409" lon="0.64546">
        <ele>1383.63</ele>
        <time>2024-09-30T10:59:04.999Z</time>
      </trkpt>
      <trkpt lat="42.42411" lon="0.64534">
        <ele>1384.11</ele>
        <time>2024-09-30T11:01:14.999Z</time>
      </trkpt>
      <trkpt lat="42.42407" lon="0.64523">
        <ele>1390.24</ele>
        <time>2024-09-30T11:27:13.999Z</time>
      </trkpt>
      <trkpt lat="42.42404" lon="0.64535">
        <ele>1390.61</ele>
        <time>2024-09-30T11:32:33.000Z</time>
      </trkpt>
      <trkpt lat="42.42395" lon="0.64536">
        <ele>1390.68</ele>
        <time>2024-09-30T11:32:53.000Z</time>
      </trkpt>
      <trkpt lat="42.42398" lon="0.64548">
        <ele>1387.48</ele>
        <time>2024-09-30T12:05:30.000Z</time>
      </trkpt>
      <trkpt lat="42.42404" lon="0.64558">
        <ele>1387.08</ele>
        <time>2024-09-30T12:05:42.000Z</time>
      </trkpt>
      <trkpt lat="42.42412" lon="0.64565">
        <ele>1386.72</ele>
        <time>2024-09-30T12:05:55.000Z</time>
      </trkpt>
      <trkpt lat="42.42419" lon="0.64573">
        <ele>1386.38</ele>
        <time>2024-09-30T12:06:09.000Z</time>
      </trkpt>
      <trkpt lat="42.4242" lon="0.64586">
        <ele>1386.23</ele>
        <time>2024-09-30T12:06:23.000Z</time>
      </trkpt>
      <trkpt lat="42.42424" lon="0.64597">
        <ele>1385.66</ele>
        <time>2024-09-30T12:12:43.999Z</time>
      </trkpt>
      <trkpt lat="42.42434" lon="0.64603">
        <ele>1385.61</ele>
        <time>2024-09-30T12:12:48.999Z</time>
      </trkpt>
      <trkpt lat="42.4244" lon="0.64592">
        <ele>1385.57</ele>
        <time>2024-09-30T12:12:53.999Z</time>
      </trkpt>
      <trkpt lat="42.42451" lon="0.64574">
        <ele>1385.53</ele>
        <time>2024-09-30T12:12:58.999Z</time>
      </trkpt>
      <trkpt lat="42.42465" lon="0.64547">
        <ele>1385.33</ele>
        <time>2024-09-30T12:13:03.999Z</time>
      </trkpt>
      <trkpt lat="42.4248" lon="0.64517">
        <ele>1385.22</ele>
        <time>2024-09-30T12:13:08.999Z</time>
      </trkpt>
      <trkpt lat="42.42497" lon="0.64482">
        <ele>1385.18</ele>
        <time>2024-09-30T12:13:13.999Z</time>
      </trkpt>
      <trkpt lat="42.42519" lon="0.64455">
        <ele>1385.15</ele>
        <time>2024-09-30T12:13:18.999Z</time>
      </trkpt>
      <trkpt lat="42.42551" lon="0.64453">
        <ele>1385.12</ele>
        <time>2024-09-30T12:13:23.999Z</time>
      </trkpt>
      <trkpt lat="42.42591" lon="0.64466">
        <ele>1385.09</ele>
        <time>2024-09-30T12:13:28.999Z</time>
      </trkpt>
      <trkpt lat="42.42636" lon="0.64506">
        <ele>1385.03</ele>
        <time>2024-09-30T12:13:33.999Z</time>
      </trkpt>
      <trkpt lat="42.42661" lon="0.64573">
        <ele>1384.79</ele>
        <time>2024-09-30T12:13:38.999Z</time>
      </trkpt>
      <trkpt lat="42.42659" lon="0.6465">
        <ele>1384.26</ele>
        <time>2024-09-30T12:13:43.999Z</time>
      </trkpt>
      <trkpt lat="42.42687" lon="0.64696">
        <ele>1383.44</ele>
        <time>2024-09-30T12:13:48.999Z</time>
      </trkpt>
      <trkpt lat="42.42731" lon="0.64698">
        <ele>1382.77</ele>
        <time>2024-09-30T12:13:53.999Z</time>
      </trkpt>
      <trkpt lat="42.42774" lon="0.64743">
        <ele>1381.61</ele>
        <time>2024-09-30T12:13:58.999Z</time>
      </trkpt>
      <trkpt lat="42.42822" lon="0.64764">
        <ele>1378.52</ele>
        <time>2024-09-30T12:14:03.999Z</time>
      </trkpt>
      <trkpt lat="42.42865" lon="0.64722">
        <ele>1374.57</ele>
        <time>2024-09-30T12:14:08.999Z</time>
      </trkpt>
      <trkpt lat="42.42918" lon="0.64711">
        <ele>1368.94</ele>
        <time>2024-09-30T12:14:13.999Z</time>
      </trkpt>
      <trkpt lat="42.42974" lon="0.64712">
        <ele>1363.63</ele>
        <time>2024-09-30T12:14:18.999Z</time>
      </trkpt>
      <trkpt lat="42.43033" lon="0.64726">
        <ele>1358.55</ele>
        <time>2024-09-30T12:14:23.999Z</time>
      </trkpt>
      <trkpt lat="42.43086" lon="0.64689">
        <ele>1354.18</ele>
        <time>2024-09-30T12:14:28.999Z</time>
      </trkpt>
      <trkpt lat="42.43133" lon="0.64648">
        <ele>1352.17</ele>
        <time>2024-09-30T12:14:33.999Z</time>
      </trkpt>
      <trkpt lat="42.43114" lon="0.64603">
        <ele>1348.91</ele>
        <time>2024-09-30T12:14:38.999Z</time>
      </trkpt>
      <trkpt lat="42.4308" lon="0.64647">
        <ele>1341.7</ele>
        <time>2024-09-30T12:14:43.999Z</time>
      </trkpt>
      <trkpt lat="42.43037" lon="0.64688">
        <ele>1335.17</ele>
        <time>2024-09-30T12:14:48.999Z</time>
      </trkpt>
      <trkpt lat="42.42979" lon="0.64671">
        <ele>1328.21</ele>
        <time>2024-09-30T12:14:53.999Z</time>
      </trkpt>
      <trkpt lat="42.4292" lon="0.64644">
        <ele>1323.43</ele>
        <time>2024-09-30T12:14:58.999Z</time>
      </trkpt>
      <trkpt lat="42.42868" lon="0.64603">
        <ele>1319.26</ele>
        <time>2024-09-30T12:15:03.999Z</time>
      </trkpt>
      <trkpt lat="42.4282" lon="0.64571">
        <ele>1314.51</ele>
        <time>2024-09-30T12:15:08.999Z</time>
      </trkpt>
      <trkpt lat="42.42796" lon="0.64504">
        <ele>1309.77</ele>
        <time>2024-09-30T12:15:13.999Z</time>
      </trkpt>
      <trkpt lat="42.4281" lon="0.64439">
        <ele>1304.91</ele>
        <time>2024-09-30T12:15:18.999Z</time>
      </trkpt>
      <trkpt lat="42.42812" lon="0.64371">
        <ele>1301.3</ele>
        <time>2024-09-30T12:15:23.999Z</time>
      </trkpt>
      <trkpt lat="42.42821" lon="0.64292">
        <ele>1297.93</ele>
        <time>2024-09-30T12:15:28.999Z</time>
      </trkpt>
      <trkpt lat="42.42818" lon="0.64214">
        <ele>1294.09</ele>
        <time>2024-09-30T12:15:33.999Z</time>
      </trkpt>
      <trkpt lat="42.42807" lon="0.64137">
        <ele>1290.45</ele>
        <time>2024-09-30T12:15:38.999Z</time>
      </trkpt>
      <trkpt lat="42.42786" lon="0.64064">
        <ele>1286.77</ele>
        <time>2024-09-30T12:15:43.999Z</time>
      </trkpt>
      <trkpt lat="42.42774" lon="0.63995">
        <ele>1283.03</ele>
        <time>2024-09-30T12:15:48.999Z</time>
      </trkpt>
      <trkpt lat="42.42792" lon="0.63935">
        <ele>1278.26</ele>
        <time>2024-09-30T12:15:53.999Z</time>
      </trkpt>
      <trkpt lat="42.42783" lon="0.63864">
        <ele>1273.54</ele>
        <time>2024-09-30T12:15:58.999Z</time>
      </trkpt>
      <trkpt lat="42.42782" lon="0.6379">
        <ele>1269.29</ele>
        <time>2024-09-30T12:16:03.999Z</time>
      </trkpt>
      <trkpt lat="42.42782" lon="0.63712">
        <ele>1266.06</ele>
        <time>2024-09-30T12:16:08.999Z</time>
      </trkpt>
      <trkpt lat="42.42779" lon="0.63634">
        <ele>1261.63</ele>
        <time>2024-09-30T12:16:13.999Z</time>
      </trkpt>
      <trkpt lat="42.42802" lon="0.63575">
        <ele>1256.22</ele>
        <time>2024-09-30T12:16:18.999Z</time>
      </trkpt>
      <trkpt lat="42.42841" lon="0.63538">
        <ele>1253.6</ele>
        <time>2024-09-30T12:16:23.999Z</time>
      </trkpt>
      <trkpt lat="42.42861" lon="0.63493">
        <ele>1250.56</ele>
        <time>2024-09-30T12:16:28.999Z</time>
      </trkpt>
      <trkpt lat="42.4285" lon="0.63445">
        <ele>1247</ele>
        <time>2024-09-30T12:16:33.999Z</time>
      </trkpt>
      <trkpt lat="42.42831" lon="0.63405">
        <ele>1243.45</ele>
        <time>2024-09-30T12:16:38.999Z</time>
      </trkpt>
      <trkpt lat="42.4281" lon="0.63365">
        <ele>1239.46</ele>
        <time>2024-09-30T12:16:43.999Z</time>
      </trkpt>
      <trkpt lat="42.42791" lon="0.63326">
        <ele>1236.38</ele>
        <time>2024-09-30T12:16:48.999Z</time>
      </trkpt>
      <trkpt lat="42.42776" lon="0.6328">
        <ele>1234.2</ele>
        <time>2024-09-30T12:16:53.999Z</time>
      </trkpt>
      <trkpt lat="42.42779" lon="0.63226">
        <ele>1233.26</ele>
        <time>2024-09-30T12:16:58.999Z</time>
      </trkpt>
      <trkpt lat="42.42798" lon="0.63179">
        <ele>1232.36</ele>
        <time>2024-09-30T12:17:03.999Z</time>
      </trkpt>
      <trkpt lat="42.4282" lon="0.63129">
        <ele>1231.84</ele>
        <time>2024-09-30T12:17:08.999Z</time>
      </trkpt>
      <trkpt lat="42.4284" lon="0.63083">
        <ele>1230.43</ele>
        <time>2024-09-30T12:17:13.999Z</time>
      </trkpt>
      <trkpt lat="42.42858" lon="0.63036">
        <ele>1227.25</ele>
        <time>2024-09-30T12:17:18.999Z</time>
      </trkpt>
      <trkpt lat="42.42869" lon="0.62988">
        <ele>1223.88</ele>
        <time>2024-09-30T12:17:23.999Z</time>
      </trkpt>
      <trkpt lat="42.42875" lon="0.62938">
        <ele>1220.52</ele>
        <time>2024-09-30T12:17:28.999Z</time>
      </trkpt>
      <trkpt lat="42.42877" lon="0.62884">
        <ele>1218.21</ele>
        <time>2024-09-30T12:17:33.999Z</time>
      </trkpt>
      <trkpt lat="42.42879" lon="0.62837">
        <ele>1216.13</ele>
        <time>2024-09-30T12:17:38.999Z</time>
      </trkpt>
      <trkpt lat="42.42879" lon="0.62783">
        <ele>1213.94</ele>
        <time>2024-09-30T12:17:43.999Z</time>
      </trkpt>
      <trkpt lat="42.42868" lon="0.62731">
        <ele>1212.99</ele>
        <time>2024-09-30T12:17:48.999Z</time>
      </trkpt>
      <trkpt lat="42.4285" lon="0.62689">
        <ele>1212.93</ele>
        <time>2024-09-30T12:17:53.999Z</time>
      </trkpt>
      <trkpt lat="42.42834" lon="0.62648">
        <ele>1210.49</ele>
        <time>2024-09-30T12:17:58.999Z</time>
      </trkpt>
      <trkpt lat="42.42816" lon="0.62607">
        <ele>1206.96</ele>
        <time>2024-09-30T12:18:03.999Z</time>
      </trkpt>
      <trkpt lat="42.42797" lon="0.62562">
        <ele>1204.82</ele>
        <time>2024-09-30T12:18:08.999Z</time>
      </trkpt>
      <trkpt lat="42.42794" lon="0.62509">
        <ele>1206.4</ele>
        <time>2024-09-30T12:18:13.999Z</time>
      </trkpt>
      <trkpt lat="42.42808" lon="0.62465">
        <ele>1212.63</ele>
        <time>2024-09-30T12:18:18.999Z</time>
      </trkpt>
      <trkpt lat="42.42827" lon="0.62428">
        <ele>1212.46</ele>
        <time>2024-09-30T12:18:23.999Z</time>
      </trkpt>
      <trkpt lat="42.42832" lon="0.62381">
        <ele>1210.61</ele>
        <time>2024-09-30T12:18:28.999Z</time>
      </trkpt>
      <trkpt lat="42.4282" lon="0.62326">
        <ele>1208.08</ele>
        <time>2024-09-30T12:18:33.999Z</time>
      </trkpt>
      <trkpt lat="42.42828" lon="0.62263">
        <ele>1204.91</ele>
        <time>2024-09-30T12:18:38.999Z</time>
      </trkpt>
      <trkpt lat="42.42821" lon="0.62195">
        <ele>1201.68</ele>
        <time>2024-09-30T12:18:43.999Z</time>
      </trkpt>
      <trkpt lat="42.42829" lon="0.62132">
        <ele>1198.66</ele>
        <time>2024-09-30T12:18:48.999Z</time>
      </trkpt>
      <trkpt lat="42.42868" lon="0.62093">
        <ele>1195.56</ele>
        <time>2024-09-30T12:18:53.999Z</time>
      </trkpt>
      <trkpt lat="42.4288" lon="0.62031">
        <ele>1193.03</ele>
        <time>2024-09-30T12:18:58.999Z</time>
      </trkpt>
      <trkpt lat="42.42881" lon="0.61967">
        <ele>1191.64</ele>
        <time>2024-09-30T12:19:03.999Z</time>
      </trkpt>
      <trkpt lat="42.42902" lon="0.61918">
        <ele>1189.16</ele>
        <time>2024-09-30T12:19:08.999Z</time>
      </trkpt>
      <trkpt lat="42.42919" lon="0.61878">
        <ele>1185.85</ele>
        <time>2024-09-30T12:19:13.999Z</time>
      </trkpt>
      <trkpt lat="42.4292" lon="0.61837">
        <ele>1184.46</ele>
        <time>2024-09-30T12:19:18.999Z</time>
      </trkpt>
      <trkpt lat="42.42902" lon="0.61797">
        <ele>1186.74</ele>
        <time>2024-09-30T12:19:23.999Z</time>
      </trkpt>
      <trkpt lat="42.42886" lon="0.61782">
        <ele>1189.81</ele>
        <time>2024-09-30T12:19:28.999Z</time>
      </trkpt>
      <trkpt lat="42.42877" lon="0.6178">
        <ele>1186.92</ele>
        <time>2024-09-30T12:21:52.000Z</time>
      </trkpt>
      <trkpt lat="42.4286" lon="0.61781">
        <ele>1184.25</ele>
        <time>2024-09-30T12:21:57.000Z</time>
      </trkpt>
      <trkpt lat="42.42835" lon="0.61774">
        <ele>1176.6</ele>
        <time>2024-09-30T12:22:02.000Z</time>
      </trkpt>
      <trkpt lat="42.42812" lon="0.61751">
        <ele>1173.25</ele>
        <time>2024-09-30T12:22:07.000Z</time>
      </trkpt>
      <trkpt lat="42.42797" lon="0.61712">
        <ele>1171.22</ele>
        <time>2024-09-30T12:22:12.000Z</time>
      </trkpt>
      <trkpt lat="42.42782" lon="0.61667">
        <ele>1169.24</ele>
        <time>2024-09-30T12:22:17.000Z</time>
      </trkpt>
      <trkpt lat="42.42748" lon="0.61642">
        <ele>1168.01</ele>
        <time>2024-09-30T12:22:22.000Z</time>
      </trkpt>
      <trkpt lat="42.42723" lon="0.61613">
        <ele>1167.96</ele>
        <time>2024-09-30T12:22:27.000Z</time>
      </trkpt>
      <trkpt lat="42.4271" lon="0.61587">
        <ele>1167.89</ele>
        <time>2024-09-30T12:22:32.000Z</time>
      </trkpt>
      <trkpt lat="42.42702" lon="0.61566">
        <ele>1167.94</ele>
        <time>2024-09-30T12:22:37.000Z</time>
      </trkpt>
      <trkpt lat="42.42695" lon="0.61549">
        <ele>1168.1</ele>
        <time>2024-09-30T12:22:42.000Z</time>
      </trkpt>
      <trkpt lat="42.42681" lon="0.61539">
        <ele>1168.31</ele>
        <time>2024-09-30T12:22:47.000Z</time>
      </trkpt>
      <trkpt lat="42.42664" lon="0.61532">
        <ele>1168.61</ele>
        <time>2024-09-30T12:22:52.000Z</time>
      </trkpt>
      <trkpt lat="42.42649" lon="0.61526">
        <ele>1169</ele>
        <time>2024-09-30T12:22:57.000Z</time>
      </trkpt>
      <trkpt lat="42.42635" lon="0.61519">
        <ele>1169.47</ele>
        <time>2024-09-30T12:23:02.000Z</time>
      </trkpt>
      <trkpt lat="42.4262" lon="0.61513">
        <ele>1169.99</ele>
        <time>2024-09-30T12:23:07.000Z</time>
      </trkpt>
      <trkpt lat="42.42606" lon="0.61507">
        <ele>1170.47</ele>
        <time>2024-09-30T12:23:12.000Z</time>
      </trkpt>
      <trkpt lat="42.42594" lon="0.61499">
        <ele>1170.92</ele>
        <time>2024-09-30T12:23:17.000Z</time>
      </trkpt>
      <trkpt lat="42.42582" lon="0.61492">
        <ele>1171.23</ele>
        <time>2024-09-30T12:23:22.000Z</time>
      </trkpt>
      <trkpt lat="42.42568" lon="0.61485">
        <ele>1171.32</ele>
        <time>2024-09-30T12:23:27.000Z</time>
      </trkpt>
      <trkpt lat="42.42554" lon="0.61476">
        <ele>1171.38</ele>
        <time>2024-09-30T12:23:32.000Z</time>
      </trkpt>
      <trkpt lat="42.42543" lon="0.61452">
        <ele>1171.43</ele>
        <time>2024-09-30T12:23:37.000Z</time>
      </trkpt>
      <trkpt lat="42.42527" lon="0.61437">
        <ele>1171.42</ele>
        <time>2024-09-30T12:23:42.000Z</time>
      </trkpt>
      <trkpt lat="42.42505" lon="0.61434">
        <ele>1169.96</ele>
        <time>2024-09-30T12:23:47.000Z</time>
      </trkpt>
      <trkpt lat="42.42479" lon="0.6143">
        <ele>1169.2</ele>
        <time>2024-09-30T12:23:52.000Z</time>
      </trkpt>
      <trkpt lat="42.42452" lon="0.61431">
        <ele>1168.56</ele>
        <time>2024-09-30T12:23:57.000Z</time>
      </trkpt>
      <trkpt lat="42.42425" lon="0.61433">
        <ele>1168.72</ele>
        <time>2024-09-30T12:24:02.000Z</time>
      </trkpt>
      <trkpt lat="42.42399" lon="0.61449">
        <ele>1168.7</ele>
        <time>2024-09-30T12:24:07.000Z</time>
      </trkpt>
      <trkpt lat="42.42362" lon="0.61476">
        <ele>1168.01</ele>
        <time>2024-09-30T12:24:12.000Z</time>
      </trkpt>
      <trkpt lat="42.42323" lon="0.61508">
        <ele>1167.7</ele>
        <time>2024-09-30T12:24:17.000Z</time>
      </trkpt>
      <trkpt lat="42.42279" lon="0.61523">
        <ele>1167.69</ele>
        <time>2024-09-30T12:24:22.000Z</time>
      </trkpt>
      <trkpt lat="42.42239" lon="0.61532">
        <ele>1167.75</ele>
        <time>2024-09-30T12:24:27.000Z</time>
      </trkpt>
      <trkpt lat="42.42208" lon="0.61529">
        <ele>1168.31</ele>
        <time>2024-09-30T12:24:32.000Z</time>
      </trkpt>
      <trkpt lat="42.4218" lon="0.61527">
        <ele>1169.15</ele>
        <time>2024-09-30T12:24:37.000Z</time>
      </trkpt>
      <trkpt lat="42.4215" lon="0.61523">
        <ele>1169.61</ele>
        <time>2024-09-30T12:24:42.000Z</time>
      </trkpt>
      <trkpt lat="42.42122" lon="0.615">
        <ele>1171.03</ele>
        <time>2024-09-30T12:24:47.000Z</time>
      </trkpt>
      <trkpt lat="42.42098" lon="0.61469">
        <ele>1172.28</ele>
        <time>2024-09-30T12:24:52.000Z</time>
      </trkpt>
      <trkpt lat="42.42067" lon="0.6144">
        <ele>1172.18</ele>
        <time>2024-09-30T12:24:57.000Z</time>
      </trkpt>
      <trkpt lat="42.42031" lon="0.61409">
        <ele>1171.05</ele>
        <time>2024-09-30T12:25:02.000Z</time>
      </trkpt>
      <trkpt lat="42.41985" lon="0.614">
        <ele>1168.84</ele>
        <time>2024-09-30T12:25:07.000Z</time>
      </trkpt>
      <trkpt lat="42.41936" lon="0.61395">
        <ele>1165.94</ele>
        <time>2024-09-30T12:25:12.000Z</time>
      </trkpt>
      <trkpt lat="42.41889" lon="0.61387">
        <ele>1163.12</ele>
        <time>2024-09-30T12:25:17.000Z</time>
      </trkpt>
      <trkpt lat="42.41842" lon="0.61367">
        <ele>1160.37</ele>
        <time>2024-09-30T12:25:22.000Z</time>
      </trkpt>
      <trkpt lat="42.41797" lon="0.61356">
        <ele>1158.23</ele>
        <time>2024-09-30T12:25:27.000Z</time>
      </trkpt>
      <trkpt lat="42.41764" lon="0.61316">
        <ele>1156.33</ele>
        <time>2024-09-30T12:25:32.000Z</time>
      </trkpt>
      <trkpt lat="42.41739" lon="0.61278">
        <ele>1155.56</ele>
        <time>2024-09-30T12:25:37.000Z</time>
      </trkpt>
      <trkpt lat="42.41708" lon="0.61258">
        <ele>1154.89</ele>
        <time>2024-09-30T12:25:42.000Z</time>
      </trkpt>
      <trkpt lat="42.41675" lon="0.61258">
        <ele>1154.2</ele>
        <time>2024-09-30T12:25:47.000Z</time>
      </trkpt>
      <trkpt lat="42.41645" lon="0.6126">
        <ele>1153.12</ele>
        <time>2024-09-30T12:25:52.000Z</time>
      </trkpt>
      <trkpt lat="42.41615" lon="0.6126">
        <ele>1151.79</ele>
        <time>2024-09-30T12:25:57.000Z</time>
      </trkpt>
      <trkpt lat="42.41585" lon="0.61255">
        <ele>1150.48</ele>
        <time>2024-09-30T12:26:02.000Z</time>
      </trkpt>
      <trkpt lat="42.41553" lon="0.61245">
        <ele>1149.01</ele>
        <time>2024-09-30T12:26:07.000Z</time>
      </trkpt>
      <trkpt lat="42.41523" lon="0.61217">
        <ele>1147.99</ele>
        <time>2024-09-30T12:26:12.000Z</time>
      </trkpt>
      <trkpt lat="42.41494" lon="0.61193">
        <ele>1147.15</ele>
        <time>2024-09-30T12:26:17.000Z</time>
      </trkpt>
      <trkpt lat="42.41461" lon="0.61173">
        <ele>1145.42</ele>
        <time>2024-09-30T12:26:22.000Z</time>
      </trkpt>
      <trkpt lat="42.41428" lon="0.61148">
        <ele>1142.71</ele>
        <time>2024-09-30T12:26:27.000Z</time>
      </trkpt>
      <trkpt lat="42.41396" lon="0.61117">
        <ele>1139.85</ele>
        <time>2024-09-30T12:26:32.000Z</time>
      </trkpt>
      <trkpt lat="42.4137" lon="0.61077">
        <ele>1137.45</ele>
        <time>2024-09-30T12:26:37.000Z</time>
      </trkpt>
      <trkpt lat="42.41342" lon="0.61038">
        <ele>1135.19</ele>
        <time>2024-09-30T12:26:42.000Z</time>
      </trkpt>
      <trkpt lat="42.41303" lon="0.61015">
        <ele>1132.25</ele>
        <time>2024-09-30T12:26:47.000Z</time>
      </trkpt>
      <trkpt lat="42.41257" lon="0.61017">
        <ele>1131.39</ele>
        <time>2024-09-30T12:26:52.000Z</time>
      </trkpt>
      <trkpt lat="42.41214" lon="0.61003">
        <ele>1129.48</ele>
        <time>2024-09-30T12:26:57.000Z</time>
      </trkpt>
      <trkpt lat="42.41179" lon="0.60975">
        <ele>1127.03</ele>
        <time>2024-09-30T12:27:02.000Z</time>
      </trkpt>
      <trkpt lat="42.4115" lon="0.60933">
        <ele>1127.48</ele>
        <time>2024-09-30T12:27:07.000Z</time>
      </trkpt>
      <trkpt lat="42.41116" lon="0.60908">
        <ele>1127.86</ele>
        <time>2024-09-30T12:27:12.000Z</time>
      </trkpt>
      <trkpt lat="42.41089" lon="0.60874">
        <ele>1126.9</ele>
        <time>2024-09-30T12:27:17.000Z</time>
      </trkpt>
      <trkpt lat="42.41065" lon="0.60834">
        <ele>1124.66</ele>
        <time>2024-09-30T12:27:22.000Z</time>
      </trkpt>
      <trkpt lat="42.41033" lon="0.60808">
        <ele>1122.23</ele>
        <time>2024-09-30T12:27:27.000Z</time>
      </trkpt>
      <trkpt lat="42.40998" lon="0.60785">
        <ele>1120.94</ele>
        <time>2024-09-30T12:27:32.000Z</time>
      </trkpt>
      <trkpt lat="42.40957" lon="0.60774">
        <ele>1119.56</ele>
        <time>2024-09-30T12:27:37.000Z</time>
      </trkpt>
      <trkpt lat="42.40912" lon="0.60763">
        <ele>1118.94</ele>
        <time>2024-09-30T12:27:42.000Z</time>
      </trkpt>
      <trkpt lat="42.40877" lon="0.60719">
        <ele>1117.59</ele>
        <time>2024-09-30T12:27:47.000Z</time>
      </trkpt>
      <trkpt lat="42.40849" lon="0.60678">
        <ele>1115.36</ele>
        <time>2024-09-30T12:27:52.000Z</time>
      </trkpt>
      <trkpt lat="42.40825" lon="0.60643">
        <ele>1112.48</ele>
        <time>2024-09-30T12:27:57.000Z</time>
      </trkpt>
      <trkpt lat="42.40803" lon="0.60603">
        <ele>1109.61</ele>
        <time>2024-09-30T12:28:02.000Z</time>
      </trkpt>
      <trkpt lat="42.40788" lon="0.60564">
        <ele>1106.67</ele>
        <time>2024-09-30T12:28:07.000Z</time>
      </trkpt>
      <trkpt lat="42.40771" lon="0.60532">
        <ele>1104.54</ele>
        <time>2024-09-30T12:28:12.000Z</time>
      </trkpt>
      <trkpt lat="42.40753" lon="0.60504">
        <ele>1102.01</ele>
        <time>2024-09-30T12:28:17.000Z</time>
      </trkpt>
      <trkpt lat="42.40737" lon="0.60479">
        <ele>1101.21</ele>
        <time>2024-09-30T12:28:22.000Z</time>
      </trkpt>
      <trkpt lat="42.40718" lon="0.60455">
        <ele>1105.01</ele>
        <time>2024-09-30T12:28:27.000Z</time>
      </trkpt>
      <trkpt lat="42.40704" lon="0.60435">
        <ele>1107.83</ele>
        <time>2024-09-30T12:28:32.000Z</time>
      </trkpt>
      <trkpt lat="42.40689" lon="0.60415">
        <ele>1108.28</ele>
        <time>2024-09-30T12:28:37.000Z</time>
      </trkpt>
      <trkpt lat="42.40673" lon="0.60396">
        <ele>1107.59</ele>
        <time>2024-09-30T12:28:42.000Z</time>
      </trkpt>
      <trkpt lat="42.40658" lon="0.60383">
        <ele>1107.23</ele>
        <time>2024-09-30T12:28:47.000Z</time>
      </trkpt>
      <trkpt lat="42.40644" lon="0.60372">
        <ele>1106.84</ele>
        <time>2024-09-30T12:28:52.000Z</time>
      </trkpt>
      <trkpt lat="42.40624" lon="0.60353">
        <ele>1103.44</ele>
        <time>2024-09-30T12:28:57.000Z</time>
      </trkpt>
      <trkpt lat="42.40607" lon="0.60312">
        <ele>1102.08</ele>
        <time>2024-09-30T12:29:04.000Z</time>
      </trkpt>
      <trkpt lat="42.40574" lon="0.60266">
        <ele>1101.64</ele>
        <time>2024-09-30T12:29:09.000Z</time>
      </trkpt>
      <trkpt lat="42.40542" lon="0.60221">
        <ele>1101.46</ele>
        <time>2024-09-30T12:29:14.000Z</time>
      </trkpt>
      <trkpt lat="42.40523" lon="0.6019">
        <ele>1101.42</ele>
        <time>2024-09-30T12:29:19.000Z</time>
      </trkpt>
      <trkpt lat="42.40517" lon="0.60179">
        <ele>1101.52</ele>
        <time>2024-09-30T12:29:30.000Z</time>
      </trkpt>
      <trkpt lat="42.40511" lon="0.6016">
        <ele>1101.89</ele>
        <time>2024-09-30T12:29:35.000Z</time>
      </trkpt>
      <trkpt lat="42.40509" lon="0.60147">
        <ele>1104.43</ele>
        <time>2024-09-30T12:29:40.000Z</time>
      </trkpt>
      <trkpt lat="42.40495" lon="0.60077">
        <ele>1110.08</ele>
        <time>2024-09-30T12:29:51.000Z</time>
      </trkpt>
      <trkpt lat="42.40292" lon="0.59981">
        <ele>1110.86</ele>
        <time>2024-09-30T12:30:13.000Z</time>
      </trkpt>
      <trkpt lat="42.40287" lon="0.59971">
        <ele>1109.53</ele>
        <time>2024-09-30T12:30:18.000Z</time>
      </trkpt>
      <trkpt lat="42.40282" lon="0.59955">
        <ele>1111.02</ele>
        <time>2024-09-30T12:30:54.000Z</time>
      </trkpt>
      <trkpt lat="42.40273" lon="0.59938">
        <ele>1112.21</ele>
        <time>2024-09-30T12:30:59.000Z</time>
      </trkpt>
      <trkpt lat="42.40266" lon="0.59921">
        <ele>1113.28</ele>
        <time>2024-09-30T12:31:04.000Z</time>
      </trkpt>
      <trkpt lat="42.40188" lon="0.59842">
        <ele>1122.77</ele>
        <time>2024-09-30T12:31:20.000Z</time>
      </trkpt>
      <trkpt lat="42.4015" lon="0.59891">
        <ele>1110.27</ele>
        <time>2024-09-30T12:31:25.000Z</time>
      </trkpt>
      <trkpt lat="42.40108" lon="0.59972">
        <ele>1108.64</ele>
        <time>2024-09-30T12:31:30.000Z</time>
      </trkpt>
      <trkpt lat="42.40067" lon="0.59961">
        <ele>1088.59</ele>
        <time>2024-09-30T12:31:35.000Z</time>
      </trkpt>
      <trkpt lat="42.40043" lon="0.59929">
        <ele>1077.3</ele>
        <time>2024-09-30T12:31:40.000Z</time>
      </trkpt>
      <trkpt lat="42.40033" lon="0.59925">
        <ele>1073.38</ele>
        <time>2024-09-30T12:33:41.999Z</time>
      </trkpt>
      <trkpt lat="42.40014" lon="0.59913">
        <ele>1068.96</ele>
        <time>2024-09-30T12:33:46.999Z</time>
      </trkpt>
      <trkpt lat="42.39917" lon="0.59848">
        <ele>1055.86</ele>
        <time>2024-09-30T12:34:08.999Z</time>
      </trkpt>
      <trkpt lat="42.39891" lon="0.59736">
        <ele>1035.31</ele>
        <time>2024-09-30T12:34:13.999Z</time>
      </trkpt>
      <trkpt lat="42.39873" lon="0.59684">
        <ele>1040.26</ele>
        <time>2024-09-30T12:34:18.999Z</time>
      </trkpt>
      <trkpt lat="42.39851" lon="0.59642">
        <ele>1042.98</ele>
        <time>2024-09-30T12:34:23.999Z</time>
      </trkpt>
      <trkpt lat="42.39821" lon="0.59615">
        <ele>1044.26</ele>
        <time>2024-09-30T12:34:28.999Z</time>
      </trkpt>
      <trkpt lat="42.39787" lon="0.59602">
        <ele>1044.53</ele>
        <time>2024-09-30T12:34:33.999Z</time>
      </trkpt>
      <trkpt lat="42.39752" lon="0.59602">
        <ele>1044.11</ele>
        <time>2024-09-30T12:34:38.999Z</time>
      </trkpt>
      <trkpt lat="42.39727" lon="0.5961">
        <ele>1043.48</ele>
        <time>2024-09-30T12:34:43.999Z</time>
      </trkpt>
      <trkpt lat="42.39723" lon="0.59622">
        <ele>1042.85</ele>
        <time>2024-09-30T12:36:09.999Z</time>
      </trkpt>
      <trkpt lat="42.39713" lon="0.59615">
        <ele>1042.58</ele>
        <time>2024-09-30T12:36:14.999Z</time>
      </trkpt>
      <trkpt lat="42.397" lon="0.59617">
        <ele>1042.33</ele>
        <time>2024-09-30T12:36:19.999Z</time>
      </trkpt>
      <trkpt lat="42.39683" lon="0.59627">
        <ele>1041.44</ele>
        <time>2024-09-30T12:36:24.999Z</time>
      </trkpt>
      <trkpt lat="42.39665" lon="0.59642">
        <ele>1040.21</ele>
        <time>2024-09-30T12:36:29.999Z</time>
      </trkpt>
      <trkpt lat="42.39648" lon="0.5967">
        <ele>1039.6</ele>
        <time>2024-09-30T12:36:34.999Z</time>
      </trkpt>
      <trkpt lat="42.3963" lon="0.59697">
        <ele>1039.12</ele>
        <time>2024-09-30T12:36:39.999Z</time>
      </trkpt>
      <trkpt lat="42.39607" lon="0.59713">
        <ele>1038.77</ele>
        <time>2024-09-30T12:36:44.999Z</time>
      </trkpt>
      <trkpt lat="42.39579" lon="0.59715">
        <ele>1038.32</ele>
        <time>2024-09-30T12:36:49.999Z</time>
      </trkpt>
      <trkpt lat="42.39551" lon="0.597">
        <ele>1037.68</ele>
        <time>2024-09-30T12:36:54.999Z</time>
      </trkpt>
      <trkpt lat="42.39528" lon="0.59671">
        <ele>1037.25</ele>
        <time>2024-09-30T12:36:59.999Z</time>
      </trkpt>
      <trkpt lat="42.3951" lon="0.59644">
        <ele>1036.95</ele>
        <time>2024-09-30T12:37:04.999Z</time>
      </trkpt>
      <trkpt lat="42.3949" lon="0.59622">
        <ele>1036.56</ele>
        <time>2024-09-30T12:37:09.999Z</time>
      </trkpt>
      <trkpt lat="42.39475" lon="0.5961">
        <ele>1036.43</ele>
        <time>2024-09-30T12:37:14.999Z</time>
      </trkpt>
      <trkpt lat="42.3947" lon="0.59624">
        <ele>1036.37</ele>
        <time>2024-09-30T12:37:28.999Z</time>
      </trkpt>
      <trkpt lat="42.39463" lon="0.59642">
        <ele>1036.28</ele>
        <time>2024-09-30T12:37:33.999Z</time>
      </trkpt>
      <trkpt lat="42.39459" lon="0.59653">
        <ele>1036.15</ele>
        <time>2024-09-30T12:37:38.999Z</time>
      </trkpt>
      <trkpt lat="42.39467" lon="0.59646">
        <ele>1035.68</ele>
        <time>2024-09-30T12:37:53.999Z</time>
      </trkpt>
      <trkpt lat="42.39472" lon="0.59634">
        <ele>1035.5</ele>
        <time>2024-09-30T12:37:58.999Z</time>
      </trkpt>
      <trkpt lat="42.39471" lon="0.59621">
        <ele>1035.33</ele>
        <time>2024-09-30T12:38:03.999Z</time>
      </trkpt>
      <trkpt lat="42.39464" lon="0.59613">
        <ele>1035.16</ele>
        <time>2024-09-30T12:38:08.999Z</time>
      </trkpt>
      <trkpt lat="42.39452" lon="0.596">
        <ele>1034.99</ele>
        <time>2024-09-30T12:38:13.999Z</time>
      </trkpt>
      <trkpt lat="42.39436" lon="0.59596">
        <ele>1034.81</ele>
        <time>2024-09-30T12:38:18.999Z</time>
      </trkpt>
      <trkpt lat="42.39419" lon="0.59598">
        <ele>1033.95</ele>
        <time>2024-09-30T12:38:23.999Z</time>
      </trkpt>
      <trkpt lat="42.39398" lon="0.59603">
        <ele>1033.24</ele>
        <time>2024-09-30T12:38:28.999Z</time>
      </trkpt>
      <trkpt lat="42.39378" lon="0.59616">
        <ele>1032.93</ele>
        <time>2024-09-30T12:38:33.999Z</time>
      </trkpt>
      <trkpt lat="42.39358" lon="0.59629">
        <ele>1032.69</ele>
        <time>2024-09-30T12:38:38.999Z</time>
      </trkpt>
      <trkpt lat="42.39335" lon="0.59644">
        <ele>1032.45</ele>
        <time>2024-09-30T12:38:43.999Z</time>
      </trkpt>
      <trkpt lat="42.39313" lon="0.59661">
        <ele>1032.39</ele>
        <time>2024-09-30T12:38:48.999Z</time>
      </trkpt>
      <trkpt lat="42.39289" lon="0.59676">
        <ele>1032.37</ele>
        <time>2024-09-30T12:38:53.999Z</time>
      </trkpt>
      <trkpt lat="42.39263" lon="0.59689">
        <ele>1032.32</ele>
        <time>2024-09-30T12:38:58.999Z</time>
      </trkpt>
      <trkpt lat="42.39236" lon="0.59696">
        <ele>1032.15</ele>
        <time>2024-09-30T12:39:03.999Z</time>
      </trkpt>
      <trkpt lat="42.39207" lon="0.59698">
        <ele>1031.96</ele>
        <time>2024-09-30T12:39:08.999Z</time>
      </trkpt>
      <trkpt lat="42.39177" lon="0.59696">
        <ele>1031.75</ele>
        <time>2024-09-30T12:39:13.999Z</time>
      </trkpt>
      <trkpt lat="42.39144" lon="0.59689">
        <ele>1031.43</ele>
        <time>2024-09-30T12:39:18.999Z</time>
      </trkpt>
      <trkpt lat="42.39111" lon="0.59682">
        <ele>1030.92</ele>
        <time>2024-09-30T12:39:23.999Z</time>
      </trkpt>
      <trkpt lat="42.39078" lon="0.59677">
        <ele>1030.52</ele>
        <time>2024-09-30T12:39:28.999Z</time>
      </trkpt>
      <trkpt lat="42.39048" lon="0.59672">
        <ele>1030.07</ele>
        <time>2024-09-30T12:39:33.999Z</time>
      </trkpt>
      <trkpt lat="42.39018" lon="0.59673">
        <ele>1029.4</ele>
        <time>2024-09-30T12:39:38.999Z</time>
      </trkpt>
      <trkpt lat="42.38989" lon="0.5968">
        <ele>1028.73</ele>
        <time>2024-09-30T12:39:43.999Z</time>
      </trkpt>
      <trkpt lat="42.3896" lon="0.59692">
        <ele>1028.12</ele>
        <time>2024-09-30T12:39:48.999Z</time>
      </trkpt>
      <trkpt lat="42.38933" lon="0.59709">
        <ele>1027.56</ele>
        <time>2024-09-30T12:39:53.999Z</time>
      </trkpt>
      <trkpt lat="42.38906" lon="0.59728">
        <ele>1026.97</ele>
        <time>2024-09-30T12:39:58.999Z</time>
      </trkpt>
      <trkpt lat="42.3888" lon="0.59746">
        <ele>1026.77</ele>
        <time>2024-09-30T12:40:03.999Z</time>
      </trkpt>
      <trkpt lat="42.38855" lon="0.59761">
        <ele>1026.9</ele>
        <time>2024-09-30T12:40:08.999Z</time>
      </trkpt>
      <trkpt lat="42.38833" lon="0.59777">
        <ele>1026.88</ele>
        <time>2024-09-30T12:40:13.999Z</time>
      </trkpt>
      <trkpt lat="42.38811" lon="0.59793">
        <ele>1026.78</ele>
        <time>2024-09-30T12:40:18.999Z</time>
      </trkpt>
      <trkpt lat="42.38789" lon="0.59808">
        <ele>1026.78</ele>
        <time>2024-09-30T12:40:23.999Z</time>
      </trkpt>
      <trkpt lat="42.38768" lon="0.59823">
        <ele>1026.89</ele>
        <time>2024-09-30T12:40:28.999Z</time>
      </trkpt>
      <trkpt lat="42.38746" lon="0.59838">
        <ele>1026.92</ele>
        <time>2024-09-30T12:40:33.999Z</time>
      </trkpt>
      <trkpt lat="42.38724" lon="0.59854">
        <ele>1026.5</ele>
        <time>2024-09-30T12:40:38.999Z</time>
      </trkpt>
      <trkpt lat="42.38699" lon="0.59867">
        <ele>1025.92</ele>
        <time>2024-09-30T12:40:43.999Z</time>
      </trkpt>
      <trkpt lat="42.38669" lon="0.59871">
        <ele>1025.33</ele>
        <time>2024-09-30T12:40:48.999Z</time>
      </trkpt>
      <trkpt lat="42.38637" lon="0.59867">
        <ele>1024.54</ele>
        <time>2024-09-30T12:40:53.999Z</time>
      </trkpt>
      <trkpt lat="42.38603" lon="0.59861">
        <ele>1023.65</ele>
        <time>2024-09-30T12:40:58.999Z</time>
      </trkpt>
      <trkpt lat="42.38569" lon="0.59855">
        <ele>1022.54</ele>
        <time>2024-09-30T12:41:03.999Z</time>
      </trkpt>
      <trkpt lat="42.38536" lon="0.5985">
        <ele>1021.54</ele>
        <time>2024-09-30T12:41:08.999Z</time>
      </trkpt>
      <trkpt lat="42.38504" lon="0.59844">
        <ele>1020.61</ele>
        <time>2024-09-30T12:41:13.999Z</time>
      </trkpt>
      <trkpt lat="42.3847" lon="0.59838">
        <ele>1019.96</ele>
        <time>2024-09-30T12:41:18.999Z</time>
      </trkpt>
      <trkpt lat="42.38436" lon="0.59832">
        <ele>1018.97</ele>
        <time>2024-09-30T12:41:23.999Z</time>
      </trkpt>
      <trkpt lat="42.38403" lon="0.59826">
        <ele>1017.85</ele>
        <time>2024-09-30T12:41:28.999Z</time>
      </trkpt>
      <trkpt lat="42.38368" lon="0.59818">
        <ele>1016.46</ele>
        <time>2024-09-30T12:41:33.999Z</time>
      </trkpt>
      <trkpt lat="42.3833" lon="0.59811">
        <ele>1015.11</ele>
        <time>2024-09-30T12:41:38.999Z</time>
      </trkpt>
      <trkpt lat="42.38286" lon="0.59803">
        <ele>1013.56</ele>
        <time>2024-09-30T12:41:43.999Z</time>
      </trkpt>
      <trkpt lat="42.38251" lon="0.598">
        <ele>1012.16</ele>
        <time>2024-09-30T12:41:48.999Z</time>
      </trkpt>
      <trkpt lat="42.38239" lon="0.59791">
        <ele>1011.93</ele>
        <time>2024-09-30T12:41:53.999Z</time>
      </trkpt>
      <trkpt lat="42.3823" lon="0.59766">
        <ele>1010.41</ele>
        <time>2024-09-30T12:41:58.999Z</time>
      </trkpt>
      <trkpt lat="42.38218" lon="0.59754">
        <ele>1010.04</ele>
        <time>2024-09-30T12:42:03.999Z</time>
      </trkpt>
      <trkpt lat="42.38219" lon="0.59768">
        <ele>1009.55</ele>
        <time>2024-09-30T12:42:49.999Z</time>
      </trkpt>
      <trkpt lat="42.38218" lon="0.59781">
        <ele>1005.09</ele>
        <time>2024-09-30T12:47:05.000Z</time>
      </trkpt>
      <trkpt lat="42.38215" lon="0.59793">
        <ele>1004.18</ele>
        <time>2024-09-30T12:47:12.000Z</time>
      </trkpt>
      <trkpt lat="42.38215" lon="0.59805">
        <ele>1003.22</ele>
        <time>2024-09-30T12:47:20.000Z</time>
      </trkpt>
      <trkpt lat="42.38207" lon="0.59813">
        <ele>1002.04</ele>
        <time>2024-09-30T12:47:32.000Z</time>
      </trkpt>
      <trkpt lat="42.3819" lon="0.59819">
        <ele>999.64</ele>
        <time>2024-09-30T12:47:37.000Z</time>
      </trkpt>
      <trkpt lat="42.38167" lon="0.59827">
        <ele>997.63</ele>
        <time>2024-09-30T12:47:42.000Z</time>
      </trkpt>
      <trkpt lat="42.38141" lon="0.59836">
        <ele>996.75</ele>
        <time>2024-09-30T12:47:47.000Z</time>
      </trkpt>
      <trkpt lat="42.3811" lon="0.59837">
        <ele>996.2</ele>
        <time>2024-09-30T12:47:52.000Z</time>
      </trkpt>
      <trkpt lat="42.38078" lon="0.59828">
        <ele>995.78</ele>
        <time>2024-09-30T12:47:57.000Z</time>
      </trkpt>
      <trkpt lat="42.3805" lon="0.59811">
        <ele>995.33</ele>
        <time>2024-09-30T12:48:02.000Z</time>
      </trkpt>
      <trkpt lat="42.38023" lon="0.59794">
        <ele>994.88</ele>
        <time>2024-09-30T12:48:07.000Z</time>
      </trkpt>
      <trkpt lat="42.37996" lon="0.59775">
        <ele>994.43</ele>
        <time>2024-09-30T12:48:12.000Z</time>
      </trkpt>
      <trkpt lat="42.37969" lon="0.59759">
        <ele>994.05</ele>
        <time>2024-09-30T12:48:17.000Z</time>
      </trkpt>
      <trkpt lat="42.37942" lon="0.59742">
        <ele>993.6</ele>
        <time>2024-09-30T12:48:22.000Z</time>
      </trkpt>
      <trkpt lat="42.37916" lon="0.59726">
        <ele>993.22</ele>
        <time>2024-09-30T12:48:27.000Z</time>
      </trkpt>
      <trkpt lat="42.37889" lon="0.59708">
        <ele>992.98</ele>
        <time>2024-09-30T12:48:32.000Z</time>
      </trkpt>
      <trkpt lat="42.37861" lon="0.59692">
        <ele>992.45</ele>
        <time>2024-09-30T12:48:37.000Z</time>
      </trkpt>
      <trkpt lat="42.37832" lon="0.59683">
        <ele>991.87</ele>
        <time>2024-09-30T12:48:42.000Z</time>
      </trkpt>
      <trkpt lat="42.37804" lon="0.59683">
        <ele>991.47</ele>
        <time>2024-09-30T12:48:47.000Z</time>
      </trkpt>
      <trkpt lat="42.37777" lon="0.59692">
        <ele>991.24</ele>
        <time>2024-09-30T12:48:52.000Z</time>
      </trkpt>
      <trkpt lat="42.37754" lon="0.59703">
        <ele>991.15</ele>
        <time>2024-09-30T12:48:57.000Z</time>
      </trkpt>
      <trkpt lat="42.37735" lon="0.59712">
        <ele>991.05</ele>
        <time>2024-09-30T12:49:02.000Z</time>
      </trkpt>
      <trkpt lat="42.37716" lon="0.59719">
        <ele>990.51</ele>
        <time>2024-09-30T12:49:07.000Z</time>
      </trkpt>
      <trkpt lat="42.37696" lon="0.59724">
        <ele>990.26</ele>
        <time>2024-09-30T12:49:12.000Z</time>
      </trkpt>
      <trkpt lat="42.37678" lon="0.59724">
        <ele>990.22</ele>
        <time>2024-09-30T12:49:17.000Z</time>
      </trkpt>
      <trkpt lat="42.37661" lon="0.59718">
        <ele>990.04</ele>
        <time>2024-09-30T12:49:22.000Z</time>
      </trkpt>
      <trkpt lat="42.37642" lon="0.59709">
        <ele>989.43</ele>
        <time>2024-09-30T12:49:27.000Z</time>
      </trkpt>
      <trkpt lat="42.37624" lon="0.59695">
        <ele>988.83</ele>
        <time>2024-09-30T12:49:32.000Z</time>
      </trkpt>
      <trkpt lat="42.37606" lon="0.59678">
        <ele>988.15</ele>
        <time>2024-09-30T12:49:37.000Z</time>
      </trkpt>
      <trkpt lat="42.37584" lon="0.59656">
        <ele>987.48</ele>
        <time>2024-09-30T12:49:42.000Z</time>
      </trkpt>
      <trkpt lat="42.37562" lon="0.5963">
        <ele>986.87</ele>
        <time>2024-09-30T12:49:47.000Z</time>
      </trkpt>
      <trkpt lat="42.37538" lon="0.59604">
        <ele>986.33</ele>
        <time>2024-09-30T12:49:52.000Z</time>
      </trkpt>
      <trkpt lat="42.37514" lon="0.59575">
        <ele>985.88</ele>
        <time>2024-09-30T12:49:57.000Z</time>
      </trkpt>
      <trkpt lat="42.37488" lon="0.59548">
        <ele>985.5</ele>
        <time>2024-09-30T12:50:02.000Z</time>
      </trkpt>
      <trkpt lat="42.37462" lon="0.5952">
        <ele>985.31</ele>
        <time>2024-09-30T12:50:07.000Z</time>
      </trkpt>
      <trkpt lat="42.37434" lon="0.59493">
        <ele>985.01</ele>
        <time>2024-09-30T12:50:12.000Z</time>
      </trkpt>
      <trkpt lat="42.37402" lon="0.59477">
        <ele>984.65</ele>
        <time>2024-09-30T12:50:17.000Z</time>
      </trkpt>
      <trkpt lat="42.37369" lon="0.59461">
        <ele>984.17</ele>
        <time>2024-09-30T12:50:22.000Z</time>
      </trkpt>
      <trkpt lat="42.37335" lon="0.59445">
        <ele>983.54</ele>
        <time>2024-09-30T12:50:27.000Z</time>
      </trkpt>
      <trkpt lat="42.37304" lon="0.59418">
        <ele>983.05</ele>
        <time>2024-09-30T12:50:32.000Z</time>
      </trkpt>
      <trkpt lat="42.37277" lon="0.59385">
        <ele>982.63</ele>
        <time>2024-09-30T12:50:37.000Z</time>
      </trkpt>
      <trkpt lat="42.37257" lon="0.59347">
        <ele>981.94</ele>
        <time>2024-09-30T12:50:42.000Z</time>
      </trkpt>
      <trkpt lat="42.37239" lon="0.59303">
        <ele>981.11</ele>
        <time>2024-09-30T12:50:47.000Z</time>
      </trkpt>
      <trkpt lat="42.37218" lon="0.5926">
        <ele>980.56</ele>
        <time>2024-09-30T12:50:52.000Z</time>
      </trkpt>
      <trkpt lat="42.37187" lon="0.59225">
        <ele>979.81</ele>
        <time>2024-09-30T12:50:57.000Z</time>
      </trkpt>
      <trkpt lat="42.37151" lon="0.59206">
        <ele>978.61</ele>
        <time>2024-09-30T12:51:02.000Z</time>
      </trkpt>
      <trkpt lat="42.37112" lon="0.59199">
        <ele>977.63</ele>
        <time>2024-09-30T12:51:07.000Z</time>
      </trkpt>
      <trkpt lat="42.37074" lon="0.59187">
        <ele>976.68</ele>
        <time>2024-09-30T12:51:12.000Z</time>
      </trkpt>
      <trkpt lat="42.3704" lon="0.59165">
        <ele>976.24</ele>
        <time>2024-09-30T12:51:17.000Z</time>
      </trkpt>
      <trkpt lat="42.37012" lon="0.59132">
        <ele>975.38</ele>
        <time>2024-09-30T12:51:22.000Z</time>
      </trkpt>
      <trkpt lat="42.36984" lon="0.59099">
        <ele>974.66</ele>
        <time>2024-09-30T12:51:27.000Z</time>
      </trkpt>
      <trkpt lat="42.36955" lon="0.59065">
        <ele>973.53</ele>
        <time>2024-09-30T12:51:32.000Z</time>
      </trkpt>
      <trkpt lat="42.36924" lon="0.5903">
        <ele>972.55</ele>
        <time>2024-09-30T12:51:37.000Z</time>
      </trkpt>
      <trkpt lat="42.36893" lon="0.58993">
        <ele>970.73</ele>
        <time>2024-09-30T12:51:42.000Z</time>
      </trkpt>
      <trkpt lat="42.36867" lon="0.58947">
        <ele>968.41</ele>
        <time>2024-09-30T12:51:47.000Z</time>
      </trkpt>
      <trkpt lat="42.36844" lon="0.58899">
        <ele>966.76</ele>
        <time>2024-09-30T12:51:52.000Z</time>
      </trkpt>
      <trkpt lat="42.36819" lon="0.58853">
        <ele>966.32</ele>
        <time>2024-09-30T12:51:57.000Z</time>
      </trkpt>
      <trkpt lat="42.36788" lon="0.58816">
        <ele>965.27</ele>
        <time>2024-09-30T12:52:02.000Z</time>
      </trkpt>
      <trkpt lat="42.36754" lon="0.58784">
        <ele>963.29</ele>
        <time>2024-09-30T12:52:07.000Z</time>
      </trkpt>
      <trkpt lat="42.36723" lon="0.58752">
        <ele>962.11</ele>
        <time>2024-09-30T12:52:12.000Z</time>
      </trkpt>
      <trkpt lat="42.36692" lon="0.58722">
        <ele>961.4</ele>
        <time>2024-09-30T12:52:17.000Z</time>
      </trkpt>
      <trkpt lat="42.36663" lon="0.58693">
        <ele>960.42</ele>
        <time>2024-09-30T12:52:22.000Z</time>
      </trkpt>
      <trkpt lat="42.36635" lon="0.58666">
        <ele>959.99</ele>
        <time>2024-09-30T12:52:27.000Z</time>
      </trkpt>
      <trkpt lat="42.36609" lon="0.5864">
        <ele>959.61</ele>
        <time>2024-09-30T12:52:32.000Z</time>
      </trkpt>
      <trkpt lat="42.36583" lon="0.58613">
        <ele>959.42</ele>
        <time>2024-09-30T12:52:37.000Z</time>
      </trkpt>
      <trkpt lat="42.36558" lon="0.58588">
        <ele>959.28</ele>
        <time>2024-09-30T12:52:42.000Z</time>
      </trkpt>
      <trkpt lat="42.36535" lon="0.58562">
        <ele>959.11</ele>
        <time>2024-09-30T12:52:47.000Z</time>
      </trkpt>
      <trkpt lat="42.36514" lon="0.58535">
        <ele>958.79</ele>
        <time>2024-09-30T12:52:52.000Z</time>
      </trkpt>
      <trkpt lat="42.36497" lon="0.58505">
        <ele>958.35</ele>
        <time>2024-09-30T12:52:57.000Z</time>
      </trkpt>
      <trkpt lat="42.3648" lon="0.58473">
        <ele>957.89</ele>
        <time>2024-09-30T12:53:02.000Z</time>
      </trkpt>
      <trkpt lat="42.36463" lon="0.58441">
        <ele>957.48</ele>
        <time>2024-09-30T12:53:07.000Z</time>
      </trkpt>
      <trkpt lat="42.36445" lon="0.58408">
        <ele>956.69</ele>
        <time>2024-09-30T12:53:12.000Z</time>
      </trkpt>
      <trkpt lat="42.36426" lon="0.58373">
        <ele>955.82</ele>
        <time>2024-09-30T12:53:17.000Z</time>
      </trkpt>
      <trkpt lat="42.36407" lon="0.58339">
        <ele>954.66</ele>
        <time>2024-09-30T12:53:22.000Z</time>
      </trkpt>
      <trkpt lat="42.36387" lon="0.58302">
        <ele>953.43</ele>
        <time>2024-09-30T12:53:27.000Z</time>
      </trkpt>
      <trkpt lat="42.36367" lon="0.58266">
        <ele>952.57</ele>
        <time>2024-09-30T12:53:32.000Z</time>
      </trkpt>
      <trkpt lat="42.36347" lon="0.5823">
        <ele>951.9</ele>
        <time>2024-09-30T12:53:37.000Z</time>
      </trkpt>
      <trkpt lat="42.36327" lon="0.58192">
        <ele>949.52</ele>
        <time>2024-09-30T12:53:42.000Z</time>
      </trkpt>
      <trkpt lat="42.36307" lon="0.58153">
        <ele>946.6</ele>
        <time>2024-09-30T12:53:47.000Z</time>
      </trkpt>
      <trkpt lat="42.36285" lon="0.58113">
        <ele>944.49</ele>
        <time>2024-09-30T12:53:52.000Z</time>
      </trkpt>
      <trkpt lat="42.36266" lon="0.58068">
        <ele>943.16</ele>
        <time>2024-09-30T12:53:57.000Z</time>
      </trkpt>
      <trkpt lat="42.3625" lon="0.5802">
        <ele>942.04</ele>
        <time>2024-09-30T12:54:02.000Z</time>
      </trkpt>
      <trkpt lat="42.36233" lon="0.57968">
        <ele>940.42</ele>
        <time>2024-09-30T12:54:07.000Z</time>
      </trkpt>
      <trkpt lat="42.36211" lon="0.5792">
        <ele>938.93</ele>
        <time>2024-09-30T12:54:12.000Z</time>
      </trkpt>
      <trkpt lat="42.36183" lon="0.57879">
        <ele>937.84</ele>
        <time>2024-09-30T12:54:17.000Z</time>
      </trkpt>
      <trkpt lat="42.36156" lon="0.57842">
        <ele>937.42</ele>
        <time>2024-09-30T12:54:22.000Z</time>
      </trkpt>
      <trkpt lat="42.36128" lon="0.57804">
        <ele>937.01</ele>
        <time>2024-09-30T12:54:27.000Z</time>
      </trkpt>
      <trkpt lat="42.36099" lon="0.57764">
        <ele>936.52</ele>
        <time>2024-09-30T12:54:32.000Z</time>
      </trkpt>
      <trkpt lat="42.36067" lon="0.57727">
        <ele>934.65</ele>
        <time>2024-09-30T12:54:37.000Z</time>
      </trkpt>
      <trkpt lat="42.36031" lon="0.57694">
        <ele>932.68</ele>
        <time>2024-09-30T12:54:42.000Z</time>
      </trkpt>
      <trkpt lat="42.35997" lon="0.57665">
        <ele>930.64</ele>
        <time>2024-09-30T12:54:47.000Z</time>
      </trkpt>
      <trkpt lat="42.35965" lon="0.57634">
        <ele>928.85</ele>
        <time>2024-09-30T12:54:52.000Z</time>
      </trkpt>
      <trkpt lat="42.35936" lon="0.57601">
        <ele>927.22</ele>
        <time>2024-09-30T12:54:57.000Z</time>
      </trkpt>
      <trkpt lat="42.35909" lon="0.57568">
        <ele>926.37</ele>
        <time>2024-09-30T12:55:02.000Z</time>
      </trkpt>
      <trkpt lat="42.35883" lon="0.57536">
        <ele>925.75</ele>
        <time>2024-09-30T12:55:07.000Z</time>
      </trkpt>
      <trkpt lat="42.35856" lon="0.57503">
        <ele>925.1</ele>
        <time>2024-09-30T12:55:12.000Z</time>
      </trkpt>
      <trkpt lat="42.35827" lon="0.57467">
        <ele>923.85</ele>
        <time>2024-09-30T12:55:17.000Z</time>
      </trkpt>
      <trkpt lat="42.35794" lon="0.57434">
        <ele>922.34</ele>
        <time>2024-09-30T12:55:22.000Z</time>
      </trkpt>
      <trkpt lat="42.35757" lon="0.57406">
        <ele>920.62</ele>
        <time>2024-09-30T12:55:27.000Z</time>
      </trkpt>
      <trkpt lat="42.35718" lon="0.57384">
        <ele>919.17</ele>
        <time>2024-09-30T12:55:32.000Z</time>
      </trkpt>
      <trkpt lat="42.3568" lon="0.57361">
        <ele>918.38</ele>
        <time>2024-09-30T12:55:37.000Z</time>
      </trkpt>
      <trkpt lat="42.35644" lon="0.57344">
        <ele>917.24</ele>
        <time>2024-09-30T12:55:42.000Z</time>
      </trkpt>
      <trkpt lat="42.35605" lon="0.5734">
        <ele>915.74</ele>
        <time>2024-09-30T12:55:47.000Z</time>
      </trkpt>
      <trkpt lat="42.35566" lon="0.57347">
        <ele>914.81</ele>
        <time>2024-09-30T12:55:52.000Z</time>
      </trkpt>
      <trkpt lat="42.35528" lon="0.5736">
        <ele>913.9</ele>
        <time>2024-09-30T12:55:57.000Z</time>
      </trkpt>
      <trkpt lat="42.35492" lon="0.57371">
        <ele>911.8</ele>
        <time>2024-09-30T12:56:02.000Z</time>
      </trkpt>
      <trkpt lat="42.35456" lon="0.57374">
        <ele>909.04</ele>
        <time>2024-09-30T12:56:07.000Z</time>
      </trkpt>
      <trkpt lat="42.3542" lon="0.57365">
        <ele>907.02</ele>
        <time>2024-09-30T12:56:12.000Z</time>
      </trkpt>
      <trkpt lat="42.35387" lon="0.57346">
        <ele>905.3</ele>
        <time>2024-09-30T12:56:17.000Z</time>
      </trkpt>
      <trkpt lat="42.35354" lon="0.57322">
        <ele>903.28</ele>
        <time>2024-09-30T12:56:22.000Z</time>
      </trkpt>
      <trkpt lat="42.3532" lon="0.57299">
        <ele>901.04</ele>
        <time>2024-09-30T12:56:27.000Z</time>
      </trkpt>
      <trkpt lat="42.35286" lon="0.57274">
        <ele>899.63</ele>
        <time>2024-09-30T12:56:32.000Z</time>
      </trkpt>
      <trkpt lat="42.35251" lon="0.5725">
        <ele>899.16</ele>
        <time>2024-09-30T12:56:37.000Z</time>
      </trkpt>
      <trkpt lat="42.35217" lon="0.57224">
        <ele>898.95</ele>
        <time>2024-09-30T12:56:42.000Z</time>
      </trkpt>
      <trkpt lat="42.35177" lon="0.57196">
        <ele>898.94</ele>
        <time>2024-09-30T12:56:47.999Z</time>
      </trkpt>
      <trkpt lat="42.35147" lon="0.57175">
        <ele>898.99</ele>
        <time>2024-09-30T12:56:52.999Z</time>
      </trkpt>
      <trkpt lat="42.35117" lon="0.57154">
        <ele>899.01</ele>
        <time>2024-09-30T12:56:57.999Z</time>
      </trkpt>
      <trkpt lat="42.35086" lon="0.57132">
        <ele>899</ele>
        <time>2024-09-30T12:57:02.999Z</time>
      </trkpt>
      <trkpt lat="42.35055" lon="0.5711">
        <ele>899</ele>
        <time>2024-09-30T12:57:07.999Z</time>
      </trkpt>
      <trkpt lat="42.35026" lon="0.57086">
        <ele>898.79</ele>
        <time>2024-09-30T12:57:12.999Z</time>
      </trkpt>
      <trkpt lat="42.35" lon="0.57057">
        <ele>898.68</ele>
        <time>2024-09-30T12:57:17.999Z</time>
      </trkpt>
      <trkpt lat="42.34979" lon="0.57022">
        <ele>898.46</ele>
        <time>2024-09-30T12:57:22.999Z</time>
      </trkpt>
      <trkpt lat="42.3496" lon="0.56985">
        <ele>898.2</ele>
        <time>2024-09-30T12:57:27.999Z</time>
      </trkpt>
      <trkpt lat="42.3494" lon="0.56948">
        <ele>897.79</ele>
        <time>2024-09-30T12:57:32.999Z</time>
      </trkpt>
      <trkpt lat="42.34914" lon="0.56919">
        <ele>897.07</ele>
        <time>2024-09-30T12:57:37.999Z</time>
      </trkpt>
      <trkpt lat="42.34883" lon="0.56901">
        <ele>895.35</ele>
        <time>2024-09-30T12:57:42.999Z</time>
      </trkpt>
      <trkpt lat="42.3485" lon="0.56892">
        <ele>894.06</ele>
        <time>2024-09-30T12:57:47.999Z</time>
      </trkpt>
      <trkpt lat="42.34816" lon="0.56884">
        <ele>893.19</ele>
        <time>2024-09-30T12:57:52.999Z</time>
      </trkpt>
      <trkpt lat="42.34783" lon="0.56876">
        <ele>891.71</ele>
        <time>2024-09-30T12:57:57.999Z</time>
      </trkpt>
      <trkpt lat="42.34751" lon="0.56867">
        <ele>889.98</ele>
        <time>2024-09-30T12:58:02.999Z</time>
      </trkpt>
      <trkpt lat="42.34718" lon="0.56855">
        <ele>888.69</ele>
        <time>2024-09-30T12:58:07.999Z</time>
      </trkpt>
      <trkpt lat="42.34686" lon="0.56837">
        <ele>887.53</ele>
        <time>2024-09-30T12:58:12.999Z</time>
      </trkpt>
      <trkpt lat="42.34654" lon="0.56818">
        <ele>886.08</ele>
        <time>2024-09-30T12:58:17.999Z</time>
      </trkpt>
      <trkpt lat="42.34623" lon="0.56799">
        <ele>884.82</ele>
        <time>2024-09-30T12:58:22.999Z</time>
      </trkpt>
      <trkpt lat="42.34592" lon="0.5678">
        <ele>883.77</ele>
        <time>2024-09-30T12:58:27.999Z</time>
      </trkpt>
      <trkpt lat="42.34563" lon="0.56763">
        <ele>882.45</ele>
        <time>2024-09-30T12:58:32.999Z</time>
      </trkpt>
      <trkpt lat="42.34536" lon="0.56747">
        <ele>881.07</ele>
        <time>2024-09-30T12:58:37.999Z</time>
      </trkpt>
      <trkpt lat="42.34506" lon="0.56735">
        <ele>880.41</ele>
        <time>2024-09-30T12:58:42.999Z</time>
      </trkpt>
      <trkpt lat="42.34476" lon="0.56728">
        <ele>879.96</ele>
        <time>2024-09-30T12:58:47.999Z</time>
      </trkpt>
      <trkpt lat="42.34453" lon="0.56709">
        <ele>879.05</ele>
        <time>2024-09-30T12:58:52.999Z</time>
      </trkpt>
      <trkpt lat="42.34443" lon="0.56677">
        <ele>877.89</ele>
        <time>2024-09-30T12:58:57.999Z</time>
      </trkpt>
      <trkpt lat="42.34435" lon="0.56652">
        <ele>877.51</ele>
        <time>2024-09-30T12:59:02.999Z</time>
      </trkpt>
      <trkpt lat="42.34424" lon="0.56642">
        <ele>877.51</ele>
        <time>2024-09-30T12:59:07.999Z</time>
      </trkpt>
      <trkpt lat="42.34423" lon="0.56629">
        <ele>865.62</ele>
        <time>2024-09-30T13:18:29.000Z</time>
      </trkpt>
      <trkpt lat="42.3442" lon="0.56615">
        <ele>865.63</ele>
        <time>2024-09-30T13:18:34.000Z</time>
      </trkpt>
      <trkpt lat="42.34415" lon="0.56599">
        <ele>865.63</ele>
        <time>2024-09-30T13:18:39.000Z</time>
      </trkpt>
      <trkpt lat="42.3441" lon="0.56583">
        <ele>865.62</ele>
        <time>2024-09-30T13:18:44.000Z</time>
      </trkpt>
      <trkpt lat="42.34405" lon="0.56567">
        <ele>865.62</ele>
        <time>2024-09-30T13:18:49.000Z</time>
      </trkpt>
      <trkpt lat="42.344" lon="0.56552">
        <ele>865.61</ele>
        <time>2024-09-30T13:18:54.000Z</time>
      </trkpt>
      <trkpt lat="42.34397" lon="0.56539">
        <ele>865.6</ele>
        <time>2024-09-30T13:18:59.000Z</time>
      </trkpt>
      <trkpt lat="42.34394" lon="0.56527">
        <ele>865.6</ele>
        <time>2024-09-30T13:19:04.000Z</time>
      </trkpt>
      <trkpt lat="42.34391" lon="0.56514">
        <ele>865.6</ele>
        <time>2024-09-30T13:19:09.000Z</time>
      </trkpt>
      <trkpt lat="42.34388" lon="0.56502">
        <ele>865.6</ele>
        <time>2024-09-30T13:19:14.000Z</time>
      </trkpt>
      <trkpt lat="42.34386" lon="0.5649">
        <ele>865.6</ele>
        <time>2024-09-30T13:19:19.000Z</time>
      </trkpt>
      <trkpt lat="42.34383" lon="0.56478">
        <ele>865.6</ele>
        <time>2024-09-30T13:19:24.000Z</time>
      </trkpt>
      <trkpt lat="42.34381" lon="0.56465">
        <ele>865.61</ele>
        <time>2024-09-30T13:19:29.000Z</time>
      </trkpt>
      <trkpt lat="42.34378" lon="0.56453">
        <ele>865.63</ele>
        <time>2024-09-30T13:19:34.000Z</time>
      </trkpt>
      <trkpt lat="42.34375" lon="0.56438">
        <ele>865.64</ele>
        <time>2024-09-30T13:19:40.000Z</time>
      </trkpt>
      <trkpt lat="42.34374" lon="0.56426">
        <ele>865.67</ele>
        <time>2024-09-30T13:19:45.000Z</time>
      </trkpt>
      <trkpt lat="42.34373" lon="0.56414">
        <ele>865.7</ele>
        <time>2024-09-30T13:19:51.000Z</time>
      </trkpt>
      <trkpt lat="42.34372" lon="0.564">
        <ele>865.73</ele>
        <time>2024-09-30T13:19:57.000Z</time>
      </trkpt>
      <trkpt lat="42.34373" lon="0.56387">
        <ele>865.77</ele>
        <time>2024-09-30T13:20:03.000Z</time>
      </trkpt>
      <trkpt lat="42.34375" lon="0.56374">
        <ele>865.82</ele>
        <time>2024-09-30T13:20:09.000Z</time>
      </trkpt>
      <trkpt lat="42.34377" lon="0.5636">
        <ele>865.87</ele>
        <time>2024-09-30T13:20:15.000Z</time>
      </trkpt>
      <trkpt lat="42.3438" lon="0.56347">
        <ele>865.93</ele>
        <time>2024-09-30T13:20:21.000Z</time>
      </trkpt>
      <trkpt lat="42.34384" lon="0.56333">
        <ele>865.99</ele>
        <time>2024-09-30T13:20:27.000Z</time>
      </trkpt>
      <trkpt lat="42.34388" lon="0.5632">
        <ele>866.07</ele>
        <time>2024-09-30T13:20:32.999Z</time>
      </trkpt>
      <trkpt lat="42.34393" lon="0.56308">
        <ele>866.15</ele>
        <time>2024-09-30T13:20:38.999Z</time>
      </trkpt>
      <trkpt lat="42.34397" lon="0.56298">
        <ele>866.23</ele>
        <time>2024-09-30T13:20:43.999Z</time>
      </trkpt>
      <trkpt lat="42.34405" lon="0.56283">
        <ele>866.3</ele>
        <time>2024-09-30T13:20:48.999Z</time>
      </trkpt>
      <trkpt lat="42.34413" lon="0.5627">
        <ele>866.38</ele>
        <time>2024-09-30T13:20:53.999Z</time>
      </trkpt>
      <trkpt lat="42.34422" lon="0.56257">
        <ele>866.46</ele>
        <time>2024-09-30T13:20:58.999Z</time>
      </trkpt>
      <trkpt lat="42.34432" lon="0.56243">
        <ele>866.54</ele>
        <time>2024-09-30T13:21:03.999Z</time>
      </trkpt>
      <trkpt lat="42.34444" lon="0.56228">
        <ele>866.62</ele>
        <time>2024-09-30T13:21:08.999Z</time>
      </trkpt>
      <trkpt lat="42.34457" lon="0.56211">
        <ele>866.92</ele>
        <time>2024-09-30T13:21:13.999Z</time>
      </trkpt>
      <trkpt lat="42.34471" lon="0.56192">
        <ele>867.35</ele>
        <time>2024-09-30T13:21:18.999Z</time>
      </trkpt>
      <trkpt lat="42.34486" lon="0.56173">
        <ele>867.55</ele>
        <time>2024-09-30T13:21:23.999Z</time>
      </trkpt>
      <trkpt lat="42.34501" lon="0.56154">
        <ele>867.68</ele>
        <time>2024-09-30T13:21:28.999Z</time>
      </trkpt>
      <trkpt lat="42.34516" lon="0.56133">
        <ele>867.8</ele>
        <time>2024-09-30T13:21:33.999Z</time>
      </trkpt>
      <trkpt lat="42.34533" lon="0.56111">
        <ele>867.91</ele>
        <time>2024-09-30T13:21:38.999Z</time>
      </trkpt>
      <trkpt lat="42.34549" lon="0.56091">
        <ele>868.02</ele>
        <time>2024-09-30T13:21:43.999Z</time>
      </trkpt>
      <trkpt lat="42.34566" lon="0.56071">
        <ele>868.14</ele>
        <time>2024-09-30T13:21:48.999Z</time>
      </trkpt>
      <trkpt lat="42.34582" lon="0.56049">
        <ele>868.28</ele>
        <time>2024-09-30T13:21:53.999Z</time>
      </trkpt>
      <trkpt lat="42.34599" lon="0.56028">
        <ele>868.41</ele>
        <time>2024-09-30T13:21:58.999Z</time>
      </trkpt>
      <trkpt lat="42.34616" lon="0.56006">
        <ele>868.54</ele>
        <time>2024-09-30T13:22:03.999Z</time>
      </trkpt>
      <trkpt lat="42.34632" lon="0.55985">
        <ele>868.68</ele>
        <time>2024-09-30T13:22:08.999Z</time>
      </trkpt>
      <trkpt lat="42.34649" lon="0.55962">
        <ele>868.83</ele>
        <time>2024-09-30T13:22:13.999Z</time>
      </trkpt>
      <trkpt lat="42.34666" lon="0.55941">
        <ele>868.98</ele>
        <time>2024-09-30T13:22:18.999Z</time>
      </trkpt>
      <trkpt lat="42.34683" lon="0.5592">
        <ele>869.12</ele>
        <time>2024-09-30T13:22:23.999Z</time>
      </trkpt>
      <trkpt lat="42.347" lon="0.55898">
        <ele>869.26</ele>
        <time>2024-09-30T13:22:28.999Z</time>
      </trkpt>
      <trkpt lat="42.34717" lon="0.55877">
        <ele>869.38</ele>
        <time>2024-09-30T13:22:33.999Z</time>
      </trkpt>
      <trkpt lat="42.34734" lon="0.55855">
        <ele>869.51</ele>
        <time>2024-09-30T13:22:38.999Z</time>
      </trkpt>
      <trkpt lat="42.3475" lon="0.55833">
        <ele>869.64</ele>
        <time>2024-09-30T13:22:43.999Z</time>
      </trkpt>
      <trkpt lat="42.34766" lon="0.55811">
        <ele>869.79</ele>
        <time>2024-09-30T13:22:48.999Z</time>
      </trkpt>
      <trkpt lat="42.34784" lon="0.55789">
        <ele>869.94</ele>
        <time>2024-09-30T13:22:53.999Z</time>
      </trkpt>
      <trkpt lat="42.348" lon="0.55767">
        <ele>870.09</ele>
        <time>2024-09-30T13:22:58.999Z</time>
      </trkpt>
      <trkpt lat="42.34815" lon="0.55744">
        <ele>870.23</ele>
        <time>2024-09-30T13:23:03.999Z</time>
      </trkpt>
      <trkpt lat="42.34828" lon="0.55718">
        <ele>870.38</ele>
        <time>2024-09-30T13:23:08.999Z</time>
      </trkpt>
      <trkpt lat="42.3484" lon="0.55692">
        <ele>870.56</ele>
        <time>2024-09-30T13:23:13.999Z</time>
      </trkpt>
      <trkpt lat="42.34852" lon="0.55668">
        <ele>870.73</ele>
        <time>2024-09-30T13:23:18.999Z</time>
      </trkpt>
      <trkpt lat="42.34863" lon="0.55648">
        <ele>870.76</ele>
        <time>2024-09-30T13:23:23.999Z</time>
      </trkpt>
      <trkpt lat="42.34871" lon="0.55629">
        <ele>870.8</ele>
        <time>2024-09-30T13:23:28.999Z</time>
      </trkpt>
      <trkpt lat="42.34879" lon="0.55611">
        <ele>870.85</ele>
        <time>2024-09-30T13:23:33.999Z</time>
      </trkpt>
      <trkpt lat="42.34886" lon="0.55592">
        <ele>870.92</ele>
        <time>2024-09-30T13:23:38.999Z</time>
      </trkpt>
      <trkpt lat="42.34893" lon="0.55572">
        <ele>871.01</ele>
        <time>2024-09-30T13:23:43.999Z</time>
      </trkpt>
      <trkpt lat="42.34899" lon="0.55554">
        <ele>871.12</ele>
        <time>2024-09-30T13:23:48.999Z</time>
      </trkpt>
      <trkpt lat="42.34902" lon="0.55538">
        <ele>871.25</ele>
        <time>2024-09-30T13:23:53.999Z</time>
      </trkpt>
      <trkpt lat="42.34905" lon="0.55522">
        <ele>871.41</ele>
        <time>2024-09-30T13:23:58.999Z</time>
      </trkpt>
      <trkpt lat="42.34908" lon="0.5551">
        <ele>871.6</ele>
        <time>2024-09-30T13:24:03.999Z</time>
      </trkpt>
      <trkpt lat="42.34909" lon="0.55497">
        <ele>871.79</ele>
        <time>2024-09-30T13:24:08.999Z</time>
      </trkpt>
      <trkpt lat="42.34912" lon="0.55483">
        <ele>872</ele>
        <time>2024-09-30T13:24:13.999Z</time>
      </trkpt>
      <trkpt lat="42.34913" lon="0.55469">
        <ele>872.22</ele>
        <time>2024-09-30T13:24:18.999Z</time>
      </trkpt>
      <trkpt lat="42.34915" lon="0.55456">
        <ele>872.45</ele>
        <time>2024-09-30T13:24:23.999Z</time>
      </trkpt>
      <trkpt lat="42.34917" lon="0.55443">
        <ele>872.69</ele>
        <time>2024-09-30T13:24:28.999Z</time>
      </trkpt>
      <trkpt lat="42.34919" lon="0.55429">
        <ele>872.94</ele>
        <time>2024-09-30T13:24:33.999Z</time>
      </trkpt>
      <trkpt lat="42.34921" lon="0.55416">
        <ele>873.2</ele>
        <time>2024-09-30T13:24:38.999Z</time>
      </trkpt>
      <trkpt lat="42.34923" lon="0.55403">
        <ele>873.46</ele>
        <time>2024-09-30T13:24:43.999Z</time>
      </trkpt>
      <trkpt lat="42.34925" lon="0.55389">
        <ele>873.74</ele>
        <time>2024-09-30T13:24:48.999Z</time>
      </trkpt>
      <trkpt lat="42.34926" lon="0.55375">
        <ele>874.02</ele>
        <time>2024-09-30T13:24:53.999Z</time>
      </trkpt>
      <trkpt lat="42.34928" lon="0.5536">
        <ele>874.31</ele>
        <time>2024-09-30T13:24:58.999Z</time>
      </trkpt>
      <trkpt lat="42.3493" lon="0.55345">
        <ele>874.6</ele>
        <time>2024-09-30T13:25:03.999Z</time>
      </trkpt>
      <trkpt lat="42.34933" lon="0.55328">
        <ele>874.9</ele>
        <time>2024-09-30T13:25:08.999Z</time>
      </trkpt>
      <trkpt lat="42.34936" lon="0.5531">
        <ele>875.21</ele>
        <time>2024-09-30T13:25:13.999Z</time>
      </trkpt>
      <trkpt lat="42.3494" lon="0.55292">
        <ele>875.51</ele>
        <time>2024-09-30T13:25:18.999Z</time>
      </trkpt>
      <trkpt lat="42.3494" lon="0.55274">
        <ele>875.83</ele>
        <time>2024-09-30T13:25:23.999Z</time>
      </trkpt>
      <trkpt lat="42.34941" lon="0.55261">
        <ele>876.21</ele>
        <time>2024-09-30T13:25:29.999Z</time>
      </trkpt>
      <trkpt lat="42.3495" lon="0.55255">
        <ele>877.27</ele>
        <time>2024-09-30T13:26:02.999Z</time>
      </trkpt>
      <trkpt lat="42.34958" lon="0.55238">
        <ele>877.65</ele>
        <time>2024-09-30T13:26:07.999Z</time>
      </trkpt>
      <trkpt lat="42.34968" lon="0.55218">
        <ele>878.02</ele>
        <time>2024-09-30T13:26:12.999Z</time>
      </trkpt>
      <trkpt lat="42.34977" lon="0.55198">
        <ele>878.37</ele>
        <time>2024-09-30T13:26:17.999Z</time>
      </trkpt>
      <trkpt lat="42.34987" lon="0.55175">
        <ele>879.29</ele>
        <time>2024-09-30T13:26:22.999Z</time>
      </trkpt>
      <trkpt lat="42.34996" lon="0.55154">
        <ele>880.03</ele>
        <time>2024-09-30T13:26:27.999Z</time>
      </trkpt>
      <trkpt lat="42.35005" lon="0.55134">
        <ele>880.29</ele>
        <time>2024-09-30T13:26:32.999Z</time>
      </trkpt>
      <trkpt lat="42.35014" lon="0.55112">
        <ele>880.53</ele>
        <time>2024-09-30T13:26:37.999Z</time>
      </trkpt>
      <trkpt lat="42.35023" lon="0.55092">
        <ele>880.77</ele>
        <time>2024-09-30T13:26:42.999Z</time>
      </trkpt>
      <trkpt lat="42.35034" lon="0.55069">
        <ele>881.02</ele>
        <time>2024-09-30T13:26:47.999Z</time>
      </trkpt>
      <trkpt lat="42.35043" lon="0.55049">
        <ele>881.29</ele>
        <time>2024-09-30T13:26:52.999Z</time>
      </trkpt>
      <trkpt lat="42.35052" lon="0.55029">
        <ele>881.57</ele>
        <time>2024-09-30T13:26:57.999Z</time>
      </trkpt>
      <trkpt lat="42.3506" lon="0.5501">
        <ele>881.86</ele>
        <time>2024-09-30T13:27:02.999Z</time>
      </trkpt>
      <trkpt lat="42.3507" lon="0.54989">
        <ele>882.14</ele>
        <time>2024-09-30T13:27:07.999Z</time>
      </trkpt>
      <trkpt lat="42.35078" lon="0.54969">
        <ele>882.42</ele>
        <time>2024-09-30T13:27:12.999Z</time>
      </trkpt>
      <trkpt lat="42.35088" lon="0.54948">
        <ele>883.18</ele>
        <time>2024-09-30T13:27:17.999Z</time>
      </trkpt>
      <trkpt lat="42.35097" lon="0.54927">
        <ele>884.11</ele>
        <time>2024-09-30T13:27:22.999Z</time>
      </trkpt>
      <trkpt lat="42.35107" lon="0.54905">
        <ele>884.29</ele>
        <time>2024-09-30T13:27:27.999Z</time>
      </trkpt>
      <trkpt lat="42.35116" lon="0.54884">
        <ele>884.46</ele>
        <time>2024-09-30T13:27:32.999Z</time>
      </trkpt>
      <trkpt lat="42.35125" lon="0.54863">
        <ele>884.65</ele>
        <time>2024-09-30T13:27:37.999Z</time>
      </trkpt>
      <trkpt lat="42.35135" lon="0.54842">
        <ele>884.86</ele>
        <time>2024-09-30T13:27:42.999Z</time>
      </trkpt>
      <trkpt lat="42.35145" lon="0.54821">
        <ele>885.08</ele>
        <time>2024-09-30T13:27:47.999Z</time>
      </trkpt>
      <trkpt lat="42.35154" lon="0.548">
        <ele>885.31</ele>
        <time>2024-09-30T13:27:52.999Z</time>
      </trkpt>
      <trkpt lat="42.35163" lon="0.54779">
        <ele>885.56</ele>
        <time>2024-09-30T13:27:57.999Z</time>
      </trkpt>
      <trkpt lat="42.35171" lon="0.54759">
        <ele>885.81</ele>
        <time>2024-09-30T13:28:02.999Z</time>
      </trkpt>
      <trkpt lat="42.35181" lon="0.54737">
        <ele>886.06</ele>
        <time>2024-09-30T13:28:07.999Z</time>
      </trkpt>
      <trkpt lat="42.3519" lon="0.54714">
        <ele>886.34</ele>
        <time>2024-09-30T13:28:12.999Z</time>
      </trkpt>
      <trkpt lat="42.35198" lon="0.54691">
        <ele>886.63</ele>
        <time>2024-09-30T13:28:17.999Z</time>
      </trkpt>
      <trkpt lat="42.35206" lon="0.54668">
        <ele>886.95</ele>
        <time>2024-09-30T13:28:22.999Z</time>
      </trkpt>
      <trkpt lat="42.35211" lon="0.54645">
        <ele>887.29</ele>
        <time>2024-09-30T13:28:27.999Z</time>
      </trkpt>
      <trkpt lat="42.35216" lon="0.54622">
        <ele>887.65</ele>
        <time>2024-09-30T13:28:32.999Z</time>
      </trkpt>
      <trkpt lat="42.3522" lon="0.54598">
        <ele>888.02</ele>
        <time>2024-09-30T13:28:37.999Z</time>
      </trkpt>
      <trkpt lat="42.35224" lon="0.54574">
        <ele>888.4</ele>
        <time>2024-09-30T13:28:42.999Z</time>
      </trkpt>
      <trkpt lat="42.35228" lon="0.5455">
        <ele>888.78</ele>
        <time>2024-09-30T13:28:47.999Z</time>
      </trkpt>
      <trkpt lat="42.35232" lon="0.54527">
        <ele>889.17</ele>
        <time>2024-09-30T13:28:52.999Z</time>
      </trkpt>
      <trkpt lat="42.35236" lon="0.54503">
        <ele>889.56</ele>
        <time>2024-09-30T13:28:57.999Z</time>
      </trkpt>
      <trkpt lat="42.3524" lon="0.54478">
        <ele>891.08</ele>
        <time>2024-09-30T13:29:02.999Z</time>
      </trkpt>
      <trkpt lat="42.35245" lon="0.54454">
        <ele>891.98</ele>
        <time>2024-09-30T13:29:07.999Z</time>
      </trkpt>
      <trkpt lat="42.35249" lon="0.54431">
        <ele>892.63</ele>
        <time>2024-09-30T13:29:12.999Z</time>
      </trkpt>
      <trkpt lat="42.35253" lon="0.54407">
        <ele>892.86</ele>
        <time>2024-09-30T13:29:17.999Z</time>
      </trkpt>
      <trkpt lat="42.35256" lon="0.54384">
        <ele>893.11</ele>
        <time>2024-09-30T13:29:22.999Z</time>
      </trkpt>
      <trkpt lat="42.3526" lon="0.54363">
        <ele>893.38</ele>
        <time>2024-09-30T13:29:27.999Z</time>
      </trkpt>
      <trkpt lat="42.35264" lon="0.54342">
        <ele>893.68</ele>
        <time>2024-09-30T13:29:32.999Z</time>
      </trkpt>
      <trkpt lat="42.35267" lon="0.54323">
        <ele>893.99</ele>
        <time>2024-09-30T13:29:37.999Z</time>
      </trkpt>
      <trkpt lat="42.3527" lon="0.54311">
        <ele>894.31</ele>
        <time>2024-09-30T13:29:42.999Z</time>
      </trkpt>
      <trkpt lat="42.35274" lon="0.54295">
        <ele>894.66</ele>
        <time>2024-09-30T13:29:47.999Z</time>
      </trkpt>
      <trkpt lat="42.35277" lon="0.54282">
        <ele>895.02</ele>
        <time>2024-09-30T13:29:52.999Z</time>
      </trkpt>
      <trkpt lat="42.3528" lon="0.54268">
        <ele>895.4</ele>
        <time>2024-09-30T13:29:57.999Z</time>
      </trkpt>
      <trkpt lat="42.35284" lon="0.54255">
        <ele>895.79</ele>
        <time>2024-09-30T13:30:02.999Z</time>
      </trkpt>
      <trkpt lat="42.35288" lon="0.54242">
        <ele>896.18</ele>
        <time>2024-09-30T13:30:07.999Z</time>
      </trkpt>
      <trkpt lat="42.35292" lon="0.54229">
        <ele>896.58</ele>
        <time>2024-09-30T13:30:12.999Z</time>
      </trkpt>
      <trkpt lat="42.35296" lon="0.54216">
        <ele>896.99</ele>
        <time>2024-09-30T13:30:17.999Z</time>
      </trkpt>
      <trkpt lat="42.35302" lon="0.54204">
        <ele>897.4</ele>
        <time>2024-09-30T13:30:22.999Z</time>
      </trkpt>
      <trkpt lat="42.35308" lon="0.54191">
        <ele>897.81</ele>
        <time>2024-09-30T13:30:27.999Z</time>
      </trkpt>
      <trkpt lat="42.35315" lon="0.54178">
        <ele>898.21</ele>
        <time>2024-09-30T13:30:32.999Z</time>
      </trkpt>
      <trkpt lat="42.35321" lon="0.54165">
        <ele>898.61</ele>
        <time>2024-09-30T13:30:37.999Z</time>
      </trkpt>
      <trkpt lat="42.35328" lon="0.54152">
        <ele>899</ele>
        <time>2024-09-30T13:30:42.999Z</time>
      </trkpt>
      <trkpt lat="42.35335" lon="0.54139">
        <ele>899.37</ele>
        <time>2024-09-30T13:30:47.999Z</time>
      </trkpt>
      <trkpt lat="42.35341" lon="0.54125">
        <ele>899.73</ele>
        <time>2024-09-30T13:30:52.999Z</time>
      </trkpt>
      <trkpt lat="42.35349" lon="0.54109">
        <ele>900.08</ele>
        <time>2024-09-30T13:30:57.999Z</time>
      </trkpt>
      <trkpt lat="42.35357" lon="0.54093">
        <ele>900.42</ele>
        <time>2024-09-30T13:31:02.999Z</time>
      </trkpt>
      <trkpt lat="42.35365" lon="0.54077">
        <ele>900.76</ele>
        <time>2024-09-30T13:31:07.999Z</time>
      </trkpt>
      <trkpt lat="42.35373" lon="0.54062">
        <ele>901.1</ele>
        <time>2024-09-30T13:31:12.999Z</time>
      </trkpt>
      <trkpt lat="42.35381" lon="0.54045">
        <ele>901.43</ele>
        <time>2024-09-30T13:31:17.999Z</time>
      </trkpt>
      <trkpt lat="42.35388" lon="0.54029">
        <ele>901.76</ele>
        <time>2024-09-30T13:31:22.999Z</time>
      </trkpt>
      <trkpt lat="42.35398" lon="0.54014">
        <ele>902.08</ele>
        <time>2024-09-30T13:31:27.999Z</time>
      </trkpt>
      <trkpt lat="42.35407" lon="0.54001">
        <ele>902.43</ele>
        <time>2024-09-30T13:31:32.999Z</time>
      </trkpt>
      <trkpt lat="42.35418" lon="0.53989">
        <ele>902.8</ele>
        <time>2024-09-30T13:31:37.999Z</time>
      </trkpt>
      <trkpt lat="42.35429" lon="0.53979">
        <ele>903.17</ele>
        <time>2024-09-30T13:31:42.999Z</time>
      </trkpt>
      <trkpt lat="42.35442" lon="0.53969">
        <ele>903.53</ele>
        <time>2024-09-30T13:31:47.999Z</time>
      </trkpt>
      <trkpt lat="42.35456" lon="0.53961">
        <ele>903.88</ele>
        <time>2024-09-30T13:31:52.999Z</time>
      </trkpt>
      <trkpt lat="42.35469" lon="0.53952">
        <ele>904.24</ele>
        <time>2024-09-30T13:31:57.999Z</time>
      </trkpt>
      <trkpt lat="42.35483" lon="0.53945">
        <ele>904.59</ele>
        <time>2024-09-30T13:32:02.999Z</time>
      </trkpt>
      <trkpt lat="42.35496" lon="0.53938">
        <ele>904.94</ele>
        <time>2024-09-30T13:32:07.999Z</time>
      </trkpt>
      <trkpt lat="42.35509" lon="0.53929">
        <ele>905.28</ele>
        <time>2024-09-30T13:32:12.999Z</time>
      </trkpt>
      <trkpt lat="42.35523" lon="0.53922">
        <ele>905.63</ele>
        <time>2024-09-30T13:32:17.999Z</time>
      </trkpt>
      <trkpt lat="42.35536" lon="0.53915">
        <ele>905.97</ele>
        <time>2024-09-30T13:32:23.000Z</time>
      </trkpt>
      <trkpt lat="42.35549" lon="0.53908">
        <ele>906.34</ele>
        <time>2024-09-30T13:32:28.000Z</time>
      </trkpt>
      <trkpt lat="42.35562" lon="0.539">
        <ele>906.76</ele>
        <time>2024-09-30T13:32:33.000Z</time>
      </trkpt>
      <trkpt lat="42.35574" lon="0.53892">
        <ele>907.2</ele>
        <time>2024-09-30T13:32:38.000Z</time>
      </trkpt>
      <trkpt lat="42.35587" lon="0.53884">
        <ele>907.66</ele>
        <time>2024-09-30T13:32:43.000Z</time>
      </trkpt>
      <trkpt lat="42.356" lon="0.53876">
        <ele>908.14</ele>
        <time>2024-09-30T13:32:48.000Z</time>
      </trkpt>
      <trkpt lat="42.35612" lon="0.53868">
        <ele>908.65</ele>
        <time>2024-09-30T13:32:53.000Z</time>
      </trkpt>
      <trkpt lat="42.35625" lon="0.5386">
        <ele>909.2</ele>
        <time>2024-09-30T13:32:58.000Z</time>
      </trkpt>
      <trkpt lat="42.35637" lon="0.53852">
        <ele>909.76</ele>
        <time>2024-09-30T13:33:03.000Z</time>
      </trkpt>
      <trkpt lat="42.35649" lon="0.53844">
        <ele>910.34</ele>
        <time>2024-09-30T13:33:08.000Z</time>
      </trkpt>
      <trkpt lat="42.35662" lon="0.53835">
        <ele>910.92</ele>
        <time>2024-09-30T13:33:13.000Z</time>
      </trkpt>
      <trkpt lat="42.35673" lon="0.53826">
        <ele>911.5</ele>
        <time>2024-09-30T13:33:18.000Z</time>
      </trkpt>
      <trkpt lat="42.35685" lon="0.53816">
        <ele>912.08</ele>
        <time>2024-09-30T13:33:23.000Z</time>
      </trkpt>
      <trkpt lat="42.35697" lon="0.53805">
        <ele>912.67</ele>
        <time>2024-09-30T13:33:28.000Z</time>
      </trkpt>
      <trkpt lat="42.35708" lon="0.53794">
        <ele>913.26</ele>
        <time>2024-09-30T13:33:33.000Z</time>
      </trkpt>
      <trkpt lat="42.35718" lon="0.53781">
        <ele>913.87</ele>
        <time>2024-09-30T13:33:38.000Z</time>
      </trkpt>
      <trkpt lat="42.35729" lon="0.53768">
        <ele>914.52</ele>
        <time>2024-09-30T13:33:43.000Z</time>
      </trkpt>
      <trkpt lat="42.3574" lon="0.53755">
        <ele>915.21</ele>
        <time>2024-09-30T13:33:48.000Z</time>
      </trkpt>
      <trkpt lat="42.35753" lon="0.53743">
        <ele>915.9</ele>
        <time>2024-09-30T13:33:53.000Z</time>
      </trkpt>
      <trkpt lat="42.35765" lon="0.53729">
        <ele>916.58</ele>
        <time>2024-09-30T13:33:58.000Z</time>
      </trkpt>
      <trkpt lat="42.35778" lon="0.53716">
        <ele>917.27</ele>
        <time>2024-09-30T13:34:03.000Z</time>
      </trkpt>
      <trkpt lat="42.35792" lon="0.53701">
        <ele>917.98</ele>
        <time>2024-09-30T13:34:08.000Z</time>
      </trkpt>
      <trkpt lat="42.35805" lon="0.53687">
        <ele>918.72</ele>
        <time>2024-09-30T13:34:13.000Z</time>
      </trkpt>
      <trkpt lat="42.35819" lon="0.53672">
        <ele>919.48</ele>
        <time>2024-09-30T13:34:18.000Z</time>
      </trkpt>
      <trkpt lat="42.35831" lon="0.53658">
        <ele>920.24</ele>
        <time>2024-09-30T13:34:23.000Z</time>
      </trkpt>
      <trkpt lat="42.35843" lon="0.53643">
        <ele>920.98</ele>
        <time>2024-09-30T13:34:28.000Z</time>
      </trkpt>
      <trkpt lat="42.35854" lon="0.53626">
        <ele>921.7</ele>
        <time>2024-09-30T13:34:33.000Z</time>
      </trkpt>
      <trkpt lat="42.35866" lon="0.53609">
        <ele>922.42</ele>
        <time>2024-09-30T13:34:38.000Z</time>
      </trkpt>
      <trkpt lat="42.35875" lon="0.53593">
        <ele>923.13</ele>
        <time>2024-09-30T13:34:43.000Z</time>
      </trkpt>
      <trkpt lat="42.35883" lon="0.53575">
        <ele>923.8</ele>
        <time>2024-09-30T13:34:48.000Z</time>
      </trkpt>
      <trkpt lat="42.35893" lon="0.53555">
        <ele>924.47</ele>
        <time>2024-09-30T13:34:53.000Z</time>
      </trkpt>
      <trkpt lat="42.35902" lon="0.53534">
        <ele>925.11</ele>
        <time>2024-09-30T13:34:58.000Z</time>
      </trkpt>
      <trkpt lat="42.35913" lon="0.53511">
        <ele>925.75</ele>
        <time>2024-09-30T13:35:03.000Z</time>
      </trkpt>
      <trkpt lat="42.35922" lon="0.5349">
        <ele>927.22</ele>
        <time>2024-09-30T13:35:08.000Z</time>
      </trkpt>
      <trkpt lat="42.35933" lon="0.53468">
        <ele>931.05</ele>
        <time>2024-09-30T13:35:13.000Z</time>
      </trkpt>
      <trkpt lat="42.35945" lon="0.53443">
        <ele>932.82</ele>
        <time>2024-09-30T13:35:18.000Z</time>
      </trkpt>
      <trkpt lat="42.35958" lon="0.5342">
        <ele>933.79</ele>
        <time>2024-09-30T13:35:23.000Z</time>
      </trkpt>
      <trkpt lat="42.35972" lon="0.53394">
        <ele>934.39</ele>
        <time>2024-09-30T13:35:28.000Z</time>
      </trkpt>
      <trkpt lat="42.35989" lon="0.53364">
        <ele>934.87</ele>
        <time>2024-09-30T13:35:33.000Z</time>
      </trkpt>
      <trkpt lat="42.36009" lon="0.5333">
        <ele>935.91</ele>
        <time>2024-09-30T13:35:38.000Z</time>
      </trkpt>
      <trkpt lat="42.36037" lon="0.53282">
        <ele>936.95</ele>
        <time>2024-09-30T13:35:43.000Z</time>
      </trkpt>
      <trkpt lat="42.36063" lon="0.53237">
        <ele>938.71</ele>
        <time>2024-09-30T13:35:48.000Z</time>
      </trkpt>
      <trkpt lat="42.36083" lon="0.53202">
        <ele>940.28</ele>
        <time>2024-09-30T13:35:53.000Z</time>
      </trkpt>
      <trkpt lat="42.36099" lon="0.53174">
        <ele>941.14</ele>
        <time>2024-09-30T13:35:58.000Z</time>
      </trkpt>
      <trkpt lat="42.36112" lon="0.53152">
        <ele>941.36</ele>
        <time>2024-09-30T13:36:03.000Z</time>
      </trkpt>
      <trkpt lat="42.36124" lon="0.53131">
        <ele>941.83</ele>
        <time>2024-09-30T13:36:08.000Z</time>
      </trkpt>
      <trkpt lat="42.36134" lon="0.53111">
        <ele>942.11</ele>
        <time>2024-09-30T13:36:13.000Z</time>
      </trkpt>
      <trkpt lat="42.36145" lon="0.53091">
        <ele>942.15</ele>
        <time>2024-09-30T13:36:18.000Z</time>
      </trkpt>
      <trkpt lat="42.36156" lon="0.5307">
        <ele>942.38</ele>
        <time>2024-09-30T13:36:23.000Z</time>
      </trkpt>
      <trkpt lat="42.36166" lon="0.53049">
        <ele>942.71</ele>
        <time>2024-09-30T13:36:28.000Z</time>
      </trkpt>
      <trkpt lat="42.36176" lon="0.53029">
        <ele>942.97</ele>
        <time>2024-09-30T13:36:33.000Z</time>
      </trkpt>
      <trkpt lat="42.36187" lon="0.53008">
        <ele>943.96</ele>
        <time>2024-09-30T13:36:38.000Z</time>
      </trkpt>
      <trkpt lat="42.36198" lon="0.52988">
        <ele>944.27</ele>
        <time>2024-09-30T13:36:43.000Z</time>
      </trkpt>
      <trkpt lat="42.3621" lon="0.52969">
        <ele>944.41</ele>
        <time>2024-09-30T13:36:48.000Z</time>
      </trkpt>
      <trkpt lat="42.36221" lon="0.52953">
        <ele>944.59</ele>
        <time>2024-09-30T13:36:53.000Z</time>
      </trkpt>
      <trkpt lat="42.36232" lon="0.52937">
        <ele>944.81</ele>
        <time>2024-09-30T13:36:58.000Z</time>
      </trkpt>
      <trkpt lat="42.36244" lon="0.52922">
        <ele>945.05</ele>
        <time>2024-09-30T13:37:03.000Z</time>
      </trkpt>
      <trkpt lat="42.36256" lon="0.52907">
        <ele>945.32</ele>
        <time>2024-09-30T13:37:08.000Z</time>
      </trkpt>
      <trkpt lat="42.36268" lon="0.52892">
        <ele>946.07</ele>
        <time>2024-09-30T13:37:13.000Z</time>
      </trkpt>
      <trkpt lat="42.36281" lon="0.52876">
        <ele>946.76</ele>
        <time>2024-09-30T13:37:18.000Z</time>
      </trkpt>
      <trkpt lat="42.36294" lon="0.52861">
        <ele>946.98</ele>
        <time>2024-09-30T13:37:23.000Z</time>
      </trkpt>
      <trkpt lat="42.36308" lon="0.52845">
        <ele>947.2</ele>
        <time>2024-09-30T13:37:28.000Z</time>
      </trkpt>
      <trkpt lat="42.36321" lon="0.52829">
        <ele>947.79</ele>
        <time>2024-09-30T13:37:33.000Z</time>
      </trkpt>
      <trkpt lat="42.36334" lon="0.52812">
        <ele>948.26</ele>
        <time>2024-09-30T13:37:38.000Z</time>
      </trkpt>
      <trkpt lat="42.3635" lon="0.52794">
        <ele>949.5</ele>
        <time>2024-09-30T13:37:43.000Z</time>
      </trkpt>
      <trkpt lat="42.36364" lon="0.52779">
        <ele>950.07</ele>
        <time>2024-09-30T13:37:48.000Z</time>
      </trkpt>
      <trkpt lat="42.36378" lon="0.52762">
        <ele>950.38</ele>
        <time>2024-09-30T13:37:53.000Z</time>
      </trkpt>
      <trkpt lat="42.36391" lon="0.52746">
        <ele>950.49</ele>
        <time>2024-09-30T13:37:58.000Z</time>
      </trkpt>
      <trkpt lat="42.36405" lon="0.52731">
        <ele>950.52</ele>
        <time>2024-09-30T13:38:03.000Z</time>
      </trkpt>
      <trkpt lat="42.36417" lon="0.52715">
        <ele>950.56</ele>
        <time>2024-09-30T13:38:08.000Z</time>
      </trkpt>
      <trkpt lat="42.36428" lon="0.52702">
        <ele>950.61</ele>
        <time>2024-09-30T13:38:13.000Z</time>
      </trkpt>
      <trkpt lat="42.36436" lon="0.52693">
        <ele>950.67</ele>
        <time>2024-09-30T13:38:18.000Z</time>
      </trkpt>
      <trkpt lat="42.36444" lon="0.52683">
        <ele>950.74</ele>
        <time>2024-09-30T13:38:23.000Z</time>
      </trkpt>
      <trkpt lat="42.3645" lon="0.52673">
        <ele>950.82</ele>
        <time>2024-09-30T13:38:28.000Z</time>
      </trkpt>
      <trkpt lat="42.36457" lon="0.52665">
        <ele>950.91</ele>
        <time>2024-09-30T13:38:33.000Z</time>
      </trkpt>
      <trkpt lat="42.36463" lon="0.52655">
        <ele>951.02</ele>
        <time>2024-09-30T13:38:38.000Z</time>
      </trkpt>
      <trkpt lat="42.3647" lon="0.52645">
        <ele>951.15</ele>
        <time>2024-09-30T13:38:43.000Z</time>
      </trkpt>
      <trkpt lat="42.36477" lon="0.52634">
        <ele>951.29</ele>
        <time>2024-09-30T13:38:48.000Z</time>
      </trkpt>
      <trkpt lat="42.36484" lon="0.52623">
        <ele>951.46</ele>
        <time>2024-09-30T13:38:53.000Z</time>
      </trkpt>
      <trkpt lat="42.36491" lon="0.52611">
        <ele>951.65</ele>
        <time>2024-09-30T13:38:58.000Z</time>
      </trkpt>
      <trkpt lat="42.36498" lon="0.52597">
        <ele>951.86</ele>
        <time>2024-09-30T13:39:03.000Z</time>
      </trkpt>
      <trkpt lat="42.36506" lon="0.52578">
        <ele>952.1</ele>
        <time>2024-09-30T13:39:08.000Z</time>
      </trkpt>
      <trkpt lat="42.36514" lon="0.5256">
        <ele>952.35</ele>
        <time>2024-09-30T13:39:13.000Z</time>
      </trkpt>
      <trkpt lat="42.36522" lon="0.52541">
        <ele>952.62</ele>
        <time>2024-09-30T13:39:18.000Z</time>
      </trkpt>
      <trkpt lat="42.36527" lon="0.52523">
        <ele>952.9</ele>
        <time>2024-09-30T13:39:23.000Z</time>
      </trkpt>
      <trkpt lat="42.36532" lon="0.52505">
        <ele>953.2</ele>
        <time>2024-09-30T13:39:28.000Z</time>
      </trkpt>
      <trkpt lat="42.36538" lon="0.52484">
        <ele>953.49</ele>
        <time>2024-09-30T13:39:33.000Z</time>
      </trkpt>
      <trkpt lat="42.36544" lon="0.52459">
        <ele>955.5</ele>
        <time>2024-09-30T13:39:38.000Z</time>
      </trkpt>
      <trkpt lat="42.3655" lon="0.52429">
        <ele>956.39</ele>
        <time>2024-09-30T13:39:43.000Z</time>
      </trkpt>
      <trkpt lat="42.36557" lon="0.52393">
        <ele>956.79</ele>
        <time>2024-09-30T13:39:48.000Z</time>
      </trkpt>
      <trkpt lat="42.36566" lon="0.5235">
        <ele>957.07</ele>
        <time>2024-09-30T13:39:53.000Z</time>
      </trkpt>
      <trkpt lat="42.36576" lon="0.52301">
        <ele>957.26</ele>
        <time>2024-09-30T13:39:58.000Z</time>
      </trkpt>
      <trkpt lat="42.36586" lon="0.52251">
        <ele>957.4</ele>
        <time>2024-09-30T13:40:03.000Z</time>
      </trkpt>
      <trkpt lat="42.36596" lon="0.52203">
        <ele>957.7</ele>
        <time>2024-09-30T13:40:08.000Z</time>
      </trkpt>
      <trkpt lat="42.36605" lon="0.52164">
        <ele>958.24</ele>
        <time>2024-09-30T13:40:13.000Z</time>
      </trkpt>
      <trkpt lat="42.36611" lon="0.52133">
        <ele>958.89</ele>
        <time>2024-09-30T13:40:18.000Z</time>
      </trkpt>
      <trkpt lat="42.36617" lon="0.52104">
        <ele>959.82</ele>
        <time>2024-09-30T13:40:23.000Z</time>
      </trkpt>
      <trkpt lat="42.36623" lon="0.52078">
        <ele>960.93</ele>
        <time>2024-09-30T13:40:28.000Z</time>
      </trkpt>
      <trkpt lat="42.36627" lon="0.52053">
        <ele>961.62</ele>
        <time>2024-09-30T13:40:33.000Z</time>
      </trkpt>
      <trkpt lat="42.3663" lon="0.52031">
        <ele>961.77</ele>
        <time>2024-09-30T13:40:38.000Z</time>
      </trkpt>
      <trkpt lat="42.36634" lon="0.52009">
        <ele>961.96</ele>
        <time>2024-09-30T13:40:43.000Z</time>
      </trkpt>
      <trkpt lat="42.36639" lon="0.51989">
        <ele>962.21</ele>
        <time>2024-09-30T13:40:48.000Z</time>
      </trkpt>
      <trkpt lat="42.36644" lon="0.51969">
        <ele>962.56</ele>
        <time>2024-09-30T13:40:53.000Z</time>
      </trkpt>
      <trkpt lat="42.36647" lon="0.51953">
        <ele>962.94</ele>
        <time>2024-09-30T13:40:58.000Z</time>
      </trkpt>
      <trkpt lat="42.3665" lon="0.51938">
        <ele>963.33</ele>
        <time>2024-09-30T13:41:03.000Z</time>
      </trkpt>
      <trkpt lat="42.36653" lon="0.51922">
        <ele>963.73</ele>
        <time>2024-09-30T13:41:08.000Z</time>
      </trkpt>
      <trkpt lat="42.36657" lon="0.51907">
        <ele>964.16</ele>
        <time>2024-09-30T13:41:13.000Z</time>
      </trkpt>
      <trkpt lat="42.3666" lon="0.51891">
        <ele>964.6</ele>
        <time>2024-09-30T13:41:18.000Z</time>
      </trkpt>
      <trkpt lat="42.36664" lon="0.51876">
        <ele>965.05</ele>
        <time>2024-09-30T13:41:23.000Z</time>
      </trkpt>
      <trkpt lat="42.36667" lon="0.5186">
        <ele>965.51</ele>
        <time>2024-09-30T13:41:28.000Z</time>
      </trkpt>
      <trkpt lat="42.3667" lon="0.51844">
        <ele>965.99</ele>
        <time>2024-09-30T13:41:33.000Z</time>
      </trkpt>
      <trkpt lat="42.36673" lon="0.51828">
        <ele>966.47</ele>
        <time>2024-09-30T13:41:38.000Z</time>
      </trkpt>
      <trkpt lat="42.36676" lon="0.51813">
        <ele>966.94</ele>
        <time>2024-09-30T13:41:43.000Z</time>
      </trkpt>
      <trkpt lat="42.36679" lon="0.51799">
        <ele>967.4</ele>
        <time>2024-09-30T13:41:48.000Z</time>
      </trkpt>
      <trkpt lat="42.36682" lon="0.51786">
        <ele>967.87</ele>
        <time>2024-09-30T13:41:53.000Z</time>
      </trkpt>
      <trkpt lat="42.36684" lon="0.51773">
        <ele>969.25</ele>
        <time>2024-09-30T13:42:53.000Z</time>
      </trkpt>
      <trkpt lat="42.36685" lon="0.51759">
        <ele>969.84</ele>
        <time>2024-09-30T13:42:59.000Z</time>
      </trkpt>
      <trkpt lat="42.36689" lon="0.51745">
        <ele>970.31</ele>
        <time>2024-09-30T13:43:04.000Z</time>
      </trkpt>
      <trkpt lat="42.36692" lon="0.51731">
        <ele>970.77</ele>
        <time>2024-09-30T13:43:09.000Z</time>
      </trkpt>
      <trkpt lat="42.36694" lon="0.51716">
        <ele>971.2</ele>
        <time>2024-09-30T13:43:14.000Z</time>
      </trkpt>
      <trkpt lat="42.36697" lon="0.51702">
        <ele>971.61</ele>
        <time>2024-09-30T13:43:19.000Z</time>
      </trkpt>
      <trkpt lat="42.367" lon="0.51688">
        <ele>972.01</ele>
        <time>2024-09-30T13:43:24.000Z</time>
      </trkpt>
      <trkpt lat="42.36703" lon="0.51673">
        <ele>972.4</ele>
        <time>2024-09-30T13:43:29.000Z</time>
      </trkpt>
      <trkpt lat="42.36706" lon="0.51657">
        <ele>972.77</ele>
        <time>2024-09-30T13:43:34.000Z</time>
      </trkpt>
      <trkpt lat="42.36709" lon="0.51641">
        <ele>973.13</ele>
        <time>2024-09-30T13:43:39.000Z</time>
      </trkpt>
      <trkpt lat="42.36712" lon="0.51625">
        <ele>973.49</ele>
        <time>2024-09-30T13:43:44.000Z</time>
      </trkpt>
      <trkpt lat="42.36716" lon="0.51609">
        <ele>973.83</ele>
        <time>2024-09-30T13:43:49.000Z</time>
      </trkpt>
      <trkpt lat="42.36719" lon="0.51591">
        <ele>974.17</ele>
        <time>2024-09-30T13:43:54.000Z</time>
      </trkpt>
      <trkpt lat="42.36724" lon="0.51573">
        <ele>974.51</ele>
        <time>2024-09-30T13:43:59.000Z</time>
      </trkpt>
      <trkpt lat="42.36727" lon="0.51554">
        <ele>974.86</ele>
        <time>2024-09-30T13:44:04.000Z</time>
      </trkpt>
      <trkpt lat="42.36732" lon="0.51531">
        <ele>975.27</ele>
        <time>2024-09-30T13:44:09.999Z</time>
      </trkpt>
      <trkpt lat="42.36736" lon="0.51512">
        <ele>975.59</ele>
        <time>2024-09-30T13:44:14.999Z</time>
      </trkpt>
      <trkpt lat="42.36739" lon="0.51493">
        <ele>975.9</ele>
        <time>2024-09-30T13:44:19.999Z</time>
      </trkpt>
      <trkpt lat="42.36743" lon="0.51474">
        <ele>976.21</ele>
        <time>2024-09-30T13:44:24.999Z</time>
      </trkpt>
      <trkpt lat="42.36747" lon="0.51455">
        <ele>976.5</ele>
        <time>2024-09-30T13:44:29.999Z</time>
      </trkpt>
      <trkpt lat="42.3675" lon="0.51438">
        <ele>976.81</ele>
        <time>2024-09-30T13:44:34.999Z</time>
      </trkpt>
      <trkpt lat="42.36753" lon="0.51421">
        <ele>977.11</ele>
        <time>2024-09-30T13:44:39.999Z</time>
      </trkpt>
      <trkpt lat="42.36757" lon="0.51406">
        <ele>977.42</ele>
        <time>2024-09-30T13:44:44.999Z</time>
      </trkpt>
      <trkpt lat="42.36761" lon="0.5139">
        <ele>977.73</ele>
        <time>2024-09-30T13:44:49.999Z</time>
      </trkpt>
      <trkpt lat="42.36765" lon="0.51375">
        <ele>978.04</ele>
        <time>2024-09-30T13:44:54.999Z</time>
      </trkpt>
      <trkpt lat="42.36771" lon="0.5136">
        <ele>978.36</ele>
        <time>2024-09-30T13:44:59.999Z</time>
      </trkpt>
      <trkpt lat="42.36776" lon="0.51345">
        <ele>978.66</ele>
        <time>2024-09-30T13:45:04.999Z</time>
      </trkpt>
      <trkpt lat="42.36782" lon="0.5133">
        <ele>978.98</ele>
        <time>2024-09-30T13:45:09.999Z</time>
      </trkpt>
      <trkpt lat="42.36789" lon="0.51315">
        <ele>979.31</ele>
        <time>2024-09-30T13:45:14.999Z</time>
      </trkpt>
      <trkpt lat="42.36796" lon="0.51301">
        <ele>979.65</ele>
        <time>2024-09-30T13:45:19.999Z</time>
      </trkpt>
      <trkpt lat="42.36803" lon="0.51288">
        <ele>979.99</ele>
        <time>2024-09-30T13:45:24.999Z</time>
      </trkpt>
      <trkpt lat="42.36811" lon="0.51275">
        <ele>980.32</ele>
        <time>2024-09-30T13:45:29.999Z</time>
      </trkpt>
      <trkpt lat="42.36819" lon="0.51262">
        <ele>980.65</ele>
        <time>2024-09-30T13:45:34.999Z</time>
      </trkpt>
      <trkpt lat="42.36827" lon="0.5125">
        <ele>980.97</ele>
        <time>2024-09-30T13:45:39.999Z</time>
      </trkpt>
      <trkpt lat="42.36835" lon="0.51237">
        <ele>981.28</ele>
        <time>2024-09-30T13:45:44.999Z</time>
      </trkpt>
      <trkpt lat="42.36843" lon="0.51225">
        <ele>981.59</ele>
        <time>2024-09-30T13:45:49.999Z</time>
      </trkpt>
      <trkpt lat="42.36851" lon="0.51213">
        <ele>981.89</ele>
        <time>2024-09-30T13:45:54.999Z</time>
      </trkpt>
      <trkpt lat="42.36859" lon="0.512">
        <ele>982.19</ele>
        <time>2024-09-30T13:45:59.999Z</time>
      </trkpt>
      <trkpt lat="42.36867" lon="0.51188">
        <ele>982.49</ele>
        <time>2024-09-30T13:46:04.999Z</time>
      </trkpt>
      <trkpt lat="42.36875" lon="0.51175">
        <ele>982.79</ele>
        <time>2024-09-30T13:46:09.999Z</time>
      </trkpt>
      <trkpt lat="42.36883" lon="0.51163">
        <ele>983.09</ele>
        <time>2024-09-30T13:46:14.999Z</time>
      </trkpt>
      <trkpt lat="42.36891" lon="0.5115">
        <ele>983.39</ele>
        <time>2024-09-30T13:46:19.999Z</time>
      </trkpt>
      <trkpt lat="42.36898" lon="0.51136">
        <ele>983.68</ele>
        <time>2024-09-30T13:46:24.999Z</time>
      </trkpt>
      <trkpt lat="42.36905" lon="0.5112">
        <ele>983.97</ele>
        <time>2024-09-30T13:46:29.999Z</time>
      </trkpt>
      <trkpt lat="42.36911" lon="0.51104">
        <ele>984.26</ele>
        <time>2024-09-30T13:46:34.999Z</time>
      </trkpt>
      <trkpt lat="42.36916" lon="0.51086">
        <ele>984.54</ele>
        <time>2024-09-30T13:46:39.999Z</time>
      </trkpt>
      <trkpt lat="42.36922" lon="0.51068">
        <ele>984.81</ele>
        <time>2024-09-30T13:46:44.999Z</time>
      </trkpt>
      <trkpt lat="42.36925" lon="0.5105">
        <ele>985.09</ele>
        <time>2024-09-30T13:46:49.999Z</time>
      </trkpt>
      <trkpt lat="42.36927" lon="0.5103">
        <ele>985.36</ele>
        <time>2024-09-30T13:46:54.999Z</time>
      </trkpt>
      <trkpt lat="42.36928" lon="0.51012">
        <ele>985.61</ele>
        <time>2024-09-30T13:46:59.999Z</time>
      </trkpt>
      <trkpt lat="42.36928" lon="0.50996">
        <ele>985.85</ele>
        <time>2024-09-30T13:47:04.999Z</time>
      </trkpt>
      <trkpt lat="42.36928" lon="0.5098">
        <ele>986.07</ele>
        <time>2024-09-30T13:47:09.999Z</time>
      </trkpt>
      <trkpt lat="42.36929" lon="0.50966">
        <ele>986.28</ele>
        <time>2024-09-30T13:47:14.999Z</time>
      </trkpt>
      <trkpt lat="42.36929" lon="0.50951">
        <ele>986.49</ele>
        <time>2024-09-30T13:47:19.999Z</time>
      </trkpt>
      <trkpt lat="42.36929" lon="0.50936">
        <ele>986.68</ele>
        <time>2024-09-30T13:47:24.999Z</time>
      </trkpt>
      <trkpt lat="42.3693" lon="0.50921">
        <ele>986.87</ele>
        <time>2024-09-30T13:47:29.999Z</time>
      </trkpt>
      <trkpt lat="42.3693" lon="0.50907">
        <ele>987.05</ele>
        <time>2024-09-30T13:47:34.999Z</time>
      </trkpt>
      <trkpt lat="42.36931" lon="0.50893">
        <ele>987.23</ele>
        <time>2024-09-30T13:47:39.999Z</time>
      </trkpt>
      <trkpt lat="42.36931" lon="0.50879">
        <ele>987.41</ele>
        <time>2024-09-30T13:47:44.999Z</time>
      </trkpt>
      <trkpt lat="42.36932" lon="0.50864">
        <ele>987.59</ele>
        <time>2024-09-30T13:47:49.999Z</time>
      </trkpt>
      <trkpt lat="42.36934" lon="0.5085">
        <ele>987.77</ele>
        <time>2024-09-30T13:47:54.999Z</time>
      </trkpt>
      <trkpt lat="42.36937" lon="0.50835">
        <ele>987.95</ele>
        <time>2024-09-30T13:47:59.999Z</time>
      </trkpt>
      <trkpt lat="42.36941" lon="0.5082">
        <ele>988.12</ele>
        <time>2024-09-30T13:48:04.999Z</time>
      </trkpt>
      <trkpt lat="42.36945" lon="0.50808">
        <ele>988.3</ele>
        <time>2024-09-30T13:48:09.999Z</time>
      </trkpt>
      <trkpt lat="42.36951" lon="0.50795">
        <ele>988.47</ele>
        <time>2024-09-30T13:48:14.999Z</time>
      </trkpt>
      <trkpt lat="42.36957" lon="0.50783">
        <ele>988.65</ele>
        <time>2024-09-30T13:48:19.999Z</time>
      </trkpt>
      <trkpt lat="42.36965" lon="0.5077">
        <ele>988.84</ele>
        <time>2024-09-30T13:48:24.999Z</time>
      </trkpt>
      <trkpt lat="42.36973" lon="0.50758">
        <ele>989.03</ele>
        <time>2024-09-30T13:48:29.999Z</time>
      </trkpt>
      <trkpt lat="42.36981" lon="0.50746">
        <ele>989.22</ele>
        <time>2024-09-30T13:48:34.999Z</time>
      </trkpt>
      <trkpt lat="42.3699" lon="0.50735">
        <ele>989.41</ele>
        <time>2024-09-30T13:48:39.999Z</time>
      </trkpt>
      <trkpt lat="42.36999" lon="0.50721">
        <ele>989.61</ele>
        <time>2024-09-30T13:48:44.999Z</time>
      </trkpt>
      <trkpt lat="42.37007" lon="0.5071">
        <ele>989.81</ele>
        <time>2024-09-30T13:48:49.999Z</time>
      </trkpt>
      <trkpt lat="42.37016" lon="0.50698">
        <ele>990.02</ele>
        <time>2024-09-30T13:48:54.999Z</time>
      </trkpt>
      <trkpt lat="42.37024" lon="0.50687">
        <ele>990.23</ele>
        <time>2024-09-30T13:48:59.999Z</time>
      </trkpt>
      <trkpt lat="42.37033" lon="0.50673">
        <ele>990.44</ele>
        <time>2024-09-30T13:49:04.999Z</time>
      </trkpt>
      <trkpt lat="42.37041" lon="0.50661">
        <ele>990.64</ele>
        <time>2024-09-30T13:49:09.999Z</time>
      </trkpt>
      <trkpt lat="42.37049" lon="0.50649">
        <ele>990.84</ele>
        <time>2024-09-30T13:49:14.999Z</time>
      </trkpt>
      <trkpt lat="42.37056" lon="0.50636">
        <ele>991.03</ele>
        <time>2024-09-30T13:49:19.999Z</time>
      </trkpt>
      <trkpt lat="42.37063" lon="0.50621">
        <ele>991.23</ele>
        <time>2024-09-30T13:49:24.999Z</time>
      </trkpt>
      <trkpt lat="42.3707" lon="0.50606">
        <ele>991.43</ele>
        <time>2024-09-30T13:49:29.999Z</time>
      </trkpt>
      <trkpt lat="42.37076" lon="0.50591">
        <ele>991.64</ele>
        <time>2024-09-30T13:49:34.999Z</time>
      </trkpt>
      <trkpt lat="42.3708" lon="0.50575">
        <ele>991.84</ele>
        <time>2024-09-30T13:49:39.999Z</time>
      </trkpt>
      <trkpt lat="42.37084" lon="0.5056">
        <ele>992.05</ele>
        <time>2024-09-30T13:49:44.999Z</time>
      </trkpt>
      <trkpt lat="42.37087" lon="0.50544">
        <ele>992.26</ele>
        <time>2024-09-30T13:49:49.999Z</time>
      </trkpt>
      <trkpt lat="42.37089" lon="0.50527">
        <ele>992.46</ele>
        <time>2024-09-30T13:49:54.999Z</time>
      </trkpt>
      <trkpt lat="42.37091" lon="0.50511">
        <ele>992.67</ele>
        <time>2024-09-30T13:49:59.999Z</time>
      </trkpt>
      <trkpt lat="42.37092" lon="0.50497">
        <ele>992.87</ele>
        <time>2024-09-30T13:50:04.999Z</time>
      </trkpt>
      <trkpt lat="42.37093" lon="0.50481">
        <ele>993.07</ele>
        <time>2024-09-30T13:50:09.999Z</time>
      </trkpt>
      <trkpt lat="42.37093" lon="0.50465">
        <ele>993.27</ele>
        <time>2024-09-30T13:50:14.999Z</time>
      </trkpt>
      <trkpt lat="42.37094" lon="0.50449">
        <ele>993.45</ele>
        <time>2024-09-30T13:50:19.999Z</time>
      </trkpt>
      <trkpt lat="42.37095" lon="0.50432">
        <ele>993.62</ele>
        <time>2024-09-30T13:50:24.999Z</time>
      </trkpt>
      <trkpt lat="42.37096" lon="0.50415">
        <ele>993.79</ele>
        <time>2024-09-30T13:50:29.999Z</time>
      </trkpt>
      <trkpt lat="42.37098" lon="0.50399">
        <ele>993.95</ele>
        <time>2024-09-30T13:50:34.999Z</time>
      </trkpt>
      <trkpt lat="42.371" lon="0.50383">
        <ele>994.1</ele>
        <time>2024-09-30T13:50:39.999Z</time>
      </trkpt>
      <trkpt lat="42.37102" lon="0.50366">
        <ele>994.25</ele>
        <time>2024-09-30T13:50:44.999Z</time>
      </trkpt>
      <trkpt lat="42.37103" lon="0.5035">
        <ele>994.4</ele>
        <time>2024-09-30T13:50:49.999Z</time>
      </trkpt>
      <trkpt lat="42.37104" lon="0.50334">
        <ele>994.56</ele>
        <time>2024-09-30T13:50:54.999Z</time>
      </trkpt>
      <trkpt lat="42.37105" lon="0.50317">
        <ele>994.71</ele>
        <time>2024-09-30T13:50:59.999Z</time>
      </trkpt>
      <trkpt lat="42.37105" lon="0.503">
        <ele>994.86</ele>
        <time>2024-09-30T13:51:04.999Z</time>
      </trkpt>
      <trkpt lat="42.37106" lon="0.50284">
        <ele>995</ele>
        <time>2024-09-30T13:51:09.999Z</time>
      </trkpt>
      <trkpt lat="42.37106" lon="0.50268">
        <ele>995.14</ele>
        <time>2024-09-30T13:51:14.999Z</time>
      </trkpt>
      <trkpt lat="42.37105" lon="0.50251">
        <ele>995.29</ele>
        <time>2024-09-30T13:51:19.999Z</time>
      </trkpt>
      <trkpt lat="42.37104" lon="0.50235">
        <ele>995.44</ele>
        <time>2024-09-30T13:51:24.999Z</time>
      </trkpt>
      <trkpt lat="42.37102" lon="0.50219">
        <ele>995.6</ele>
        <time>2024-09-30T13:51:29.999Z</time>
      </trkpt>
      <trkpt lat="42.37101" lon="0.50203">
        <ele>995.76</ele>
        <time>2024-09-30T13:51:34.999Z</time>
      </trkpt>
      <trkpt lat="42.371" lon="0.50186">
        <ele>995.93</ele>
        <time>2024-09-30T13:51:39.999Z</time>
      </trkpt>
      <trkpt lat="42.37098" lon="0.50171">
        <ele>996.1</ele>
        <time>2024-09-30T13:51:44.999Z</time>
      </trkpt>
      <trkpt lat="42.37096" lon="0.50156">
        <ele>996.27</ele>
        <time>2024-09-30T13:51:49.999Z</time>
      </trkpt>
      <trkpt lat="42.37094" lon="0.50142">
        <ele>996.45</ele>
        <time>2024-09-30T13:51:54.999Z</time>
      </trkpt>
      <trkpt lat="42.37092" lon="0.50127">
        <ele>996.64</ele>
        <time>2024-09-30T13:51:59.999Z</time>
      </trkpt>
      <trkpt lat="42.37089" lon="0.50109">
        <ele>996.83</ele>
        <time>2024-09-30T13:52:04.999Z</time>
      </trkpt>
      <trkpt lat="42.37087" lon="0.50092">
        <ele>997.03</ele>
        <time>2024-09-30T13:52:09.999Z</time>
      </trkpt>
      <trkpt lat="42.37086" lon="0.50075">
        <ele>997.24</ele>
        <time>2024-09-30T13:52:14.999Z</time>
      </trkpt>
      <trkpt lat="42.37085" lon="0.50061">
        <ele>997.46</ele>
        <time>2024-09-30T13:52:19.999Z</time>
      </trkpt>
      <trkpt lat="42.37083" lon="0.50045">
        <ele>997.69</ele>
        <time>2024-09-30T13:52:24.999Z</time>
      </trkpt>
      <trkpt lat="42.37082" lon="0.5003">
        <ele>997.93</ele>
        <time>2024-09-30T13:52:29.999Z</time>
      </trkpt>
      <trkpt lat="42.37081" lon="0.50016">
        <ele>998.17</ele>
        <time>2024-09-30T13:52:34.999Z</time>
      </trkpt>
      <trkpt lat="42.37081" lon="0.50002">
        <ele>998.41</ele>
        <time>2024-09-30T13:52:39.999Z</time>
      </trkpt>
      <trkpt lat="42.37082" lon="0.49987">
        <ele>998.64</ele>
        <time>2024-09-30T13:52:44.999Z</time>
      </trkpt>
      <trkpt lat="42.37082" lon="0.49972">
        <ele>998.86</ele>
        <time>2024-09-30T13:52:49.999Z</time>
      </trkpt>
      <trkpt lat="42.37083" lon="0.49958">
        <ele>999.08</ele>
        <time>2024-09-30T13:52:54.999Z</time>
      </trkpt>
      <trkpt lat="42.37084" lon="0.49945">
        <ele>999.3</ele>
        <time>2024-09-30T13:52:59.999Z</time>
      </trkpt>
      <trkpt lat="42.37085" lon="0.4993">
        <ele>999.53</ele>
        <time>2024-09-30T13:53:04.999Z</time>
      </trkpt>
      <trkpt lat="42.37087" lon="0.49915">
        <ele>999.75</ele>
        <time>2024-09-30T13:53:09.999Z</time>
      </trkpt>
      <trkpt lat="42.37089" lon="0.499">
        <ele>999.99</ele>
        <time>2024-09-30T13:53:14.999Z</time>
      </trkpt>
      <trkpt lat="42.3709" lon="0.49885">
        <ele>1000.21</ele>
        <time>2024-09-30T13:53:19.999Z</time>
      </trkpt>
      <trkpt lat="42.37092" lon="0.49871">
        <ele>1000.44</ele>
        <time>2024-09-30T13:53:24.999Z</time>
      </trkpt>
      <trkpt lat="42.37094" lon="0.49857">
        <ele>1000.68</ele>
        <time>2024-09-30T13:53:29.999Z</time>
      </trkpt>
      <trkpt lat="42.37095" lon="0.49842">
        <ele>1000.91</ele>
        <time>2024-09-30T13:53:34.999Z</time>
      </trkpt>
      <trkpt lat="42.37097" lon="0.49826">
        <ele>1001.15</ele>
        <time>2024-09-30T13:53:39.999Z</time>
      </trkpt>
      <trkpt lat="42.37099" lon="0.49811">
        <ele>1001.38</ele>
        <time>2024-09-30T13:53:44.999Z</time>
      </trkpt>
      <trkpt lat="42.37101" lon="0.49797">
        <ele>1001.61</ele>
        <time>2024-09-30T13:53:49.999Z</time>
      </trkpt>
      <trkpt lat="42.37103" lon="0.49783">
        <ele>1001.84</ele>
        <time>2024-09-30T13:53:54.999Z</time>
      </trkpt>
      <trkpt lat="42.37106" lon="0.49769">
        <ele>1002.06</ele>
        <time>2024-09-30T13:53:59.999Z</time>
      </trkpt>
      <trkpt lat="42.37109" lon="0.49755">
        <ele>1002.29</ele>
        <time>2024-09-30T13:54:04.999Z</time>
      </trkpt>
      <trkpt lat="42.37111" lon="0.49742">
        <ele>1002.51</ele>
        <time>2024-09-30T13:54:09.999Z</time>
      </trkpt>
      <trkpt lat="42.37115" lon="0.49729">
        <ele>1002.75</ele>
        <time>2024-09-30T13:54:14.999Z</time>
      </trkpt>
      <trkpt lat="42.37119" lon="0.49716">
        <ele>1002.98</ele>
        <time>2024-09-30T13:54:19.999Z</time>
      </trkpt>
      <trkpt lat="42.37124" lon="0.49704">
        <ele>1003.21</ele>
        <time>2024-09-30T13:54:24.999Z</time>
      </trkpt>
      <trkpt lat="42.3713" lon="0.4969">
        <ele>1003.44</ele>
        <time>2024-09-30T13:54:29.999Z</time>
      </trkpt>
      <trkpt lat="42.37135" lon="0.49679">
        <ele>1003.67</ele>
        <time>2024-09-30T13:54:34.999Z</time>
      </trkpt>
      <trkpt lat="42.3714" lon="0.49666">
        <ele>1003.94</ele>
        <time>2024-09-30T13:54:40.999Z</time>
      </trkpt>
      <trkpt lat="42.37146" lon="0.49655">
        <ele>1004.22</ele>
        <time>2024-09-30T13:54:46.999Z</time>
      </trkpt>
      <trkpt lat="42.37151" lon="0.49643">
        <ele>1004.49</ele>
        <time>2024-09-30T13:54:52.999Z</time>
      </trkpt>
      <trkpt lat="42.37157" lon="0.49632">
        <ele>1004.77</ele>
        <time>2024-09-30T13:54:58.999Z</time>
      </trkpt>
      <trkpt lat="42.37162" lon="0.49621">
        <ele>1005.03</ele>
        <time>2024-09-30T13:55:04.999Z</time>
      </trkpt>
      <trkpt lat="42.37167" lon="0.4961">
        <ele>1005.3</ele>
        <time>2024-09-30T13:55:10.999Z</time>
      </trkpt>
      <trkpt lat="42.37172" lon="0.49599">
        <ele>1005.56</ele>
        <time>2024-09-30T13:55:16.999Z</time>
      </trkpt>
      <trkpt lat="42.37177" lon="0.49588">
        <ele>1005.81</ele>
        <time>2024-09-30T13:55:22.999Z</time>
      </trkpt>
      <trkpt lat="42.37182" lon="0.49578">
        <ele>1006.07</ele>
        <time>2024-09-30T13:55:28.999Z</time>
      </trkpt>
      <trkpt lat="42.37186" lon="0.49567">
        <ele>1006.32</ele>
        <time>2024-09-30T13:55:34.999Z</time>
      </trkpt>
      <trkpt lat="42.37191" lon="0.49556">
        <ele>1006.57</ele>
        <time>2024-09-30T13:55:40.999Z</time>
      </trkpt>
      <trkpt lat="42.37195" lon="0.49544">
        <ele>1006.82</ele>
        <time>2024-09-30T13:55:46.999Z</time>
      </trkpt>
      <trkpt lat="42.372" lon="0.49532">
        <ele>1007.07</ele>
        <time>2024-09-30T13:55:52.999Z</time>
      </trkpt>
      <trkpt lat="42.37205" lon="0.49521">
        <ele>1007.32</ele>
        <time>2024-09-30T13:55:58.999Z</time>
      </trkpt>
      <trkpt lat="42.37209" lon="0.49509">
        <ele>1007.57</ele>
        <time>2024-09-30T13:56:05.000Z</time>
      </trkpt>
      <trkpt lat="42.37213" lon="0.49497">
        <ele>1007.82</ele>
        <time>2024-09-30T13:56:11.000Z</time>
      </trkpt>
      <trkpt lat="42.37217" lon="0.49485">
        <ele>1008.07</ele>
        <time>2024-09-30T13:56:17.000Z</time>
      </trkpt>
      <trkpt lat="42.37221" lon="0.49473">
        <ele>1008.33</ele>
        <time>2024-09-30T13:56:23.000Z</time>
      </trkpt>
      <trkpt lat="42.37225" lon="0.49461">
        <ele>1008.6</ele>
        <time>2024-09-30T13:56:29.000Z</time>
      </trkpt>
      <trkpt lat="42.37229" lon="0.49449">
        <ele>1008.91</ele>
        <time>2024-09-30T13:56:35.000Z</time>
      </trkpt>
      <trkpt lat="42.37232" lon="0.49436">
        <ele>1009.24</ele>
        <time>2024-09-30T13:56:41.000Z</time>
      </trkpt>
      <trkpt lat="42.37236" lon="0.49423">
        <ele>1009.63</ele>
        <time>2024-09-30T13:56:47.000Z</time>
      </trkpt>
      <trkpt lat="42.37239" lon="0.4941">
        <ele>1010.06</ele>
        <time>2024-09-30T13:56:53.000Z</time>
      </trkpt>
      <trkpt lat="42.37241" lon="0.49397">
        <ele>1010.52</ele>
        <time>2024-09-30T13:56:59.000Z</time>
      </trkpt>
      <trkpt lat="42.37244" lon="0.49384">
        <ele>1011.01</ele>
        <time>2024-09-30T13:57:05.000Z</time>
      </trkpt>
      <trkpt lat="42.37247" lon="0.49372">
        <ele>1011.53</ele>
        <time>2024-09-30T13:57:11.000Z</time>
      </trkpt>
      <trkpt lat="42.3725" lon="0.49359">
        <ele>1012.11</ele>
        <time>2024-09-30T13:57:17.000Z</time>
      </trkpt>
      <trkpt lat="42.37253" lon="0.49345">
        <ele>1012.72</ele>
        <time>2024-09-30T13:57:23.000Z</time>
      </trkpt>
      <trkpt lat="42.37255" lon="0.49332">
        <ele>1013.38</ele>
        <time>2024-09-30T13:57:29.000Z</time>
      </trkpt>
      <trkpt lat="42.37257" lon="0.49319">
        <ele>1014.09</ele>
        <time>2024-09-30T13:57:35.000Z</time>
      </trkpt>
      <trkpt lat="42.37259" lon="0.49307">
        <ele>1014.82</ele>
        <time>2024-09-30T13:57:41.000Z</time>
      </trkpt>
      <trkpt lat="42.37261" lon="0.49294">
        <ele>1015.58</ele>
        <time>2024-09-30T13:57:47.000Z</time>
      </trkpt>
      <trkpt lat="42.37264" lon="0.49281">
        <ele>1016.35</ele>
        <time>2024-09-30T13:57:53.000Z</time>
      </trkpt>
      <trkpt lat="42.37266" lon="0.49268">
        <ele>1017.14</ele>
        <time>2024-09-30T13:57:59.000Z</time>
      </trkpt>
      <trkpt lat="42.37268" lon="0.49256">
        <ele>1017.8</ele>
        <time>2024-09-30T13:58:04.000Z</time>
      </trkpt>
      <trkpt lat="42.37271" lon="0.49243">
        <ele>1018.46</ele>
        <time>2024-09-30T13:58:09.000Z</time>
      </trkpt>
      <trkpt lat="42.37273" lon="0.4923">
        <ele>1019.11</ele>
        <time>2024-09-30T13:58:14.000Z</time>
      </trkpt>
      <trkpt lat="42.37275" lon="0.49217">
        <ele>1019.76</ele>
        <time>2024-09-30T13:58:19.000Z</time>
      </trkpt>
      <trkpt lat="42.37277" lon="0.49202">
        <ele>1020.39</ele>
        <time>2024-09-30T13:58:24.000Z</time>
      </trkpt>
      <trkpt lat="42.3728" lon="0.49187">
        <ele>1021.03</ele>
        <time>2024-09-30T13:58:29.000Z</time>
      </trkpt>
      <trkpt lat="42.37284" lon="0.49171">
        <ele>1021.65</ele>
        <time>2024-09-30T13:58:34.000Z</time>
      </trkpt>
      <trkpt lat="42.37287" lon="0.49155">
        <ele>1022.27</ele>
        <time>2024-09-30T13:58:39.000Z</time>
      </trkpt>
      <trkpt lat="42.3729" lon="0.49137">
        <ele>1022.89</ele>
        <time>2024-09-30T13:58:44.000Z</time>
      </trkpt>
      <trkpt lat="42.37293" lon="0.49118">
        <ele>1023.5</ele>
        <time>2024-09-30T13:58:49.000Z</time>
      </trkpt>
      <trkpt lat="42.37296" lon="0.491">
        <ele>1024.1</ele>
        <time>2024-09-30T13:58:54.000Z</time>
      </trkpt>
      <trkpt lat="42.373" lon="0.4908">
        <ele>1024.69</ele>
        <time>2024-09-30T13:58:59.000Z</time>
      </trkpt>
      <trkpt lat="42.37303" lon="0.49061">
        <ele>1025.28</ele>
        <time>2024-09-30T13:59:04.000Z</time>
      </trkpt>
      <trkpt lat="42.37307" lon="0.49041">
        <ele>1025.86</ele>
        <time>2024-09-30T13:59:09.000Z</time>
      </trkpt>
      <trkpt lat="42.3731" lon="0.4902">
        <ele>1026.44</ele>
        <time>2024-09-30T13:59:14.000Z</time>
      </trkpt>
      <trkpt lat="42.37315" lon="0.48998">
        <ele>1027.01</ele>
        <time>2024-09-30T13:59:19.000Z</time>
      </trkpt>
      <trkpt lat="42.37319" lon="0.48976">
        <ele>1027.59</ele>
        <time>2024-09-30T13:59:24.000Z</time>
      </trkpt>
      <trkpt lat="42.37324" lon="0.4895">
        <ele>1030.72</ele>
        <time>2024-09-30T13:59:29.000Z</time>
      </trkpt>
      <trkpt lat="42.37329" lon="0.48926">
        <ele>1032.44</ele>
        <time>2024-09-30T13:59:34.000Z</time>
      </trkpt>
      <trkpt lat="42.37334" lon="0.48901">
        <ele>1034.15</ele>
        <time>2024-09-30T13:59:39.000Z</time>
      </trkpt>
      <trkpt lat="42.37339" lon="0.48873">
        <ele>1035.39</ele>
        <time>2024-09-30T13:59:44.000Z</time>
      </trkpt>
      <trkpt lat="42.37338" lon="0.48845">
        <ele>1036.16</ele>
        <time>2024-09-30T13:59:49.000Z</time>
      </trkpt>
      <trkpt lat="42.3734" lon="0.4883">
        <ele>1036.26</ele>
        <time>2024-09-30T13:59:54.000Z</time>
      </trkpt>
      <trkpt lat="42.37345" lon="0.48819">
        <ele>1037.55</ele>
        <time>2024-09-30T14:01:01.000Z</time>
      </trkpt>
      <trkpt lat="42.37351" lon="0.48797">
        <ele>1040.79</ele>
        <time>2024-09-30T14:01:06.000Z</time>
      </trkpt>
      <trkpt lat="42.37355" lon="0.48766">
        <ele>1043.43</ele>
        <time>2024-09-30T14:01:11.000Z</time>
      </trkpt>
      <trkpt lat="42.37361" lon="0.48737">
        <ele>1044.65</ele>
        <time>2024-09-30T14:01:16.000Z</time>
      </trkpt>
      <trkpt lat="42.37367" lon="0.48705">
        <ele>1045.68</ele>
        <time>2024-09-30T14:01:21.000Z</time>
      </trkpt>
      <trkpt lat="42.37373" lon="0.4867">
        <ele>1046.31</ele>
        <time>2024-09-30T14:01:26.000Z</time>
      </trkpt>
      <trkpt lat="42.37379" lon="0.48637">
        <ele>1046.81</ele>
        <time>2024-09-30T14:01:31.000Z</time>
      </trkpt>
      <trkpt lat="42.37386" lon="0.48603">
        <ele>1047.42</ele>
        <time>2024-09-30T14:01:36.000Z</time>
      </trkpt>
      <trkpt lat="42.37393" lon="0.48564">
        <ele>1047.96</ele>
        <time>2024-09-30T14:01:41.000Z</time>
      </trkpt>
      <trkpt lat="42.374" lon="0.48524">
        <ele>1048.43</ele>
        <time>2024-09-30T14:01:46.000Z</time>
      </trkpt>
      <trkpt lat="42.37408" lon="0.48486">
        <ele>1048.81</ele>
        <time>2024-09-30T14:01:51.000Z</time>
      </trkpt>
      <trkpt lat="42.37415" lon="0.48448">
        <ele>1049.09</ele>
        <time>2024-09-30T14:01:56.000Z</time>
      </trkpt>
      <trkpt lat="42.37422" lon="0.48411">
        <ele>1049.32</ele>
        <time>2024-09-30T14:02:01.000Z</time>
      </trkpt>
      <trkpt lat="42.37429" lon="0.48374">
        <ele>1049.48</ele>
        <time>2024-09-30T14:02:06.000Z</time>
      </trkpt>
      <trkpt lat="42.37436" lon="0.48336">
        <ele>1049.63</ele>
        <time>2024-09-30T14:02:11.000Z</time>
      </trkpt>
      <trkpt lat="42.37443" lon="0.483">
        <ele>1049.73</ele>
        <time>2024-09-30T14:02:16.000Z</time>
      </trkpt>
      <trkpt lat="42.3745" lon="0.48262">
        <ele>1049.82</ele>
        <time>2024-09-30T14:02:21.000Z</time>
      </trkpt>
      <trkpt lat="42.37455" lon="0.48225">
        <ele>1049.85</ele>
        <time>2024-09-30T14:02:26.000Z</time>
      </trkpt>
      <trkpt lat="42.3746" lon="0.48189">
        <ele>1049.82</ele>
        <time>2024-09-30T14:02:31.000Z</time>
      </trkpt>
      <trkpt lat="42.37464" lon="0.48153">
        <ele>1049.8</ele>
        <time>2024-09-30T14:02:36.000Z</time>
      </trkpt>
      <trkpt lat="42.37467" lon="0.48115">
        <ele>1049.67</ele>
        <time>2024-09-30T14:02:41.000Z</time>
      </trkpt>
      <trkpt lat="42.37472" lon="0.48076">
        <ele>1049.48</ele>
        <time>2024-09-30T14:02:46.000Z</time>
      </trkpt>
      <trkpt lat="42.37475" lon="0.48038">
        <ele>1049.29</ele>
        <time>2024-09-30T14:02:51.000Z</time>
      </trkpt>
      <trkpt lat="42.37479" lon="0.48001">
        <ele>1049.17</ele>
        <time>2024-09-30T14:02:56.000Z</time>
      </trkpt>
      <trkpt lat="42.37482" lon="0.47965">
        <ele>1049.02</ele>
        <time>2024-09-30T14:03:01.000Z</time>
      </trkpt>
      <trkpt lat="42.37486" lon="0.47926">
        <ele>1048.93</ele>
        <time>2024-09-30T14:03:06.000Z</time>
      </trkpt>
      <trkpt lat="42.3749" lon="0.47884">
        <ele>1048.85</ele>
        <time>2024-09-30T14:03:11.000Z</time>
      </trkpt>
      <trkpt lat="42.37493" lon="0.47841">
        <ele>1048.7</ele>
        <time>2024-09-30T14:03:16.000Z</time>
      </trkpt>
      <trkpt lat="42.37497" lon="0.47799">
        <ele>1048.42</ele>
        <time>2024-09-30T14:03:21.000Z</time>
      </trkpt>
      <trkpt lat="42.37504" lon="0.47758">
        <ele>1048.14</ele>
        <time>2024-09-30T14:03:26.000Z</time>
      </trkpt>
      <trkpt lat="42.37513" lon="0.47715">
        <ele>1047.81</ele>
        <time>2024-09-30T14:03:31.000Z</time>
      </trkpt>
      <trkpt lat="42.37521" lon="0.47671">
        <ele>1047.55</ele>
        <time>2024-09-30T14:03:36.000Z</time>
      </trkpt>
      <trkpt lat="42.3753" lon="0.47623">
        <ele>1047.23</ele>
        <time>2024-09-30T14:03:41.000Z</time>
      </trkpt>
      <trkpt lat="42.3754" lon="0.47572">
        <ele>1046.87</ele>
        <time>2024-09-30T14:03:46.000Z</time>
      </trkpt>
      <trkpt lat="42.3755" lon="0.47516">
        <ele>1046.16</ele>
        <time>2024-09-30T14:03:51.000Z</time>
      </trkpt>
      <trkpt lat="42.37561" lon="0.47455">
        <ele>1045.32</ele>
        <time>2024-09-30T14:03:56.000Z</time>
      </trkpt>
      <trkpt lat="42.37571" lon="0.4739">
        <ele>1044.62</ele>
        <time>2024-09-30T14:04:01.000Z</time>
      </trkpt>
      <trkpt lat="42.37583" lon="0.47326">
        <ele>1043.68</ele>
        <time>2024-09-30T14:04:06.000Z</time>
      </trkpt>
      <trkpt lat="42.37595" lon="0.47264">
        <ele>1042.79</ele>
        <time>2024-09-30T14:04:11.000Z</time>
      </trkpt>
      <trkpt lat="42.37606" lon="0.47206">
        <ele>1041.65</ele>
        <time>2024-09-30T14:04:16.000Z</time>
      </trkpt>
      <trkpt lat="42.37614" lon="0.47156">
        <ele>1040.09</ele>
        <time>2024-09-30T14:04:21.000Z</time>
      </trkpt>
      <trkpt lat="42.37621" lon="0.47112">
        <ele>1038.26</ele>
        <time>2024-09-30T14:04:26.000Z</time>
      </trkpt>
      <trkpt lat="42.37632" lon="0.47072">
        <ele>1036.6</ele>
        <time>2024-09-30T14:04:31.000Z</time>
      </trkpt>
      <trkpt lat="42.37644" lon="0.47031">
        <ele>1035.2</ele>
        <time>2024-09-30T14:04:36.000Z</time>
      </trkpt>
      <trkpt lat="42.37661" lon="0.46989">
        <ele>1033.88</ele>
        <time>2024-09-30T14:04:41.000Z</time>
      </trkpt>
      <trkpt lat="42.37679" lon="0.46945">
        <ele>1032.76</ele>
        <time>2024-09-30T14:04:46.000Z</time>
      </trkpt>
      <trkpt lat="42.37699" lon="0.46899">
        <ele>1031.9</ele>
        <time>2024-09-30T14:04:51.000Z</time>
      </trkpt>
      <trkpt lat="42.3772" lon="0.46849">
        <ele>1031.05</ele>
        <time>2024-09-30T14:04:56.000Z</time>
      </trkpt>
      <trkpt lat="42.37741" lon="0.46799">
        <ele>1030.09</ele>
        <time>2024-09-30T14:05:01.000Z</time>
      </trkpt>
      <trkpt lat="42.37768" lon="0.4675">
        <ele>1028.54</ele>
        <time>2024-09-30T14:05:06.000Z</time>
      </trkpt>
      <trkpt lat="42.37801" lon="0.46707">
        <ele>1026.97</ele>
        <time>2024-09-30T14:05:11.000Z</time>
      </trkpt>
      <trkpt lat="42.37841" lon="0.46675">
        <ele>1025.35</ele>
        <time>2024-09-30T14:05:16.000Z</time>
      </trkpt>
      <trkpt lat="42.37884" lon="0.46643">
        <ele>1023.88</ele>
        <time>2024-09-30T14:05:21.000Z</time>
      </trkpt>
      <trkpt lat="42.37927" lon="0.46611">
        <ele>1022.96</ele>
        <time>2024-09-30T14:05:26.000Z</time>
      </trkpt>
      <trkpt lat="42.3797" lon="0.46582">
        <ele>1022.05</ele>
        <time>2024-09-30T14:05:31.000Z</time>
      </trkpt>
      <trkpt lat="42.38011" lon="0.46554">
        <ele>1020.42</ele>
        <time>2024-09-30T14:05:36.000Z</time>
      </trkpt>
      <trkpt lat="42.38051" lon="0.46528">
        <ele>1018.31</ele>
        <time>2024-09-30T14:05:41.000Z</time>
      </trkpt>
      <trkpt lat="42.38092" lon="0.46512">
        <ele>1016.38</ele>
        <time>2024-09-30T14:05:46.000Z</time>
      </trkpt>
      <trkpt lat="42.3813" lon="0.46505">
        <ele>1013.27</ele>
        <time>2024-09-30T14:05:51.000Z</time>
      </trkpt>
      <trkpt lat="42.38166" lon="0.46499">
        <ele>1009.65</ele>
        <time>2024-09-30T14:05:56.000Z</time>
      </trkpt>
      <trkpt lat="42.38204" lon="0.46495">
        <ele>1006.62</ele>
        <time>2024-09-30T14:06:01.000Z</time>
      </trkpt>
      <trkpt lat="42.38243" lon="0.46489">
        <ele>1004.28</ele>
        <time>2024-09-30T14:06:06.000Z</time>
      </trkpt>
      <trkpt lat="42.38281" lon="0.46482">
        <ele>1002.92</ele>
        <time>2024-09-30T14:06:11.000Z</time>
      </trkpt>
      <trkpt lat="42.38319" lon="0.46472">
        <ele>1001.17</ele>
        <time>2024-09-30T14:06:16.000Z</time>
      </trkpt>
      <trkpt lat="42.38355" lon="0.46452">
        <ele>998.56</ele>
        <time>2024-09-30T14:06:21.000Z</time>
      </trkpt>
      <trkpt lat="42.38389" lon="0.46423">
        <ele>996.06</ele>
        <time>2024-09-30T14:06:26.000Z</time>
      </trkpt>
      <trkpt lat="42.38422" lon="0.46395">
        <ele>994.62</ele>
        <time>2024-09-30T14:06:31.000Z</time>
      </trkpt>
      <trkpt lat="42.38453" lon="0.46371">
        <ele>993.27</ele>
        <time>2024-09-30T14:06:36.000Z</time>
      </trkpt>
      <trkpt lat="42.38484" lon="0.46354">
        <ele>991.67</ele>
        <time>2024-09-30T14:06:41.000Z</time>
      </trkpt>
      <trkpt lat="42.38515" lon="0.46339">
        <ele>990.2</ele>
        <time>2024-09-30T14:06:46.000Z</time>
      </trkpt>
      <trkpt lat="42.38547" lon="0.4633">
        <ele>988.95</ele>
        <time>2024-09-30T14:06:51.000Z</time>
      </trkpt>
      <trkpt lat="42.38579" lon="0.46324">
        <ele>987.46</ele>
        <time>2024-09-30T14:06:56.000Z</time>
      </trkpt>
      <trkpt lat="42.38609" lon="0.46321">
        <ele>985.95</ele>
        <time>2024-09-30T14:07:01.000Z</time>
      </trkpt>
      <trkpt lat="42.3864" lon="0.46318">
        <ele>984.6</ele>
        <time>2024-09-30T14:07:06.000Z</time>
      </trkpt>
      <trkpt lat="42.38671" lon="0.46309">
        <ele>983.36</ele>
        <time>2024-09-30T14:07:11.000Z</time>
      </trkpt>
      <trkpt lat="42.38699" lon="0.4629">
        <ele>982.16</ele>
        <time>2024-09-30T14:07:16.000Z</time>
      </trkpt>
      <trkpt lat="42.38721" lon="0.46265">
        <ele>981.09</ele>
        <time>2024-09-30T14:07:21.000Z</time>
      </trkpt>
      <trkpt lat="42.38735" lon="0.46237">
        <ele>979.86</ele>
        <time>2024-09-30T14:07:26.000Z</time>
      </trkpt>
      <trkpt lat="42.38745" lon="0.46208">
        <ele>978.91</ele>
        <time>2024-09-30T14:07:31.000Z</time>
      </trkpt>
      <trkpt lat="42.38752" lon="0.46178">
        <ele>978.48</ele>
        <time>2024-09-30T14:07:36.000Z</time>
      </trkpt>
      <trkpt lat="42.38759" lon="0.46148">
        <ele>978.01</ele>
        <time>2024-09-30T14:07:41.000Z</time>
      </trkpt>
      <trkpt lat="42.38767" lon="0.4612">
        <ele>977.65</ele>
        <time>2024-09-30T14:07:46.000Z</time>
      </trkpt>
      <trkpt lat="42.38778" lon="0.46094">
        <ele>977.6</ele>
        <time>2024-09-30T14:07:51.000Z</time>
      </trkpt>
      <trkpt lat="42.38791" lon="0.46071">
        <ele>977.73</ele>
        <time>2024-09-30T14:07:56.000Z</time>
      </trkpt>
      <trkpt lat="42.38807" lon="0.4605">
        <ele>977.76</ele>
        <time>2024-09-30T14:08:01.000Z</time>
      </trkpt>
      <trkpt lat="42.38825" lon="0.46033">
        <ele>977.69</ele>
        <time>2024-09-30T14:08:06.000Z</time>
      </trkpt>
      <trkpt lat="42.38847" lon="0.46016">
        <ele>977.59</ele>
        <time>2024-09-30T14:08:11.999Z</time>
      </trkpt>
      <trkpt lat="42.38864" lon="0.46009">
        <ele>977.67</ele>
        <time>2024-09-30T14:08:16.999Z</time>
      </trkpt>
      <trkpt lat="42.38881" lon="0.46003">
        <ele>977.69</ele>
        <time>2024-09-30T14:08:21.999Z</time>
      </trkpt>
      <trkpt lat="42.38901" lon="0.45998">
        <ele>977.76</ele>
        <time>2024-09-30T14:08:26.999Z</time>
      </trkpt>
      <trkpt lat="42.3892" lon="0.45994">
        <ele>977.72</ele>
        <time>2024-09-30T14:08:31.999Z</time>
      </trkpt>
      <trkpt lat="42.3894" lon="0.45989">
        <ele>977.54</ele>
        <time>2024-09-30T14:08:36.999Z</time>
      </trkpt>
      <trkpt lat="42.38959" lon="0.45982">
        <ele>977.44</ele>
        <time>2024-09-30T14:08:41.999Z</time>
      </trkpt>
      <trkpt lat="42.38979" lon="0.45972">
        <ele>977.22</ele>
        <time>2024-09-30T14:08:46.999Z</time>
      </trkpt>
      <trkpt lat="42.39" lon="0.45959">
        <ele>976.93</ele>
        <time>2024-09-30T14:08:51.999Z</time>
      </trkpt>
      <trkpt lat="42.39021" lon="0.45943">
        <ele>976.57</ele>
        <time>2024-09-30T14:08:56.999Z</time>
      </trkpt>
      <trkpt lat="42.39041" lon="0.45925">
        <ele>976.26</ele>
        <time>2024-09-30T14:09:01.999Z</time>
      </trkpt>
      <trkpt lat="42.39061" lon="0.45908">
        <ele>975.88</ele>
        <time>2024-09-30T14:09:06.999Z</time>
      </trkpt>
      <trkpt lat="42.39083" lon="0.45892">
        <ele>975.55</ele>
        <time>2024-09-30T14:09:11.999Z</time>
      </trkpt>
      <trkpt lat="42.39107" lon="0.45879">
        <ele>975.27</ele>
        <time>2024-09-30T14:09:16.999Z</time>
      </trkpt>
      <trkpt lat="42.39134" lon="0.45871">
        <ele>974.8</ele>
        <time>2024-09-30T14:09:21.999Z</time>
      </trkpt>
      <trkpt lat="42.39163" lon="0.45867">
        <ele>974.48</ele>
        <time>2024-09-30T14:09:26.999Z</time>
      </trkpt>
      <trkpt lat="42.39193" lon="0.45867">
        <ele>974.14</ele>
        <time>2024-09-30T14:09:31.999Z</time>
      </trkpt>
      <trkpt lat="42.39224" lon="0.4587">
        <ele>973.63</ele>
        <time>2024-09-30T14:09:36.999Z</time>
      </trkpt>
      <trkpt lat="42.39253" lon="0.45871">
        <ele>973.11</ele>
        <time>2024-09-30T14:09:41.999Z</time>
      </trkpt>
      <trkpt lat="42.39283" lon="0.45867">
        <ele>972.58</ele>
        <time>2024-09-30T14:09:46.999Z</time>
      </trkpt>
      <trkpt lat="42.39314" lon="0.45854">
        <ele>971.74</ele>
        <time>2024-09-30T14:09:51.999Z</time>
      </trkpt>
      <trkpt lat="42.39347" lon="0.45834">
        <ele>970.87</ele>
        <time>2024-09-30T14:09:56.999Z</time>
      </trkpt>
      <trkpt lat="42.39382" lon="0.45807">
        <ele>969.82</ele>
        <time>2024-09-30T14:10:01.999Z</time>
      </trkpt>
      <trkpt lat="42.39422" lon="0.45777">
        <ele>968.52</ele>
        <time>2024-09-30T14:10:06.999Z</time>
      </trkpt>
      <trkpt lat="42.39473" lon="0.45757">
        <ele>966.92</ele>
        <time>2024-09-30T14:10:11.999Z</time>
      </trkpt>
      <trkpt lat="42.39531" lon="0.45749">
        <ele>964.87</ele>
        <time>2024-09-30T14:10:16.999Z</time>
      </trkpt>
      <trkpt lat="42.39588" lon="0.45723">
        <ele>962.6</ele>
        <time>2024-09-30T14:10:21.999Z</time>
      </trkpt>
      <trkpt lat="42.39632" lon="0.45661">
        <ele>960.95</ele>
        <time>2024-09-30T14:10:26.999Z</time>
      </trkpt>
      <trkpt lat="42.39646" lon="0.45575">
        <ele>959.07</ele>
        <time>2024-09-30T14:10:31.999Z</time>
      </trkpt>
      <trkpt lat="42.39639" lon="0.45486">
        <ele>955.8</ele>
        <time>2024-09-30T14:10:36.999Z</time>
      </trkpt>
      <trkpt lat="42.39656" lon="0.45403">
        <ele>952.35</ele>
        <time>2024-09-30T14:10:41.999Z</time>
      </trkpt>
      <trkpt lat="42.39691" lon="0.45332">
        <ele>949.13</ele>
        <time>2024-09-30T14:10:46.999Z</time>
      </trkpt>
      <trkpt lat="42.39739" lon="0.45277">
        <ele>946.13</ele>
        <time>2024-09-30T14:10:51.999Z</time>
      </trkpt>
      <trkpt lat="42.39797" lon="0.4524">
        <ele>942.49</ele>
        <time>2024-09-30T14:10:56.999Z</time>
      </trkpt>
      <trkpt lat="42.39862" lon="0.45227">
        <ele>937.92</ele>
        <time>2024-09-30T14:11:01.999Z</time>
      </trkpt>
      <trkpt lat="42.3993" lon="0.45234">
        <ele>930.33</ele>
        <time>2024-09-30T14:11:06.999Z</time>
      </trkpt>
      <trkpt lat="42.39998" lon="0.45224">
        <ele>923.15</ele>
        <time>2024-09-30T14:11:11.999Z</time>
      </trkpt>
      <trkpt lat="42.40057" lon="0.45175">
        <ele>917.04</ele>
        <time>2024-09-30T14:11:16.999Z</time>
      </trkpt>
      <trkpt lat="42.40093" lon="0.45094">
        <ele>907.77</ele>
        <time>2024-09-30T14:11:21.999Z</time>
      </trkpt>
      <trkpt lat="42.40094" lon="0.45001">
        <ele>898.64</ele>
        <time>2024-09-30T14:11:26.999Z</time>
      </trkpt>
      <trkpt lat="42.40092" lon="0.44909">
        <ele>890.69</ele>
        <time>2024-09-30T14:11:31.999Z</time>
      </trkpt>
      <trkpt lat="42.4011" lon="0.44823">
        <ele>886.1</ele>
        <time>2024-09-30T14:11:36.999Z</time>
      </trkpt>
      <trkpt lat="42.40145" lon="0.44749">
        <ele>881.47</ele>
        <time>2024-09-30T14:11:41.999Z</time>
      </trkpt>
      <trkpt lat="42.40196" lon="0.44696">
        <ele>877.75</ele>
        <time>2024-09-30T14:11:46.999Z</time>
      </trkpt>
      <trkpt lat="42.40248" lon="0.44652">
        <ele>875.3</ele>
        <time>2024-09-30T14:11:51.999Z</time>
      </trkpt>
      <trkpt lat="42.40292" lon="0.44595">
        <ele>868.87</ele>
        <time>2024-09-30T14:11:56.999Z</time>
      </trkpt>
      <trkpt lat="42.40322" lon="0.44522">
        <ele>863.69</ele>
        <time>2024-09-30T14:12:01.999Z</time>
      </trkpt>
      <trkpt lat="42.40343" lon="0.44443">
        <ele>858.03</ele>
        <time>2024-09-30T14:12:06.999Z</time>
      </trkpt>
      <trkpt lat="42.40363" lon="0.44365">
        <ele>851.47</ele>
        <time>2024-09-30T14:12:11.999Z</time>
      </trkpt>
      <trkpt lat="42.40383" lon="0.44284">
        <ele>845.33</ele>
        <time>2024-09-30T14:12:16.999Z</time>
      </trkpt>
      <trkpt lat="42.40395" lon="0.442">
        <ele>841.4</ele>
        <time>2024-09-30T14:12:21.999Z</time>
      </trkpt>
      <trkpt lat="42.4039" lon="0.44115">
        <ele>838.88</ele>
        <time>2024-09-30T14:12:26.999Z</time>
      </trkpt>
      <trkpt lat="42.40374" lon="0.44032">
        <ele>836.55</ele>
        <time>2024-09-30T14:12:31.999Z</time>
      </trkpt>
      <trkpt lat="42.4037" lon="0.43948">
        <ele>833.87</ele>
        <time>2024-09-30T14:12:36.999Z</time>
      </trkpt>
      <trkpt lat="42.40379" lon="0.43867">
        <ele>824.4</ele>
        <time>2024-09-30T14:12:41.999Z</time>
      </trkpt>
      <trkpt lat="42.40409" lon="0.43793">
        <ele>816.78</ele>
        <time>2024-09-30T14:12:46.999Z</time>
      </trkpt>
      <trkpt lat="42.40448" lon="0.43726">
        <ele>811.05</ele>
        <time>2024-09-30T14:12:51.999Z</time>
      </trkpt>
      <trkpt lat="42.40469" lon="0.43645">
        <ele>803.25</ele>
        <time>2024-09-30T14:12:56.999Z</time>
      </trkpt>
      <trkpt lat="42.4047" lon="0.4356">
        <ele>797.24</ele>
        <time>2024-09-30T14:13:01.999Z</time>
      </trkpt>
      <trkpt lat="42.4047" lon="0.43479">
        <ele>792.4</ele>
        <time>2024-09-30T14:13:06.999Z</time>
      </trkpt>
      <trkpt lat="42.4048" lon="0.43407">
        <ele>788.82</ele>
        <time>2024-09-30T14:13:11.999Z</time>
      </trkpt>
      <trkpt lat="42.40491" lon="0.43344">
        <ele>786.26</ele>
        <time>2024-09-30T14:13:16.999Z</time>
      </trkpt>
      <trkpt lat="42.40501" lon="0.43291">
        <ele>783.93</ele>
        <time>2024-09-30T14:13:21.999Z</time>
      </trkpt>
      <trkpt lat="42.40512" lon="0.43245">
        <ele>782.18</ele>
        <time>2024-09-30T14:13:26.999Z</time>
      </trkpt>
      <trkpt lat="42.40522" lon="0.43202">
        <ele>780.08</ele>
        <time>2024-09-30T14:13:31.999Z</time>
      </trkpt>
      <trkpt lat="42.40531" lon="0.43159">
        <ele>777.75</ele>
        <time>2024-09-30T14:13:36.999Z</time>
      </trkpt>
      <trkpt lat="42.40541" lon="0.43116">
        <ele>775.43</ele>
        <time>2024-09-30T14:13:41.999Z</time>
      </trkpt>
      <trkpt lat="42.4055" lon="0.43074">
        <ele>773.12</ele>
        <time>2024-09-30T14:13:46.999Z</time>
      </trkpt>
      <trkpt lat="42.40558" lon="0.43034">
        <ele>770.43</ele>
        <time>2024-09-30T14:13:51.999Z</time>
      </trkpt>
      <trkpt lat="42.40567" lon="0.42991">
        <ele>768.14</ele>
        <time>2024-09-30T14:13:56.999Z</time>
      </trkpt>
      <trkpt lat="42.40576" lon="0.42947">
        <ele>766.22</ele>
        <time>2024-09-30T14:14:01.999Z</time>
      </trkpt>
      <trkpt lat="42.40585" lon="0.42902">
        <ele>764.42</ele>
        <time>2024-09-30T14:14:06.999Z</time>
      </trkpt>
      <trkpt lat="42.40595" lon="0.42853">
        <ele>762.68</ele>
        <time>2024-09-30T14:14:11.999Z</time>
      </trkpt>
      <trkpt lat="42.40605" lon="0.42802">
        <ele>761.16</ele>
        <time>2024-09-30T14:14:16.999Z</time>
      </trkpt>
      <trkpt lat="42.40615" lon="0.42749">
        <ele>759.56</ele>
        <time>2024-09-30T14:14:21.999Z</time>
      </trkpt>
      <trkpt lat="42.40625" lon="0.42695">
        <ele>758.15</ele>
        <time>2024-09-30T14:14:26.999Z</time>
      </trkpt>
      <trkpt lat="42.40636" lon="0.4264">
        <ele>757.11</ele>
        <time>2024-09-30T14:14:31.999Z</time>
      </trkpt>
      <trkpt lat="42.40647" lon="0.42584">
        <ele>755.82</ele>
        <time>2024-09-30T14:14:36.999Z</time>
      </trkpt>
      <trkpt lat="42.40659" lon="0.42527">
        <ele>754.61</ele>
        <time>2024-09-30T14:14:41.999Z</time>
      </trkpt>
      <trkpt lat="42.40671" lon="0.42471">
        <ele>753.75</ele>
        <time>2024-09-30T14:14:46.999Z</time>
      </trkpt>
      <trkpt lat="42.40682" lon="0.42418">
        <ele>752.78</ele>
        <time>2024-09-30T14:14:51.999Z</time>
      </trkpt>
      <trkpt lat="42.40693" lon="0.42367">
        <ele>751.41</ele>
        <time>2024-09-30T14:14:56.999Z</time>
      </trkpt>
      <trkpt lat="42.40704" lon="0.42316">
        <ele>750.23</ele>
        <time>2024-09-30T14:15:01.999Z</time>
      </trkpt>
      <trkpt lat="42.40715" lon="0.42266">
        <ele>749.15</ele>
        <time>2024-09-30T14:15:06.999Z</time>
      </trkpt>
      <trkpt lat="42.40726" lon="0.42217">
        <ele>748.33</ele>
        <time>2024-09-30T14:15:11.999Z</time>
      </trkpt>
      <trkpt lat="42.40737" lon="0.4217">
        <ele>747.59</ele>
        <time>2024-09-30T14:15:16.999Z</time>
      </trkpt>
      <trkpt lat="42.40746" lon="0.42125">
        <ele>746.83</ele>
        <time>2024-09-30T14:15:21.999Z</time>
      </trkpt>
      <trkpt lat="42.40755" lon="0.42079">
        <ele>746.16</ele>
        <time>2024-09-30T14:15:26.999Z</time>
      </trkpt>
      <trkpt lat="42.40761" lon="0.42034">
        <ele>745.47</ele>
        <time>2024-09-30T14:15:31.999Z</time>
      </trkpt>
      <trkpt lat="42.40764" lon="0.4199">
        <ele>744.54</ele>
        <time>2024-09-30T14:15:36.999Z</time>
      </trkpt>
      <trkpt lat="42.40765" lon="0.41947">
        <ele>743.52</ele>
        <time>2024-09-30T14:15:41.999Z</time>
      </trkpt>
      <trkpt lat="42.40764" lon="0.41904">
        <ele>742.45</ele>
        <time>2024-09-30T14:15:46.999Z</time>
      </trkpt>
      <trkpt lat="42.40761" lon="0.41863">
        <ele>741.8</ele>
        <time>2024-09-30T14:15:51.999Z</time>
      </trkpt>
      <trkpt lat="42.40757" lon="0.41827">
        <ele>741.39</ele>
        <time>2024-09-30T14:15:56.999Z</time>
      </trkpt>
      <trkpt lat="42.40751" lon="0.41794">
        <ele>741</ele>
        <time>2024-09-30T14:16:01.999Z</time>
      </trkpt>
      <trkpt lat="42.40745" lon="0.41759">
        <ele>740.73</ele>
        <time>2024-09-30T14:16:06.999Z</time>
      </trkpt>
      <trkpt lat="42.40737" lon="0.41721">
        <ele>740.28</ele>
        <time>2024-09-30T14:16:11.999Z</time>
      </trkpt>
      <trkpt lat="42.40728" lon="0.41682">
        <ele>739.4</ele>
        <time>2024-09-30T14:16:16.999Z</time>
      </trkpt>
      <trkpt lat="42.4072" lon="0.41643">
        <ele>738.5</ele>
        <time>2024-09-30T14:16:21.999Z</time>
      </trkpt>
      <trkpt lat="42.40711" lon="0.41603">
        <ele>737.67</ele>
        <time>2024-09-30T14:16:26.999Z</time>
      </trkpt>
      <trkpt lat="42.40702" lon="0.41562">
        <ele>736.76</ele>
        <time>2024-09-30T14:16:31.999Z</time>
      </trkpt>
      <trkpt lat="42.40693" lon="0.41519">
        <ele>735.99</ele>
        <time>2024-09-30T14:16:36.999Z</time>
      </trkpt>
      <trkpt lat="42.40684" lon="0.41474">
        <ele>735.41</ele>
        <time>2024-09-30T14:16:41.999Z</time>
      </trkpt>
      <trkpt lat="42.40674" lon="0.41426">
        <ele>734.86</ele>
        <time>2024-09-30T14:16:46.999Z</time>
      </trkpt>
      <trkpt lat="42.40668" lon="0.41376">
        <ele>734.37</ele>
        <time>2024-09-30T14:16:51.999Z</time>
      </trkpt>
      <trkpt lat="42.40665" lon="0.41327">
        <ele>734.01</ele>
        <time>2024-09-30T14:16:56.999Z</time>
      </trkpt>
      <trkpt lat="42.40664" lon="0.41278">
        <ele>733.49</ele>
        <time>2024-09-30T14:17:01.999Z</time>
      </trkpt>
      <trkpt lat="42.40666" lon="0.41232">
        <ele>733.01</ele>
        <time>2024-09-30T14:17:06.999Z</time>
      </trkpt>
      <trkpt lat="42.4067" lon="0.41186">
        <ele>732.64</ele>
        <time>2024-09-30T14:17:11.999Z</time>
      </trkpt>
      <trkpt lat="42.40674" lon="0.41144">
        <ele>732.38</ele>
        <time>2024-09-30T14:17:16.999Z</time>
      </trkpt>
      <trkpt lat="42.40679" lon="0.41106">
        <ele>732.12</ele>
        <time>2024-09-30T14:17:21.999Z</time>
      </trkpt>
      <trkpt lat="42.40683" lon="0.41072">
        <ele>731.98</ele>
        <time>2024-09-30T14:17:26.999Z</time>
      </trkpt>
      <trkpt lat="42.40686" lon="0.41042">
        <ele>731.53</ele>
        <time>2024-09-30T14:17:31.999Z</time>
      </trkpt>
      <trkpt lat="42.40686" lon="0.41013">
        <ele>730.97</ele>
        <time>2024-09-30T14:17:36.999Z</time>
      </trkpt>
      <trkpt lat="42.40686" lon="0.40985">
        <ele>730.34</ele>
        <time>2024-09-30T14:17:41.999Z</time>
      </trkpt>
      <trkpt lat="42.40683" lon="0.40954">
        <ele>729.57</ele>
        <time>2024-09-30T14:17:46.999Z</time>
      </trkpt>
      <trkpt lat="42.4068" lon="0.40922">
        <ele>728.77</ele>
        <time>2024-09-30T14:17:51.999Z</time>
      </trkpt>
      <trkpt lat="42.40675" lon="0.4089">
        <ele>727.87</ele>
        <time>2024-09-30T14:17:56.999Z</time>
      </trkpt>
      <trkpt lat="42.4067" lon="0.40859">
        <ele>727.04</ele>
        <time>2024-09-30T14:18:01.999Z</time>
      </trkpt>
      <trkpt lat="42.40665" lon="0.40828">
        <ele>726.14</ele>
        <time>2024-09-30T14:18:06.999Z</time>
      </trkpt>
      <trkpt lat="42.40662" lon="0.408">
        <ele>725.52</ele>
        <time>2024-09-30T14:18:11.999Z</time>
      </trkpt>
      <trkpt lat="42.40659" lon="0.40774">
        <ele>725.3</ele>
        <time>2024-09-30T14:18:16.999Z</time>
      </trkpt>
      <trkpt lat="42.40663" lon="0.40755">
        <ele>725.25</ele>
        <time>2024-09-30T14:18:21.999Z</time>
      </trkpt>
      <trkpt lat="42.40671" lon="0.40745">
        <ele>724.14</ele>
        <time>2024-09-30T14:19:50.999Z</time>
      </trkpt>
      <trkpt lat="42.40681" lon="0.40744">
        <ele>723.67</ele>
        <time>2024-09-30T14:19:55.999Z</time>
      </trkpt>
      <trkpt lat="42.40693" lon="0.40741">
        <ele>723.24</ele>
        <time>2024-09-30T14:20:00.999Z</time>
      </trkpt>
      <trkpt lat="42.40704" lon="0.40742">
        <ele>722.86</ele>
        <time>2024-09-30T14:20:05.999Z</time>
      </trkpt>
      <trkpt lat="42.40715" lon="0.40746">
        <ele>722.53</ele>
        <time>2024-09-30T14:20:10.999Z</time>
      </trkpt>
      <trkpt lat="42.40725" lon="0.40753">
        <ele>722.25</ele>
        <time>2024-09-30T14:20:16.000Z</time>
      </trkpt>
      <trkpt lat="42.40736" lon="0.40759">
        <ele>722.02</ele>
        <time>2024-09-30T14:20:21.000Z</time>
      </trkpt>
      <trkpt lat="42.40748" lon="0.40754">
        <ele>721.82</ele>
        <time>2024-09-30T14:20:26.000Z</time>
      </trkpt>
      <trkpt lat="42.40753" lon="0.40735">
        <ele>721.66</ele>
        <time>2024-09-30T14:20:31.000Z</time>
      </trkpt>
      <trkpt lat="42.40759" lon="0.40715">
        <ele>721.53</ele>
        <time>2024-09-30T14:20:36.000Z</time>
      </trkpt>
      <trkpt lat="42.40767" lon="0.40694">
        <ele>721.43</ele>
        <time>2024-09-30T14:20:41.000Z</time>
      </trkpt>
      <trkpt lat="42.40775" lon="0.40675">
        <ele>721.36</ele>
        <time>2024-09-30T14:20:46.000Z</time>
      </trkpt>
      <trkpt lat="42.40784" lon="0.40655">
        <ele>721.31</ele>
        <time>2024-09-30T14:20:51.000Z</time>
      </trkpt>
      <trkpt lat="42.40792" lon="0.40635">
        <ele>721.28</ele>
        <time>2024-09-30T14:20:56.000Z</time>
      </trkpt>
      <trkpt lat="42.408" lon="0.40614">
        <ele>721.28</ele>
        <time>2024-09-30T14:21:01.000Z</time>
      </trkpt>
      <trkpt lat="42.40808" lon="0.40593">
        <ele>721.31</ele>
        <time>2024-09-30T14:21:06.000Z</time>
      </trkpt>
      <trkpt lat="42.40817" lon="0.40573">
        <ele>721.36</ele>
        <time>2024-09-30T14:21:11.000Z</time>
      </trkpt>
      <trkpt lat="42.40826" lon="0.40553">
        <ele>721.42</ele>
        <time>2024-09-30T14:21:16.000Z</time>
      </trkpt>
      <trkpt lat="42.40835" lon="0.40535">
        <ele>721.5</ele>
        <time>2024-09-30T14:21:21.000Z</time>
      </trkpt>
      <trkpt lat="42.40844" lon="0.40514">
        <ele>721.58</ele>
        <time>2024-09-30T14:21:26.000Z</time>
      </trkpt>
      <trkpt lat="42.40852" lon="0.40493">
        <ele>721.67</ele>
        <time>2024-09-30T14:21:31.000Z</time>
      </trkpt>
      <trkpt lat="42.40861" lon="0.40471">
        <ele>721.88</ele>
        <time>2024-09-30T14:21:36.000Z</time>
      </trkpt>
      <trkpt lat="42.4087" lon="0.40447">
        <ele>722.37</ele>
        <time>2024-09-30T14:21:41.000Z</time>
      </trkpt>
      <trkpt lat="42.4088" lon="0.40423">
        <ele>722.6</ele>
        <time>2024-09-30T14:21:46.000Z</time>
      </trkpt>
      <trkpt lat="42.40891" lon="0.40398">
        <ele>722.62</ele>
        <time>2024-09-30T14:21:51.000Z</time>
      </trkpt>
      <trkpt lat="42.40902" lon="0.40371">
        <ele>722.59</ele>
        <time>2024-09-30T14:21:56.000Z</time>
      </trkpt>
      <trkpt lat="42.40912" lon="0.40346">
        <ele>722.45</ele>
        <time>2024-09-30T14:22:01.000Z</time>
      </trkpt>
      <trkpt lat="42.40924" lon="0.4032">
        <ele>722.16</ele>
        <time>2024-09-30T14:22:06.000Z</time>
      </trkpt>
      <trkpt lat="42.40935" lon="0.40295">
        <ele>721.87</ele>
        <time>2024-09-30T14:22:11.000Z</time>
      </trkpt>
      <trkpt lat="42.40946" lon="0.40275">
        <ele>721.77</ele>
        <time>2024-09-30T14:22:16.000Z</time>
      </trkpt>
      <trkpt lat="42.40951" lon="0.40265">
        <ele>721.74</ele>
        <time>2024-09-30T14:22:21.000Z</time>
      </trkpt>
      <trkpt lat="42.40954" lon="0.40251">
        <ele>721.66</ele>
        <time>2024-09-30T14:22:43.000Z</time>
      </trkpt>
      <trkpt lat="42.40961" lon="0.40231">
        <ele>721.61</ele>
        <time>2024-09-30T14:22:48.000Z</time>
      </trkpt>
      <trkpt lat="42.40966" lon="0.40208">
        <ele>721.56</ele>
        <time>2024-09-30T14:22:53.000Z</time>
      </trkpt>
      <trkpt lat="42.40969" lon="0.40183">
        <ele>721.42</ele>
        <time>2024-09-30T14:22:58.000Z</time>
      </trkpt>
      <trkpt lat="42.40972" lon="0.40161">
        <ele>721.37</ele>
        <time>2024-09-30T14:23:03.000Z</time>
      </trkpt>
      <trkpt lat="42.40973" lon="0.4014">
        <ele>721.32</ele>
        <time>2024-09-30T14:23:08.000Z</time>
      </trkpt>
      <trkpt lat="42.40976" lon="0.40119">
        <ele>721.26</ele>
        <time>2024-09-30T14:23:13.000Z</time>
      </trkpt>
      <trkpt lat="42.40979" lon="0.40096">
        <ele>721.2</ele>
        <time>2024-09-30T14:23:18.000Z</time>
      </trkpt>
      <trkpt lat="42.40982" lon="0.4007">
        <ele>721.13</ele>
        <time>2024-09-30T14:23:23.000Z</time>
      </trkpt>
      <trkpt lat="42.40983" lon="0.40043">
        <ele>720.88</ele>
        <time>2024-09-30T14:23:28.000Z</time>
      </trkpt>
      <trkpt lat="42.40983" lon="0.40019">
        <ele>720.73</ele>
        <time>2024-09-30T14:23:33.000Z</time>
      </trkpt>
      <trkpt lat="42.40978" lon="0.39991">
        <ele>720.54</ele>
        <time>2024-09-30T14:23:38.000Z</time>
      </trkpt>
      <trkpt lat="42.4097" lon="0.39965">
        <ele>720.53</ele>
        <time>2024-09-30T14:23:43.000Z</time>
      </trkpt>
      <trkpt lat="42.40963" lon="0.3994">
        <ele>720.6</ele>
        <time>2024-09-30T14:23:48.000Z</time>
      </trkpt>
      <trkpt lat="42.40955" lon="0.39914">
        <ele>720.71</ele>
        <time>2024-09-30T14:23:53.000Z</time>
      </trkpt>
      <trkpt lat="42.40954" lon="0.39886">
        <ele>720.75</ele>
        <time>2024-09-30T14:23:58.000Z</time>
      </trkpt>
      <trkpt lat="42.40957" lon="0.39859">
        <ele>720.76</ele>
        <time>2024-09-30T14:24:03.000Z</time>
      </trkpt>
      <trkpt lat="42.40961" lon="0.39839">
        <ele>720.74</ele>
        <time>2024-09-30T14:24:08.000Z</time>
      </trkpt>
      <trkpt lat="42.40965" lon="0.39817">
        <ele>720.72</ele>
        <time>2024-09-30T14:24:13.000Z</time>
      </trkpt>
      <trkpt lat="42.40966" lon="0.39795">
        <ele>720.67</ele>
        <time>2024-09-30T14:24:18.000Z</time>
      </trkpt>
      <trkpt lat="42.40969" lon="0.39774">
        <ele>720.61</ele>
        <time>2024-09-30T14:24:23.000Z</time>
      </trkpt>
      <trkpt lat="42.40971" lon="0.39762">
        <ele>720.53</ele>
        <time>2024-09-30T14:24:28.000Z</time>
      </trkpt>
      <trkpt lat="42.40976" lon="0.3975">
        <ele>720.24</ele>
        <time>2024-09-30T14:24:48.000Z</time>
      </trkpt>
      <trkpt lat="42.40985" lon="0.39747">
        <ele>719.98</ele>
        <time>2024-09-30T14:24:56.000Z</time>
      </trkpt>
      <trkpt lat="42.40974" lon="0.39749">
        <ele>719.78</ele>
        <time>2024-09-30T14:25:03.000Z</time>
      </trkpt>
      <trkpt lat="42.40967" lon="0.39756">
        <ele>719.3</ele>
        <time>2024-09-30T14:25:34.000Z</time>
      </trkpt>
      <trkpt lat="42.40975" lon="0.39761">
        <ele>710.87</ele>
        <time>2024-09-30T14:33:41.999Z</time>
      </trkpt>
      <trkpt lat="42.40969" lon="0.39753">
        <ele>711.17</ele>
        <time>2024-09-30T14:36:10.999Z</time>
      </trkpt>
    </trkseg>
  </trk>
</gpx>